GFSNW_500_spd_000.txt.gz
Wind_Speed
14 13 13 13 12 15 16 19 20 16 12 13 13 13 12 12 11 11 12 12 12 14 15 17 18 19 18 18 22 23 20 21 22 24 28 26 26 32 30 34 38 43 49 43
19 17 14 14 14 14 15 17 22 21 16 16 16 16 16 16 16 16 16 15 15 15 15 16 16 16 19 23 27 31 30 28 30 27 32 35 30 27 32 36 40 41 52 50
23 22 19 17 15 15 15 16 19 23 21 19 19 19 20 21 21 22 22 21 20 19 19 19 19 20 22 26 30 33 35 33 35 34 37 42 39 32 32 42 46 50 54 56
28 26 24 22 20 19 17 18 19 20 24 24 22 22 23 25 26 26 25 24 23 25 26 25 26 26 28 31 34 38 40 38 41 37 40 44 44 39 36 45 42 53 53 54
33 31 28 26 24 23 21 20 22 22 22 23 26 27 26 27 27 26 26 27 27 29 31 31 31 32 34 33 35 40 41 42 46 44 42 47 47 39 41 43 45 51 55 58
34 32 31 31 30 28 26 26 23 25 26 25 26 27 29 29 31 31 32 31 30 31 31 31 31 32 34 37 39 42 42 45 47 46 47 52 51 45 48 54 57 57 61 63
39 40 36 34 34 33 32 30 29 27 25 27 30 30 30 31 32 34 36 36 38 37 38 37 36 36 38 40 39 43 41 42 46 50 52 58 58 51 57 60 59 58 62 63
54 52 50 45 40 37 35 36 35 33 29 28 28 32 32 33 35 35 36 39 41 42 42 45 44 42 44 43 42 41 42 46 50 54 58 62 63 55 60 62 63 64 64 68
58 56 54 50 51 47 45 40 38 37 35 29 34 33 32 34 35 36 38 42 44 44 46 47 50 49 46 49 48 45 47 49 55 56 60 65 62 59 61 65 68 67 69 72
59 57 53 49 49 52 46 42 41 43 42 37 40 38 37 37 40 40 42 46 45 46 49 51 52 55 56 58 56 55 53 54 56 55 61 67 64 66 67 68 70 73 74 74
53 52 51 46 46 48 48 46 46 45 48 46 42 43 41 39 40 46 50 51 49 49 50 53 53 58 56 58 54 52 52 54 56 58 61 64 63 64 65 69 71 71 70 69
48 45 46 47 45 46 47 50 53 56 56 54 49 48 42 45 46 48 55 57 54 57 55 52 56 56 59 56 60 54 58 57 58 57 64 61 62 66 69 68 68 70 70 71
46 46 47 48 46 45 46 47 47 51 54 55 54 50 45 50 49 51 54 55 54 55 53 55 57 59 57 58 62 62 63 61 63 64 63 66 68 68 67 66 67 69 69 70
51 50 49 49 48 50 49 49 49 52 53 55 53 53 49 45 47 49 50 49 52 55 52 57 61 62 62 66 64 66 65 61 61 67 65 66 65 65 65 66 66 66 68 70
56 52 52 55 54 51 52 52 53 52 52 56 56 54 54 49 49 51 53 54 53 54 57 59 59 59 57 62 65 68 59 57 57 64 63 66 65 65 64 64 64 67 68 68
56 56 56 55 54 55 56 55 57 55 53 58 58 58 56 56 55 55 53 53 53 54 57 58 58 58 60 64 70 59 51 56 61 67 67 68 66 64 64 65 66 67 69 68
53 52 53 51 54 52 54 57 60 58 55 56 60 64 63 63 61 57 58 54 53 52 55 57 58 59 61 65 68 52 59 62 63 65 66 65 61 63 62 63 64 64 65 66
55 56 52 50 49 51 55 57 58 56 55 57 59 66 65 65 65 62 61 60 59 62 62 60 58 58 63 66 58 63 65 65 64 60 58 59 60 59 61 61 64 65 64 65
55 54 53 53 52 52 55 57 56 54 56 59 62 62 61 65 64 61 62 67 70 71 69 68 69 67 68 64 68 68 65 64 61 59 56 58 61 61 62 66 65 63 62 60
59 57 56 59 59 59 57 58 58 57 59 60 59 57 59 60 64 68 70 72 74 75 72 74 73 71 69 70 72 70 65 64 61 62 61 63 63 65 66 66 62 59 58 56
59 58 57 58 59 61 62 64 64 60 61 61 59 59 59 61 65 69 75 76 75 76 73 74 75 74 74 73 66 63 64 66 66 66 66 69 70 69 69 64 60 57 54 53
59 59 58 58 58 60 61 62 65 68 68 66 63 62 64 66 69 70 71 72 75 77 76 77 77 70 68 62 59 63 63 64 65 66 69 71 68 66 62 60 55 51 51 50
59 59 59 58 58 59 59 60 62 64 66 68 68 68 67 67 68 70 72 70 70 69 67 62 53 50 58 59 65 63 63 65 68 69 74 71 69 62 58 53 48 47 47 46
55 57 59 57 57 60 56 54 53 55 57 60 62 64 64 65 63 58 58 60 59 53 52 46 47 55 65 71 69 66 67 69 70 71 68 64 60 53 48 44 43 45 45 43
47 48 50 51 52 48 46 48 49 51 54 55 56 57 57 56 55 56 58 60 62 61 58 58 60 63 66 68 68 67 67 64 60 58 56 52 48 44 42 43 42 42 42 39
44 43 40 40 42 44 46 48 50 51 53 53 52 52 54 54 57 59 60 62 63 57 55 59 65 67 66 63 62 60 57 54 51 48 44 41 39 40 40 39 41 40 38 35
41 37 40 44 46 49 51 52 52 53 52 51 52 55 56 58 62 61 58 56 55 57 59 61 61 58 55 54 53 51 48 45 40 35 37 36 39 38 37 40 39 36 33 36

GFSNW_500_spd_003.txt.gz
Wind_Speed
17 17 15 13 13 12 12 12 14 15 15 14 14 14 14 14 14 13 12 12 13 13 14 16 19 18 16 16 18 21 21 23 23 26 29 30 29 30 36 39 43 44 49 52
20 18 17 15 15 14 13 12 13 15 17 18 17 18 17 17 17 16 16 17 17 17 17 18 17 17 19 21 22 23 25 27 28 29 35 36 31 31 33 42 46 42 51 52
24 21 20 19 18 17 16 15 15 14 16 19 20 20 21 20 21 21 21 22 22 23 23 23 23 24 25 29 31 33 34 34 36 34 37 40 41 34 29 40 47 52 52 56
29 27 25 23 22 20 18 17 17 17 18 18 20 23 23 23 24 25 26 25 25 24 24 26 28 30 32 34 37 40 41 38 42 38 42 47 46 38 31 39 43 50 54 55
34 29 27 26 25 23 22 21 20 20 20 21 22 23 24 27 28 27 27 28 28 28 29 28 28 30 33 33 37 39 44 44 46 43 42 48 50 40 41 48 48 51 54 56
37 36 33 30 28 27 26 25 25 24 23 24 24 24 26 28 29 30 32 33 34 34 33 34 33 34 35 35 37 40 43 46 51 53 47 53 53 56 52 55 57 59 62 62
41 40 36 35 33 31 29 28 28 29 29 29 29 29 29 29 30 32 33 34 36 37 39 40 40 40 40 40 39 43 45 46 51 55 53 56 59 54 58 60 62 58 62 64
45 45 42 40 39 34 34 39 35 34 32 32 33 34 33 32 32 33 35 37 37 38 39 41 40 39 41 42 43 43 45 50 54 57 59 63 63 59 62 63 64 65 64 64
49 51 46 42 43 45 47 46 44 42 40 38 39 38 37 34 33 36 38 40 41 41 44 46 49 49 49 51 52 51 50 52 56 57 60 65 59 55 62 66 66 68 67 68
55 56 56 53 52 48 51 48 48 49 47 43 41 41 39 38 38 41 43 44 45 45 48 50 51 55 56 59 59 57 57 55 54 51 56 62 56 62 63 67 68 68 68 67
63 58 60 60 60 60 56 51 52 49 51 45 41 42 39 41 40 44 47 49 48 50 52 56 56 59 58 58 56 55 55 56 59 59 62 66 64 63 58 64 68 69 69 70
57 57 61 60 61 59 54 49 49 50 50 51 48 48 41 48 53 54 56 58 56 54 56 58 60 59 58 57 58 52 56 56 59 59 63 61 61 60 64 65 66 64 68 70
52 53 53 53 51 50 47 44 45 48 49 50 47 45 44 46 47 53 52 53 53 56 56 57 60 61 58 57 60 61 61 58 59 55 57 59 61 61 62 63 66 67 70 73
52 51 50 49 49 48 46 46 45 47 50 52 52 49 46 47 49 49 51 53 52 51 49 52 58 61 63 62 63 64 63 62 60 60 59 62 62 60 64 65 69 71 72 74
51 50 50 49 49 48 48 48 47 47 50 55 55 57 54 52 51 51 53 53 53 52 54 56 57 60 60 62 64 65 60 56 56 56 59 61 63 65 67 70 71 73 74 73
55 53 51 50 49 48 45 49 51 51 51 54 57 61 60 57 57 56 54 55 56 54 52 57 61 57 58 62 67 64 55 55 55 61 61 64 68 70 73 77 75 73 72 71
57 56 54 54 51 50 50 53 55 51 51 52 56 60 63 62 63 60 56 52 48 54 59 60 62 61 61 65 68 53 57 61 64 64 66 69 70 74 74 72 68 67 68 71
48 47 47 46 48 48 50 53 52 51 52 52 55 59 64 64 65 64 61 61 60 61 61 65 65 62 68 72 63 64 64 65 66 68 70 71 71 69 65 63 65 65 68 69
50 50 49 49 50 50 50 51 51 51 54 57 59 60 63 62 63 63 61 61 64 65 67 65 67 66 71 67 70 69 67 70 73 73 65 60 58 62 61 62 64 66 70 69
50 51 51 52 52 51 51 50 52 57 59 61 59 60 61 61 61 63 64 65 66 69 66 69 72 71 72 72 75 75 78 79 75 62 59 61 64 65 66 68 71 72 71 66
53 53 53 53 52 53 54 55 57 61 64 65 64 64 64 63 63 63 64 66 69 71 70 73 76 76 76 78 78 78 72 67 65 65 65 68 72 74 74 74 72 70 63 57
55 55 54 55 56 56 56 56 59 62 65 64 63 63 65 65 66 68 70 71 74 76 77 77 78 76 70 73 72 66 67 67 67 69 71 75 78 76 73 70 66 59 53 50
57 57 57 57 57 58 59 58 59 59 60 61 62 63 64 65 68 70 70 72 73 73 73 73 73 54 62 59 60 60 61 68 71 75 77 75 72 69 64 59 54 50 45 45
60 59 58 58 59 62 61 60 60 61 63 64 65 66 66 66 66 66 67 68 67 64 63 61 56 60 61 66 70 71 70 70 70 69 68 64 62 57 52 49 46 42 42 43
56 56 56 58 60 60 59 59 59 59 60 61 62 63 63 62 61 60 60 63 68 70 65 58 56 60 61 64 64 64 65 65 63 58 55 53 53 48 45 43 40 41 42 42
50 53 55 56 54 52 52 53 55 56 56 56 56 56 57 59 60 62 65 66 65 58 58 56 60 65 65 63 59 57 59 56 54 53 51 47 44 39 36 37 38 39 40 41
48 47 46 44 47 48 50 52 54 54 54 54 55 57 58 58 61 61 59 58 57 58 60 59 60 59 57 54 51 52 52 50 48 45 43 41 33 33 36 35 37 39 38 34

GFSNW_500_spd_006.txt.gz
Wind_Speed
20 17 14 14 13 12 12 12 10 10 12 13 12 10 12 11 11 12 12 12 13 16 16 17 17 18 18 19 18 19 18 21 23 26 30 34 33 32 34 42 45 46 47 48
22 20 17 15 14 13 14 13 12 11 12 15 15 14 14 15 14 15 15 16 17 17 18 19 18 20 18 21 22 24 26 30 32 30 39 41 38 34 35 41 48 51 53 52
26 23 20 18 17 17 16 15 14 14 14 14 15 16 17 17 18 19 20 21 22 22 22 21 23 23 24 25 29 31 34 31 35 35 35 43 44 39 35 38 47 51 53 56
29 27 25 22 21 20 19 17 16 16 17 16 17 17 19 20 21 22 23 24 25 24 24 25 27 27 29 29 32 33 36 33 37 35 38 44 47 45 41 40 41 50 53 54
31 29 28 26 24 23 21 19 19 18 18 20 20 20 21 23 22 25 27 29 31 30 32 32 31 31 33 32 35 39 43 41 43 42 38 47 52 46 49 52 52 53 55 57
35 34 33 31 28 27 25 24 22 20 20 21 23 24 25 25 26 27 29 30 31 32 31 33 35 35 34 35 37 38 42 44 48 53 49 51 51 56 51 56 57 55 57 58
40 38 37 35 34 32 30 29 27 26 24 24 26 28 30 30 30 31 34 32 34 34 35 34 34 34 36 37 39 41 45 46 51 57 56 59 60 50 50 54 55 56 61 62
43 41 40 39 38 35 33 35 32 32 29 30 35 35 35 32 34 35 36 38 38 37 37 39 38 35 37 38 43 41 42 49 53 55 55 59 58 50 53 58 59 58 62 58
45 44 43 43 41 40 38 38 38 36 37 34 42 40 39 40 43 40 40 39 40 42 42 43 46 47 46 48 47 46 50 51 52 51 53 55 52 49 56 57 59 53 59 61
49 49 47 47 46 45 43 42 43 42 44 42 44 44 47 42 43 42 40 44 44 45 47 47 48 51 52 54 54 55 52 52 50 49 52 56 52 56 58 48 43 56 65 59
53 53 51 51 52 50 49 46 48 53 54 48 53 49 46 42 44 41 41 47 46 48 51 54 55 53 53 53 52 50 52 52 51 55 57 57 56 56 52 55 60 65 64 67
60 56 54 53 52 56 57 54 54 57 55 55 51 48 40 41 42 42 46 51 51 54 52 51 54 56 56 54 54 48 53 53 53 53 57 50 51 56 59 56 58 63 68 63
60 61 58 57 56 59 57 58 55 56 56 54 48 43 43 43 41 43 43 42 44 48 48 48 54 57 56 58 59 59 62 54 56 58 53 57 59 58 58 58 63 65 64 70
55 54 54 57 61 63 61 54 52 53 50 47 44 43 41 40 42 43 46 49 44 41 44 48 55 57 58 59 60 63 61 57 55 65 64 64 61 61 61 62 62 70 70 76
51 55 55 52 50 48 49 50 49 49 48 49 49 48 42 40 43 46 47 47 50 51 53 53 55 57 59 60 63 65 59 60 63 69 67 70 68 66 68 68 68 73 79 81
54 52 49 47 46 44 42 44 45 43 41 45 52 52 51 45 46 48 49 50 50 51 50 53 56 54 58 61 66 64 56 59 63 67 67 66 67 66 67 70 74 79 78 75
59 56 54 51 48 45 46 51 50 45 44 45 48 55 55 55 52 54 53 51 52 54 53 56 58 59 61 67 70 56 59 61 63 64 69 71 71 75 74 73 69 63 68 72
62 60 56 54 53 52 52 52 56 57 49 53 55 57 62 62 59 57 59 58 58 59 59 63 63 60 65 70 60 61 60 64 67 71 73 74 74 71 68 64 56 59 64 73
59 54 50 48 51 52 50 50 50 51 53 57 56 54 57 58 58 59 60 63 65 64 64 64 66 69 71 65 65 68 69 71 73 75 74 72 73 71 66 64 62 65 70 79
65 60 56 55 51 50 48 50 53 54 57 57 57 56 55 57 57 59 62 65 68 71 68 68 71 72 72 70 71 72 72 74 76 75 72 66 66 63 65 65 66 71 81 82
48 49 50 49 48 50 51 52 54 56 58 59 57 58 59 57 60 64 69 72 72 74 72 75 76 74 71 73 72 74 74 75 73 74 70 66 64 67 72 76 80 80 76 71
47 50 48 48 49 50 51 53 55 56 58 59 58 58 61 63 66 68 70 73 77 75 72 73 74 71 70 70 73 71 71 70 71 68 65 65 69 75 77 76 74 69 63 59
48 49 49 50 52 55 56 56 57 56 55 56 57 59 60 62 64 66 67 68 69 68 70 71 72 64 65 66 66 65 65 71 70 70 71 71 71 71 70 65 61 57 54 51
54 54 54 54 55 57 58 59 57 57 58 59 61 61 62 62 63 65 66 66 69 71 72 69 59 58 61 64 67 67 68 67 66 67 69 68 64 60 58 57 53 50 48 39
55 55 55 57 57 57 55 55 56 58 59 60 61 63 64 63 62 61 64 66 68 68 62 55 51 54 60 63 64 64 65 64 62 61 61 59 56 54 53 50 47 41 35 39
50 53 56 57 56 53 52 53 55 57 58 58 59 59 60 60 60 62 63 62 58 54 53 55 61 62 63 66 66 64 60 58 57 56 55 52 49 47 48 44 38 33 38 36
51 51 49 48 49 50 50 51 53 54 55 56 57 57 56 58 60 58 56 57 57 58 60 61 62 62 63 61 60 58 58 58 55 54 51 48 45 44 39 35 31 35 33 32

GFSNW_500_spd_009.txt.gz
Wind_Speed
22 20 18 14 12 11 11 12 12 11 10 10 10 11 9 9 9 9 9 9 10 11 11 14 16 17 16 15 15 15 18 19 19 26 30 33 33 31 31 40 42 42 49 50
25 23 21 17 14 13 12 13 14 12 11 11 12 12 14 12 11 12 12 14 14 15 16 18 19 19 18 22 20 23 24 26 27 24 33 35 32 28 30 37 42 43 49 52
27 26 23 19 16 14 13 13 14 14 13 12 11 12 13 15 16 16 16 17 18 19 21 21 23 23 22 23 26 27 28 27 30 30 32 38 41 35 32 36 43 49 48 51
29 27 25 23 21 18 15 14 15 14 14 13 11 13 13 14 16 19 21 22 22 22 24 26 27 28 27 29 31 32 31 29 33 31 36 40 42 40 39 43 45 47 46 44
31 30 29 27 24 22 18 17 16 15 15 14 13 16 15 15 13 18 18 21 24 23 26 26 27 27 28 29 29 33 36 36 38 35 35 40 45 40 44 44 43 41 43 46
35 33 32 30 29 26 23 21 19 20 19 19 18 19 19 19 22 23 24 26 25 27 28 28 30 30 30 31 33 33 35 42 46 46 44 48 44 37 39 42 42 43 47 53
38 36 35 34 33 30 28 28 24 24 23 23 24 24 22 22 28 29 32 34 30 34 34 31 31 32 32 35 36 38 39 42 46 50 49 51 43 39 41 45 46 47 47 49
40 39 38 37 37 35 33 33 30 28 27 28 29 29 28 27 32 37 35 38 38 42 39 37 36 35 37 37 38 37 42 44 47 46 48 50 43 49 53 54 51 48 48 50
41 41 40 39 38 38 37 36 34 33 32 31 34 35 35 33 38 40 40 46 43 42 42 42 41 38 40 42 43 42 42 42 44 44 49 52 47 51 52 50 52 54 57 56
42 41 41 41 40 40 39 39 40 38 37 37 37 39 38 42 48 44 46 46 43 42 41 39 39 42 43 44 40 42 41 44 41 43 47 52 50 52 51 54 59 57 59 61
44 44 44 44 44 45 46 45 44 45 43 42 43 41 44 46 49 50 48 47 38 37 38 41 40 42 42 45 45 43 45 47 49 52 55 55 51 54 53 55 57 59 62 62
50 48 47 48 53 48 47 49 49 50 49 45 48 49 50 54 52 51 48 45 42 42 41 38 43 46 50 48 51 47 51 48 51 51 57 51 53 59 58 60 61 63 64 62
55 53 59 55 59 55 55 54 53 54 54 54 54 49 54 54 52 49 46 43 43 44 41 44 48 51 50 53 56 58 59 54 57 59 56 55 61 60 60 62 63 62 64 63
57 54 54 54 57 59 59 54 57 55 57 59 57 56 51 48 44 41 41 40 38 39 40 43 49 51 55 58 58 61 60 57 55 62 61 65 62 65 66 64 65 69 69 73
46 47 48 50 53 55 56 54 53 52 53 55 49 40 40 42 44 42 39 39 39 41 45 46 48 53 53 56 61 63 54 54 58 63 63 66 65 64 66 69 72 74 74 75
45 45 43 40 44 47 47 50 48 45 42 44 44 42 38 36 39 41 41 41 42 41 44 48 52 53 58 62 64 60 55 58 60 65 64 66 67 68 70 73 72 73 74 71
50 46 42 45 44 44 45 48 44 40 38 40 46 47 46 42 43 44 45 46 50 51 53 56 58 57 60 64 67 55 57 61 63 63 67 69 70 68 69 69 67 69 70 70
56 57 53 51 52 52 52 52 52 49 48 48 50 52 55 54 55 54 51 51 51 53 54 58 55 55 59 64 54 56 62 64 66 68 69 69 68 69 71 69 69 65 68 73
58 62 59 59 59 59 59 57 57 57 54 51 55 57 62 64 62 60 58 58 57 59 60 58 59 59 62 60 61 64 66 71 70 70 68 70 71 71 64 69 68 69 70 72
62 64 65 65 69 64 59 54 53 53 49 54 60 59 61 60 59 59 58 60 62 65 63 64 64 64 62 63 67 71 70 69 68 69 72 68 72 69 69 69 70 71 75 78
63 62 71 70 64 62 60 57 59 59 62 63 62 56 56 57 56 57 57 61 63 65 65 67 69 67 67 69 68 69 71 71 69 67 67 64 63 67 69 71 73 78 75 73
55 54 55 59 60 60 60 61 61 60 59 56 51 49 50 51 52 54 57 59 62 62 64 67 67 67 66 67 70 72 70 70 67 66 66 69 68 69 72 72 72 69 65 63
46 45 45 46 49 53 57 58 57 51 47 48 50 51 52 54 56 58 59 61 61 63 64 66 65 64 65 67 68 69 68 65 63 66 69 69 70 69 69 67 64 61 59 58
43 43 43 44 45 48 47 47 47 48 49 51 52 53 54 55 58 59 60 63 64 66 66 63 60 63 65 66 66 64 64 65 68 68 67 67 66 64 63 61 61 57 55 53
46 47 48 48 48 48 50 51 51 52 53 54 54 55 56 56 57 57 60 62 64 63 56 57 61 63 63 61 62 64 66 65 65 67 68 65 63 62 59 58 55 53 49 45
50 50 49 50 50 50 50 50 51 52 52 53 55 56 56 56 58 59 60 61 56 53 57 59 59 60 61 63 63 63 65 66 66 65 63 62 61 61 58 52 50 46 40 35
48 48 46 46 46 47 48 49 51 51 53 53 53 53 53 56 58 57 53 52 54 57 58 59 59 60 60 61 64 65 65 64 63 64 64 64 63 62 58 50 44 39 31 30

GFSNW_500_spd_012.txt.gz
Wind_Speed
24 21 18 15 12 10 10 12 12 13 12 12 12 10 10 8 9 9 9 10 9 10 12 12 14 13 14 15 15 16 16 16 20 23 28 30 27 25 30 38 40 39 44 46
26 22 20 18 14 11 11 12 13 14 14 13 12 12 12 12 12 11 12 12 13 14 15 17 17 18 18 19 21 22 22 21 21 27 30 33 29 25 33 40 43 45 47 47
27 25 24 21 18 14 13 13 13 14 14 13 12 12 11 12 12 14 14 14 15 17 17 18 20 21 21 22 23 24 25 26 26 26 31 36 28 25 31 39 42 47 42 49
28 27 26 24 21 18 15 14 13 13 13 12 12 11 11 9 9 10 11 11 13 15 18 19 21 23 25 26 26 27 27 26 26 26 30 34 30 34 36 38 36 40 37 39
33 30 29 28 25 23 20 16 14 14 12 12 14 14 12 10 11 12 13 15 18 19 20 21 24 26 27 27 28 30 31 31 34 27 36 40 35 35 37 37 37 40 42 44
35 33 32 32 30 27 24 21 18 17 16 15 17 16 16 15 17 16 16 19 22 27 29 28 28 31 31 31 31 30 33 37 40 39 38 40 29 33 33 36 36 42 43 41
35 35 35 34 32 29 27 25 22 21 21 19 20 21 21 21 22 24 26 25 28 31 30 33 34 33 33 35 34 33 36 40 41 43 41 43 27 37 38 44 43 42 44 47
38 37 37 36 34 32 31 30 27 26 25 24 25 26 26 27 27 29 35 35 35 39 39 40 35 33 35 36 33 32 35 37 37 38 43 47 37 45 48 53 51 51 48 53
39 38 37 37 36 35 34 33 32 30 28 28 30 30 29 30 32 34 37 40 41 44 43 43 41 32 29 30 30 31 31 34 36 39 46 51 44 49 52 55 55 54 56 57
40 39 39 37 37 37 36 35 34 34 32 31 33 34 34 35 36 37 39 42 46 48 46 45 41 37 34 35 32 32 34 35 34 40 45 49 47 50 52 56 60 61 61 60
43 42 41 39 38 37 36 37 37 36 36 37 37 38 38 41 43 42 45 50 48 51 51 47 42 40 39 39 38 37 38 41 42 48 53 52 53 54 54 57 60 60 59 59
46 44 43 41 40 41 41 40 43 42 43 43 42 41 43 46 45 47 52 50 50 49 43 40 41 40 40 40 44 40 43 42 48 49 54 49 50 56 58 58 62 61 60 62
48 48 47 44 43 44 46 49 51 49 50 52 49 46 47 48 50 52 54 53 50 43 40 39 40 42 42 43 46 49 50 49 50 56 51 55 59 57 59 60 62 61 65 67
49 49 49 50 50 53 49 50 54 58 58 58 55 50 50 51 51 54 55 48 40 38 38 40 41 43 46 48 52 55 55 51 57 61 57 63 61 62 63 64 67 70 70 70
59 59 55 55 57 60 62 58 55 51 52 58 57 49 46 46 49 50 46 42 41 41 42 40 42 45 47 49 55 59 53 58 60 61 56 62 63 66 66 68 71 71 72 72
49 52 58 62 60 52 47 49 49 47 46 49 49 48 40 38 37 41 42 42 41 40 42 44 45 45 51 58 58 57 51 55 59 60 61 62 67 66 67 71 68 68 71 76
45 41 41 41 41 41 44 46 42 38 42 43 44 42 39 36 37 39 42 43 43 46 48 49 52 53 55 59 61 51 57 59 61 62 66 66 67 69 68 65 69 72 73 72
50 48 46 46 46 43 41 44 44 43 41 43 46 47 48 46 44 45 46 47 50 53 53 54 54 58 60 63 54 59 60 61 61 63 65 66 66 65 65 69 72 73 76 73
53 51 51 50 49 47 47 50 52 51 49 51 52 54 55 56 57 59 56 54 55 57 58 56 59 61 62 56 58 59 58 60 61 63 64 64 65 66 68 68 67 71 70 69
60 57 54 54 52 51 50 52 57 58 59 57 57 60 62 60 62 65 65 65 65 66 67 67 66 64 58 60 61 62 61 61 62 63 64 66 59 62 63 63 71 68 66 70
64 64 60 59 60 60 58 57 59 61 61 61 62 65 66 62 60 61 64 67 69 71 69 67 66 63 63 63 64 63 64 65 65 65 67 67 65 66 67 66 65 69 72 74
63 63 63 63 62 59 57 58 60 62 67 66 64 60 57 60 61 61 63 64 64 63 63 64 66 66 63 63 65 66 67 69 70 69 66 67 68 69 69 71 72 72 72 69
54 57 59 59 58 59 61 60 62 61 58 58 57 57 57 55 53 54 55 57 60 61 61 61 62 60 61 64 65 66 67 64 64 65 66 62 62 66 69 72 73 72 67 62
46 47 48 48 50 53 53 50 49 48 48 48 48 49 49 50 51 53 54 58 60 61 61 59 59 60 62 64 63 63 63 63 64 63 62 63 66 70 71 71 70 67 64 60
41 41 43 43 44 44 44 44 44 45 46 47 49 51 53 53 54 54 57 58 62 60 55 56 59 62 62 63 62 61 61 61 63 65 66 68 70 71 70 66 66 66 65 61
40 41 41 42 43 44 45 46 47 48 49 50 50 51 52 53 55 56 57 58 54 50 54 58 59 60 61 61 59 59 62 64 65 67 68 70 68 67 67 66 67 64 60 51
44 42 43 44 44 45 46 47 48 49 49 50 51 52 53 55 57 56 49 45 47 52 56 57 58 58 58 59 61 63 64 64 65 65 63 65 66 67 67 61 53 48 39 30

GFSNW_500_spd_015.txt.gz
Wind_Speed
29 27 23 20 16 14 14 11 12 13 14 14 13 13 12 12 8 9 9 8 8 9 10 11 12 14 15 16 16 16 16 17 20 22 22 21 25 28 32 36 38 38 42 39
29 26 24 20 17 14 12 10 10 12 14 14 14 14 13 12 11 11 10 9 9 11 13 14 15 17 19 21 22 22 22 22 24 25 26 22 24 29 34 39 40 41 43 37
30 28 25 23 20 17 14 12 10 11 13 13 13 13 13 12 12 12 11 11 11 12 13 14 16 17 19 21 22 23 23 23 26 28 29 25 22 26 33 39 41 44 36 41
31 29 27 25 22 20 17 13 11 11 11 12 12 12 12 12 11 11 9 9 9 11 13 16 18 21 21 22 24 26 26 25 26 27 30 30 26 30 32 36 36 39 36 36
32 31 29 27 25 24 21 17 13 11 11 12 12 12 12 12 12 11 10 11 12 14 16 20 25 27 29 31 32 32 31 31 31 27 35 37 29 31 35 34 32 38 40 42
35 34 32 30 28 28 25 22 19 16 14 15 14 14 14 15 15 15 15 17 17 19 25 25 25 30 33 34 33 34 33 36 38 32 33 33 26 30 33 34 37 42 44 45
37 36 34 32 31 29 29 27 23 21 19 19 18 18 17 18 18 19 20 21 25 28 30 33 36 36 38 37 39 35 34 36 39 38 37 33 20 33 37 40 41 43 45 44
38 38 37 35 33 32 31 30 28 27 25 24 23 22 21 22 22 22 23 25 28 32 34 38 39 40 42 40 36 32 31 34 38 37 39 41 26 38 41 45 48 48 50 52
38 37 36 35 34 33 33 32 31 30 29 28 28 27 27 26 27 28 29 29 32 36 38 43 44 44 42 45 39 30 34 35 36 35 41 43 36 46 51 55 56 56 57 58
40 39 38 37 35 33 33 32 33 32 32 31 31 31 31 31 32 33 34 36 39 41 43 46 46 48 47 45 38 33 32 37 36 37 42 45 43 50 51 54 59 60 61 61
40 40 39 38 37 36 35 35 36 35 35 34 33 34 34 35 37 39 40 43 41 46 46 50 50 52 51 43 38 33 34 37 36 38 44 44 47 52 56 60 61 60 59 61
42 41 41 41 41 39 39 39 38 38 38 37 37 36 37 42 43 44 46 48 50 52 50 50 52 53 46 39 38 31 36 33 39 42 46 43 49 57 61 63 64 62 61 66
42 42 42 43 43 42 41 41 41 41 41 40 39 38 46 48 50 53 55 57 57 54 52 53 53 46 42 40 40 40 41 38 42 47 46 50 56 57 59 64 63 63 65 69
44 44 44 44 44 44 44 44 45 46 45 44 42 45 48 52 57 59 61 60 60 52 50 51 46 43 41 39 43 46 44 44 47 54 56 60 58 58 65 65 64 66 72 75
45 44 45 46 48 48 46 47 48 48 49 52 50 53 57 57 54 52 51 49 48 44 41 39 41 43 44 45 49 52 47 52 57 62 63 66 64 65 70 70 68 72 75 75
52 50 49 48 48 50 49 51 54 54 55 56 59 60 51 42 41 43 44 42 42 38 37 39 41 45 49 53 54 54 52 56 61 65 67 68 68 65 69 67 75 74 72 73
50 54 56 57 57 56 59 60 59 59 61 58 52 52 44 33 33 37 38 39 41 43 46 47 49 50 54 59 60 54 60 64 67 69 70 69 68 68 64 74 73 72 73 74
49 53 52 55 55 51 51 52 49 44 45 42 44 47 44 45 42 40 40 41 44 48 51 53 54 59 62 65 57 61 65 69 69 69 69 68 69 70 70 72 73 72 72 71
50 49 48 50 51 52 50 48 46 48 46 44 46 49 50 53 52 51 48 48 49 53 55 57 60 62 64 63 64 65 67 67 67 67 68 70 70 70 71 70 71 68 64 63
59 54 53 53 54 53 52 51 52 51 52 53 54 53 54 52 53 55 59 60 61 61 61 63 64 63 64 64 65 64 63 64 68 70 68 68 70 71 70 67 62 66 69 66
64 59 56 54 54 55 57 56 56 55 57 56 55 56 56 57 59 62 64 66 68 70 70 69 70 70 67 64 64 66 68 67 67 67 66 63 60 68 69 67 66 68 66 65
64 65 61 59 59 60 61 61 62 61 61 59 57 59 62 62 63 66 67 68 70 70 70 70 69 65 65 66 66 67 68 68 68 71 71 71 71 72 72 72 69 67 68 70
56 56 56 57 60 62 62 62 62 60 58 56 54 54 57 59 62 64 65 66 66 66 65 65 61 60 61 64 66 68 70 69 70 71 71 70 69 68 67 68 69 73 73 74
46 49 51 54 55 59 58 56 57 58 57 57 57 58 58 59 59 58 58 59 61 62 61 59 61 64 65 66 68 70 70 68 67 66 66 66 66 67 68 69 71 73 72 71
42 44 46 47 48 49 49 49 49 49 48 48 50 51 52 52 53 53 56 58 60 60 56 59 63 66 68 70 69 65 62 62 64 63 64 65 66 68 69 68 68 70 71 71
42 42 42 44 45 45 46 47 48 49 49 49 49 50 52 53 54 54 54 57 55 54 60 64 67 69 67 62 58 58 60 62 62 64 64 65 67 67 66 66 67 66 62 56
41 41 41 41 42 43 45 47 48 49 49 49 50 49 51 52 54 54 52 51 55 61 66 67 63 59 56 56 58 60 62 61 61 62 62 62 64 66 66 64 55 48 43 39

GFSNW_500_spd_018.txt.gz
Wind_Speed
34 34 32 31 28 25 22 20 19 19 18 17 15 14 12 10 10 8 8 8 8 7 8 8 10 12 14 15 16 19 20 21 23 22 23 24 25 27 30 33 35 33 35 32
35 33 31 28 26 23 20 17 14 15 16 16 15 13 11 10 10 9 8 9 9 9 9 10 12 13 16 18 19 20 20 21 22 22 24 25 26 27 30 34 36 35 38 34
34 32 30 28 24 21 19 16 14 13 13 14 13 12 12 12 10 11 11 12 12 10 9 9 10 13 16 19 22 23 24 25 27 28 26 26 26 29 32 37 40 42 35 39
35 33 30 27 25 21 18 16 14 13 12 12 12 12 12 12 11 12 11 11 10 10 9 10 12 16 19 21 24 27 28 29 32 33 32 30 28 30 34 40 39 41 38 38
34 33 30 29 27 24 21 17 15 13 12 11 11 11 12 12 12 12 12 11 12 13 14 14 19 23 27 31 33 35 35 34 33 32 35 35 28 31 35 34 34 37 40 42
35 34 33 31 30 27 24 21 19 16 14 13 12 13 13 13 13 12 13 14 16 18 20 22 24 29 32 34 37 40 41 40 38 30 35 32 25 28 34 35 34 37 41 43
35 34 34 34 31 28 27 26 24 20 19 16 15 15 15 15 16 16 17 18 20 22 24 26 28 32 34 37 39 40 42 44 45 40 34 32 21 30 37 38 37 39 45 45
37 37 35 34 32 30 29 29 26 25 24 23 21 20 20 20 20 21 22 23 25 27 29 31 32 36 39 41 41 42 46 46 44 43 42 42 23 30 37 42 41 45 47 51
38 37 36 35 34 33 31 30 29 29 28 26 25 24 24 24 24 25 26 28 29 30 32 35 39 40 42 46 44 44 47 47 43 41 43 44 32 40 43 47 50 53 55 56
39 38 37 35 35 35 34 33 31 30 30 29 29 28 29 29 29 29 30 31 31 35 38 41 45 47 50 50 47 46 48 42 37 38 40 40 36 42 47 50 55 56 60 63
41 40 38 36 35 35 35 35 34 33 32 32 32 33 32 32 32 32 34 33 35 42 45 49 50 55 57 52 49 45 40 38 35 37 37 38 43 47 49 53 56 58 63 66
43 43 41 39 36 35 35 35 35 34 34 33 34 35 35 34 35 37 36 38 43 49 50 54 59 60 59 55 50 39 39 35 41 38 41 41 48 52 55 59 62 65 65 72
43 43 43 42 39 37 36 36 36 37 37 37 37 36 37 37 39 39 41 42 50 52 58 58 55 52 50 45 41 37 34 34 39 45 42 48 53 56 60 61 65 68 71 67
44 43 42 42 41 39 39 39 39 39 39 40 40 40 40 42 44 44 45 51 54 57 56 51 47 42 43 37 36 38 37 42 45 50 53 58 57 63 65 67 69 72 65 73
43 43 43 42 41 42 41 41 41 41 42 43 42 43 45 46 46 46 50 55 59 56 48 44 40 36 34 38 43 43 42 46 52 56 59 62 63 65 67 72 76 72 70 74
45 43 44 44 43 43 43 43 43 43 44 49 48 46 45 48 50 52 52 58 53 45 40 38 36 37 41 45 47 46 49 52 57 60 62 65 66 70 74 76 76 75 73 74
51 46 45 45 44 43 43 44 43 46 48 50 53 52 51 53 56 58 54 52 47 43 43 44 43 42 47 49 52 52 55 60 64 65 66 69 72 75 77 75 72 74 77 76
50 50 47 48 48 49 49 51 52 50 52 55 60 62 56 54 46 41 42 45 46 48 50 50 50 51 53 56 56 57 60 64 67 68 69 72 74 73 72 74 77 75 75 76
44 52 53 52 52 45 44 46 51 53 53 54 54 52 51 50 48 47 47 49 49 50 51 52 54 58 60 62 61 63 66 69 70 72 72 71 71 72 73 75 75 75 75 74
48 49 54 49 48 46 48 49 49 50 50 53 52 53 53 51 51 53 54 56 55 58 58 58 58 60 62 63 65 67 69 69 69 70 71 71 70 71 74 73 73 74 73 73
54 52 50 50 52 52 53 52 51 51 53 55 55 53 52 52 54 56 59 61 62 62 62 63 65 66 66 67 69 69 67 67 68 68 68 70 71 70 69 72 74 73 73 72
51 55 56 52 55 57 60 62 60 57 56 54 52 53 54 55 56 58 60 62 64 65 67 68 70 68 70 70 69 69 69 69 70 71 70 71 73 73 75 74 74 74 74 74
60 56 56 58 63 64 62 58 58 58 54 54 56 55 55 56 58 60 61 62 64 66 68 69 65 64 66 67 67 68 70 70 70 70 72 74 74 71 70 72 72 73 72 71
65 63 61 65 67 68 65 63 60 59 58 57 57 58 58 57 58 59 61 62 65 65 62 60 62 65 66 66 67 68 68 69 71 72 72 68 66 68 68 67 68 69 69 69
49 51 55 58 57 55 53 51 51 51 51 52 52 54 53 54 56 57 58 59 59 58 58 60 63 65 66 67 66 65 69 70 69 65 64 64 65 66 65 64 65 67 68 66
41 41 41 42 42 42 42 43 45 46 47 47 48 49 51 52 53 54 55 56 55 57 61 64 66 67 64 63 65 67 65 61 60 61 61 62 63 62 62 63 65 64 59 51
39 38 40 41 42 42 43 44 44 44 45 45 47 48 50 51 53 54 54 54 58 61 65 67 64 61 62 63 63 59 58 58 59 60 60 59 59 60 62 62 57 52 42 41

GFSNW_500_spd_024.txt.gz
Wind_Speed
35 38 42 42 40 38 35 33 30 28 25 23 22 20 19 14 12 11 10 7 6 6 5 3 2 3 4 4 5 7 10 14 17 20 23 24 25 26 28 29 32 33 33 28
33 38 40 42 41 39 37 33 31 28 26 23 21 17 14 13 13 13 11 9 7 6 5 5 5 5 4 3 5 10 13 18 23 24 24 26 27 29 29 32 35 35 38 33
30 36 38 40 41 39 36 34 31 28 24 20 19 18 14 13 14 13 12 11 9 8 7 7 7 6 6 7 10 13 17 24 24 28 30 31 31 31 32 34 34 37 32 39
30 33 38 39 39 38 36 34 30 26 21 19 19 18 17 17 16 15 13 12 10 9 8 8 9 9 10 13 16 18 21 26 27 32 35 33 32 34 37 37 35 38 33 33
30 31 33 37 37 37 35 32 29 26 22 20 19 19 19 19 17 15 14 12 10 10 10 10 11 12 13 17 20 23 26 30 33 34 38 37 33 35 36 37 36 38 38 35
30 31 32 33 34 35 33 31 29 26 23 20 19 19 19 18 16 15 13 12 11 11 12 13 15 15 16 19 22 26 30 36 41 40 44 42 38 36 34 33 33 35 35 36
31 31 32 33 33 33 33 32 29 28 24 22 20 19 18 16 15 15 14 13 12 13 14 16 18 19 19 22 24 28 33 40 46 50 51 47 38 38 31 29 26 31 32 34
32 32 33 33 33 34 34 32 30 27 24 22 20 19 18 18 17 16 15 15 16 17 18 20 21 22 22 25 26 30 36 44 51 54 54 48 32 34 33 31 22 28 31 35
33 34 34 34 34 35 35 33 31 29 26 24 22 21 20 19 20 19 19 19 20 22 22 23 24 24 25 29 30 33 39 47 54 51 49 46 39 31 29 28 32 32 33 39
34 34 33 33 34 35 34 33 31 29 28 27 25 24 24 24 24 24 24 24 25 26 27 27 28 28 30 32 35 38 42 52 49 47 44 39 34 33 33 35 40 43 48 52
36 35 35 35 35 35 34 33 31 30 30 29 29 28 28 29 28 28 28 29 29 31 30 30 32 32 32 35 39 41 46 52 44 43 37 37 35 37 40 42 45 49 52 56
37 36 36 36 36 35 34 33 32 32 32 31 31 30 30 30 31 31 31 31 32 32 32 33 34 35 37 40 43 44 45 43 40 38 32 37 41 45 46 48 51 55 58 62
40 38 36 36 35 35 34 33 33 34 33 34 33 32 32 32 32 32 33 33 33 33 34 36 38 39 42 41 46 49 45 38 37 39 35 42 45 48 51 53 56 59 61 66
41 41 40 38 36 36 35 34 34 34 34 35 34 34 34 34 33 34 34 33 34 35 37 39 40 41 45 46 50 52 35 36 40 41 45 48 48 51 54 57 60 65 70 73
42 42 42 42 41 39 39 37 36 35 35 35 34 35 35 35 35 35 35 36 36 37 40 42 43 42 47 51 51 44 35 37 43 47 49 52 56 59 60 63 66 69 73 75
44 42 42 43 44 43 41 39 39 38 38 39 37 37 37 38 37 37 38 37 38 39 41 43 44 45 51 55 53 41 41 45 47 50 55 57 60 63 64 67 70 73 74 75
45 44 43 43 42 42 44 44 41 40 40 39 40 41 40 39 39 39 39 39 39 42 44 46 49 51 52 51 45 44 47 50 52 56 58 60 62 65 69 72 73 72 72 72
44 42 44 45 45 45 44 43 40 40 42 42 45 45 42 40 41 39 38 40 43 46 48 48 47 47 45 46 44 48 50 54 56 58 60 63 66 69 69 69 68 70 71 72
53 51 49 47 47 45 43 43 43 42 42 44 45 44 45 44 40 38 41 43 44 44 45 43 46 48 48 47 50 52 54 57 60 63 65 67 67 66 66 68 69 69 70 73
52 59 57 53 46 43 43 45 46 43 43 44 45 46 48 46 41 40 42 44 43 43 42 46 50 52 50 51 55 57 59 61 64 64 62 64 64 65 66 66 68 71 74 75
49 49 47 45 44 47 48 46 44 47 47 45 46 46 48 47 49 49 49 48 46 47 49 51 54 54 53 55 58 61 62 62 60 60 62 63 64 65 67 69 72 74 75 75
53 50 47 47 47 45 46 47 52 48 46 46 42 39 45 48 50 50 51 51 53 55 56 59 59 59 59 61 64 64 63 62 62 64 64 64 65 67 70 72 74 75 73 72
46 51 51 52 54 54 57 59 58 53 50 47 46 48 46 47 49 49 51 55 57 59 62 63 62 62 63 64 63 64 61 61 64 63 64 65 67 69 71 71 71 71 69 68
48 47 54 58 60 60 58 56 53 52 50 51 51 51 51 52 53 55 56 59 62 65 66 64 64 66 64 63 61 59 62 63 62 63 65 67 68 70 69 67 67 67 64 61
50 50 50 56 59 59 58 57 56 55 57 55 54 57 58 58 59 60 61 66 68 67 64 65 64 62 60 58 58 60 61 62 63 65 66 67 68 66 63 63 62 61 58 58
49 50 53 57 56 56 56 59 61 60 60 61 61 62 64 65 65 64 63 64 62 61 60 60 57 55 55 57 60 62 63 63 63 65 66 64 62 61 59 57 57 55 54 53
47 48 49 49 53 54 56 59 61 62 61 59 59 59 59 60 60 58 55 55 56 56 54 53 53 54 58 60 60 60 61 62 62 59 58 58 58 57 55 52 51 50 48 47

GFSNW_500_spd_027.txt.gz
Wind_Speed
36 44 46 44 43 41 38 35 33 30 28 25 22 21 19 18 17 15 11 8 6 6 7 5 4 5 4 3 1 1 4 7 13 15 16 18 19 22 23 25 27 32 31 29
35 41 45 46 44 41 39 37 33 31 28 25 23 22 21 19 16 14 12 10 8 6 6 6 6 5 4 4 3 4 6 11 16 20 20 24 26 29 29 29 29 27 32 28
34 37 42 46 45 43 40 37 35 32 28 25 24 23 21 17 16 14 13 12 9 9 8 9 8 7 6 7 7 9 12 15 19 22 26 30 33 35 39 38 36 35 27 32
32 37 39 42 44 43 40 38 35 31 28 27 24 22 20 19 16 15 15 13 12 11 11 11 10 9 9 9 11 13 14 18 21 25 29 33 38 42 43 41 38 38 29 28
30 34 38 40 42 42 41 38 35 32 28 26 24 21 20 20 18 18 17 16 15 14 14 13 12 11 10 11 13 17 19 22 26 28 33 38 43 44 42 38 36 33 33 30
31 32 35 37 40 40 40 38 35 32 29 26 25 22 21 21 20 20 19 17 16 15 14 13 13 13 13 14 17 20 24 28 30 32 38 42 46 41 38 34 35 36 32 30
30 31 33 36 38 38 37 36 35 32 29 27 25 24 23 22 22 21 19 19 16 15 14 15 15 16 16 17 20 24 28 31 36 39 43 48 45 41 37 32 28 28 31 32
30 30 31 33 35 37 37 36 34 33 31 30 28 25 23 22 22 22 20 18 18 18 17 17 18 19 20 21 22 26 31 35 40 42 46 50 42 37 34 30 23 28 30 33
33 31 31 32 33 35 36 35 34 34 34 33 29 27 26 23 23 22 21 20 20 20 20 20 21 23 24 27 26 29 33 37 41 43 47 50 39 40 30 30 31 31 36 40
34 32 32 32 33 34 34 35 36 36 34 34 32 29 27 25 25 23 23 23 23 23 24 25 26 27 29 30 31 32 35 39 40 44 49 47 40 34 34 33 38 42 45 48
36 35 34 33 34 34 35 35 36 36 36 35 33 32 30 29 28 27 27 27 27 29 29 30 30 31 32 33 34 35 37 41 42 47 48 45 40 37 39 41 43 46 49 53
37 36 35 35 35 35 35 36 36 36 36 36 35 34 33 32 31 31 31 30 31 32 33 34 34 34 35 35 37 38 36 40 44 47 40 39 41 44 44 46 49 52 55 58
37 37 36 35 35 36 36 36 37 37 37 37 37 36 35 34 33 33 33 34 34 36 36 36 37 37 36 39 40 39 36 42 48 48 35 39 41 43 46 49 53 56 58 62
39 38 37 36 36 36 37 37 37 38 38 38 38 37 36 36 36 36 37 37 37 36 37 38 40 39 41 42 43 43 39 46 50 49 44 44 43 45 49 53 57 60 63 66
40 40 40 38 37 35 36 37 37 37 39 39 39 39 37 37 38 38 38 38 38 37 38 40 41 42 42 45 47 40 44 47 48 47 44 46 49 54 55 57 61 64 68 72
42 40 40 41 40 38 37 38 38 37 37 39 39 39 38 39 38 38 38 38 38 39 41 43 44 43 44 48 46 41 41 42 43 47 48 50 52 55 58 62 65 68 70 72
41 41 42 40 41 42 43 42 39 40 40 41 41 41 40 38 39 39 40 40 41 43 45 45 44 44 48 50 46 41 41 43 46 48 50 53 56 58 62 65 68 70 71 74
42 42 43 44 44 42 45 46 44 43 43 44 47 46 42 39 41 43 43 43 44 45 47 47 45 48 49 48 38 41 45 48 50 52 55 58 61 64 67 68 70 71 71 72
47 46 45 45 46 46 45 46 46 45 47 48 48 46 44 43 42 43 44 45 46 48 49 47 48 49 48 41 42 44 47 50 53 57 60 62 65 67 68 70 70 71 71 71
51 47 45 43 43 44 47 48 48 48 46 48 47 44 46 45 43 43 44 47 49 52 51 50 51 51 46 45 48 50 54 56 58 60 62 65 68 69 69 69 69 69 70 72
53 50 51 49 47 48 50 53 52 51 48 46 47 46 46 44 44 46 50 52 53 53 53 54 58 58 51 52 55 57 59 62 63 65 67 69 68 67 68 68 69 70 70 72
47 49 50 52 53 54 57 58 58 55 53 47 44 46 44 45 46 47 49 46 48 52 53 53 53 50 52 57 60 62 64 66 67 69 69 67 67 67 67 67 69 70 72 72
45 47 50 51 51 52 53 52 48 47 46 43 39 41 45 47 50 55 53 51 52 52 52 54 54 55 59 62 63 66 68 68 69 69 68 66 65 66 67 67 69 70 69 67
49 48 54 55 56 58 59 56 53 51 48 48 49 48 52 55 53 51 52 54 56 58 59 60 60 62 64 66 68 66 67 68 68 66 63 63 64 66 67 67 67 67 65 63
56 53 56 61 63 62 60 58 57 57 56 55 55 55 54 55 55 55 57 60 61 60 62 63 65 66 66 66 67 67 66 64 62 61 62 63 64 65 66 65 63 62 61 60
55 56 54 55 54 58 63 64 62 60 59 58 60 58 60 60 60 60 61 64 64 64 65 65 64 63 61 60 61 61 59 59 60 62 63 64 65 64 63 60 59 59 57 54
46 46 49 53 53 50 50 55 60 62 61 61 60 57 57 59 60 61 62 61 60 60 60 57 55 55 56 57 57 57 58 59 60 61 62 63 62 60 58 57 56 54 52 51

GFSNW_500_spd_030.txt.gz
Wind_Speed
36 42 47 49 48 44 41 38 37 36 34 30 26 23 16 13 13 13 14 12 8 6 6 4 3 4 6 6 6 5 4 2 6 10 12 14 18 21 24 27 27 29 33 28
38 43 46 48 46 44 40 39 37 35 33 30 26 20 15 17 16 16 15 11 9 6 6 6 6 6 6 7 7 6 4 6 11 14 15 18 23 28 33 36 34 27 31 27
38 42 46 47 46 44 42 40 36 35 32 28 25 22 21 19 18 16 14 12 11 9 8 8 8 8 8 8 8 7 8 9 11 14 18 24 28 33 39 42 39 37 25 29
37 42 46 46 46 44 42 39 38 35 31 27 25 23 22 21 19 16 15 14 12 12 11 11 10 10 10 9 10 10 11 13 15 17 20 25 30 36 42 42 37 36 31 26
35 39 44 47 47 46 44 41 38 34 30 29 27 24 21 20 19 17 16 16 15 15 15 14 12 11 11 10 12 12 15 17 19 22 24 27 32 36 42 43 39 35 31 26
32 36 40 44 46 45 45 41 38 36 33 30 28 24 23 22 18 19 19 19 19 17 14 15 14 13 13 12 13 16 19 22 23 25 29 31 36 37 43 41 36 34 30 26
31 34 37 41 43 45 42 41 39 36 35 32 28 25 22 23 22 21 21 21 19 18 19 16 15 15 15 15 17 20 22 25 27 29 32 34 37 39 42 38 34 31 29 30
31 32 35 39 40 41 42 42 40 38 36 33 29 25 26 23 23 24 20 20 21 21 19 18 18 18 18 19 20 24 26 28 32 35 37 38 39 47 39 39 32 32 29 31
32 32 33 35 38 39 40 40 40 38 37 34 32 30 28 28 25 23 24 23 23 22 21 21 20 22 22 23 24 26 30 32 35 38 41 43 44 46 49 42 36 37 36 36
32 32 33 34 35 37 38 38 38 38 36 35 34 33 31 30 28 27 26 25 25 23 23 23 24 26 26 29 29 30 33 35 37 41 43 43 46 49 47 45 42 38 40 41
36 32 32 33 34 34 36 37 37 37 37 37 36 35 35 33 31 30 29 28 26 25 26 27 27 29 30 32 34 35 37 37 40 42 44 46 50 51 51 46 43 43 44 46
36 34 32 32 32 33 34 34 36 36 37 37 37 37 38 36 34 33 30 32 29 30 30 31 32 33 34 35 37 38 41 39 43 45 44 46 53 55 51 48 46 47 49 52
37 36 34 32 31 32 32 33 34 35 36 37 38 38 37 38 36 35 35 34 34 34 33 35 36 37 37 38 39 39 40 39 43 47 46 48 51 47 45 46 47 49 51 56
37 36 35 34 33 33 32 32 34 35 36 37 37 38 39 39 39 38 38 38 38 38 38 39 40 40 41 41 41 42 38 40 41 45 49 50 49 46 46 48 50 54 57 59
39 37 36 35 34 34 34 35 35 36 37 38 37 38 38 39 40 40 41 41 41 40 40 41 42 43 42 43 44 42 38 40 44 49 51 48 45 46 47 49 52 55 58 62
41 40 38 37 35 35 35 36 36 36 36 37 38 38 38 40 41 41 41 42 41 42 43 43 43 43 44 47 48 40 39 44 47 50 50 46 47 49 50 53 57 59 63 66
42 40 38 38 38 38 37 37 34 35 36 38 39 39 39 40 40 40 39 39 39 41 43 43 42 44 49 52 49 39 42 47 48 48 47 47 49 52 55 58 61 63 66 69
42 41 40 39 38 38 39 39 39 39 40 40 43 42 38 37 38 39 39 40 42 44 45 47 45 48 51 53 43 45 46 46 50 51 51 52 54 57 61 63 65 67 69 71
38 39 39 41 40 41 41 40 40 42 44 44 44 43 42 41 41 42 43 44 45 48 49 48 49 51 52 49 48 49 49 51 55 57 58 57 59 62 65 66 68 70 71 72
40 39 42 43 41 39 41 42 42 42 44 46 45 43 44 44 44 43 43 45 46 49 49 50 53 53 50 51 50 50 53 57 58 56 57 61 64 66 69 70 72 71 71 71
38 41 40 41 38 42 44 45 44 43 44 44 44 43 42 43 45 44 44 48 49 51 52 52 52 53 49 46 48 50 52 53 56 58 61 64 67 69 70 70 69 70 71 71
40 39 41 45 46 48 50 46 44 42 42 42 42 39 43 46 47 48 49 49 51 53 53 54 54 52 49 49 50 54 57 60 62 64 66 67 68 69 68 68 67 69 69 69
42 42 43 43 46 47 51 49 47 45 45 44 46 47 47 45 45 49 49 51 54 54 54 55 56 54 53 55 57 59 61 64 67 69 69 68 67 66 65 65 67 67 67 68
43 41 43 45 48 48 48 47 46 47 47 47 46 43 42 40 44 49 50 53 55 55 56 55 54 56 59 62 64 66 66 67 68 67 66 64 63 63 64 65 66 66 67 67
44 45 48 51 52 54 53 52 51 52 53 53 51 50 50 52 52 52 55 57 58 58 58 59 62 63 64 66 66 66 66 65 65 64 62 61 61 62 62 64 65 67 66 65
45 47 50 52 52 53 54 56 58 58 55 53 55 57 57 57 58 60 61 61 62 62 63 64 64 63 62 62 63 64 64 61 60 58 58 60 61 62 63 64 65 65 65 63
46 46 48 52 53 52 51 51 53 56 59 61 61 63 64 63 62 62 62 60 60 61 60 58 58 60 60 60 59 58 56 55 56 57 59 60 62 63 63 64 64 63 61 58

GFSNW_500_spd_033.txt.gz
Wind_Speed
32 36 42 47 50 50 48 44 41 39 38 35 32 29 24 17 14 9 9 9 9 7 7 6 5 8 9 9 8 8 8 6 3 3 6 9 12 14 18 23 27 28 28 21
35 39 44 49 51 49 46 42 41 39 38 35 31 30 21 15 15 10 10 10 8 9 8 7 9 8 8 9 10 11 8 7 5 6 8 9 13 19 26 31 34 34 32 19
38 42 46 51 51 49 46 43 41 40 36 35 32 29 19 16 15 12 13 10 11 11 10 9 9 8 8 10 11 11 8 8 8 10 12 15 19 23 27 31 35 39 32 31
39 43 47 51 50 49 46 43 40 38 36 34 30 25 21 18 16 15 14 13 14 15 13 11 10 9 9 11 11 12 11 10 11 14 17 20 23 25 28 31 36 39 36 31
41 44 47 50 50 49 46 43 41 38 36 31 28 26 22 19 18 16 14 15 17 17 16 11 7 10 10 11 13 12 13 13 14 17 19 22 24 26 29 32 37 36 37 32
42 45 47 48 49 49 47 43 41 38 34 33 31 26 23 21 19 17 17 19 19 14 11 15 14 13 13 15 15 14 16 17 18 18 22 24 27 29 30 33 36 40 39 36
39 44 46 48 49 49 45 43 40 37 35 33 30 26 26 25 20 21 20 19 16 15 20 18 16 16 17 16 16 16 19 20 21 22 25 27 32 35 34 36 39 40 38 37
37 39 43 46 48 47 46 45 41 40 37 36 34 29 29 25 19 21 18 18 20 22 19 18 18 19 20 18 18 19 21 24 25 27 30 32 36 38 37 39 41 38 39 39
34 37 39 39 42 45 47 45 42 41 39 38 34 33 30 28 22 22 21 22 22 21 21 22 21 22 23 22 21 23 25 27 29 32 35 38 41 42 44 45 43 45 43 40
33 34 36 38 40 42 44 44 43 41 40 38 38 35 32 29 27 26 25 25 24 24 25 24 24 25 25 26 25 27 29 31 32 35 38 39 42 46 44 43 47 46 42 39
32 32 33 34 36 38 40 41 41 40 39 39 39 35 35 33 30 28 28 29 27 27 27 27 26 27 28 29 30 30 33 35 36 38 40 43 47 48 45 45 49 47 43 41
36 31 31 32 33 35 37 38 39 39 38 39 39 38 38 36 34 32 33 33 30 31 30 29 30 31 31 31 33 35 37 38 39 39 41 45 48 49 47 47 48 45 44 44
36 34 30 31 32 33 35 36 38 39 39 39 39 38 38 38 37 35 35 35 34 33 32 34 34 34 34 36 36 37 40 41 42 44 45 48 52 52 51 51 49 46 46 47
37 35 35 31 30 30 32 34 35 37 37 38 39 38 38 39 39 38 37 37 37 37 36 37 37 38 40 39 40 41 37 38 39 43 45 49 50 53 52 51 49 48 48 51
38 36 34 34 31 30 31 32 33 34 34 35 34 35 36 37 38 38 39 39 39 39 38 39 41 42 42 42 43 40 36 38 43 45 44 47 51 51 51 52 52 53 54 57
40 38 36 35 35 33 32 32 32 30 31 33 33 33 34 35 36 38 37 36 37 39 40 41 43 42 43 45 44 36 38 43 45 45 49 52 52 52 52 53 56 60 59 60
42 40 38 36 34 34 35 33 31 30 30 32 34 34 35 35 35 35 35 37 38 40 41 42 40 40 44 45 43 38 43 47 44 48 52 54 53 53 56 59 61 61 62 65
43 41 40 38 36 35 34 33 32 32 33 34 36 35 33 32 33 35 35 35 37 38 39 41 40 43 46 47 42 45 45 45 47 51 54 54 54 56 59 57 59 61 64 68
42 42 42 40 39 37 36 35 34 35 36 37 36 34 34 34 35 36 37 38 39 41 43 44 46 48 47 44 44 45 46 47 50 51 52 53 54 55 56 59 63 66 69 70
38 41 42 42 40 39 38 37 37 37 37 38 37 35 37 37 38 37 38 39 41 44 44 45 48 48 45 45 46 46 47 50 51 52 52 53 56 59 62 64 67 69 70 71
39 37 37 37 36 37 37 38 39 38 38 38 38 37 36 35 36 36 37 39 42 44 46 48 50 48 46 46 48 48 49 52 53 53 54 57 60 63 66 67 69 70 70 69
33 36 36 37 37 38 37 38 41 42 40 42 38 34 33 34 35 38 40 43 47 49 50 51 50 47 46 46 48 49 52 52 52 55 59 63 65 67 68 69 70 70 68 68
34 37 35 32 35 38 38 37 38 37 37 34 34 36 39 37 39 42 43 46 48 46 46 47 46 46 48 51 52 53 56 58 60 62 63 66 68 68 69 69 66 64 65 67
41 40 41 42 42 42 39 39 39 39 37 37 38 39 40 40 42 43 45 46 46 47 48 49 48 51 53 54 57 60 62 63 64 65 67 68 67 68 67 63 64 65 65 67
47 44 44 45 44 44 45 45 44 43 41 41 42 42 43 44 46 47 48 48 48 52 53 52 56 59 61 61 61 62 63 64 65 66 65 67 68 64 61 62 63 65 66 67
40 43 45 45 44 44 45 46 47 47 48 48 49 50 52 53 54 54 53 53 52 53 54 57 59 61 61 60 61 61 61 61 62 65 65 63 60 59 60 61 64 66 66 65
40 40 40 41 44 46 47 49 50 51 51 52 53 54 55 56 56 56 56 55 56 55 55 56 56 55 55 55 55 57 59 61 61 58 55 56 57 59 61 63 63 63 62 59

GFSNW_500_spd_036.txt.gz
Wind_Speed
39 36 34 37 36 40 47 51 49 46 43 41 38 36 32 25 20 15 10 6 5 1 7 7 9 12 12 12 14 14 12 11 11 7 4 4 5 7 12 15 19 22 26 28
40 38 37 39 42 45 51 51 48 45 43 41 37 35 31 24 21 15 9 5 6 5 7 8 11 13 15 17 16 15 14 13 10 8 7 7 9 12 17 20 22 24 28 29
39 38 38 42 45 50 53 51 48 46 43 40 37 34 28 24 20 14 10 9 9 8 9 11 13 13 15 16 15 15 15 13 11 11 11 12 14 17 22 24 25 26 28 27
38 38 41 44 49 52 53 50 46 43 41 39 37 33 28 22 20 15 13 12 11 11 13 13 13 13 13 13 15 16 15 13 13 13 13 13 16 18 22 25 27 29 29 32
39 41 44 47 51 53 53 49 46 43 42 40 37 33 27 23 19 16 14 13 13 13 14 12 14 13 13 13 15 16 17 18 17 16 16 17 20 21 24 27 28 30 34 36
40 42 45 49 52 53 52 49 45 43 42 39 35 30 27 24 21 18 15 13 13 13 14 16 17 19 16 16 17 18 18 18 18 18 20 22 22 24 26 29 31 32 35 36
41 43 47 49 52 53 52 48 42 41 39 35 33 30 29 26 22 19 16 14 14 12 18 21 20 18 17 16 17 19 20 20 21 21 23 25 27 27 29 32 31 35 37 40
40 42 45 49 51 51 50 48 44 41 39 36 36 33 33 28 23 19 17 16 16 18 22 22 21 19 18 19 20 21 22 23 24 25 26 28 30 30 33 34 34 39 40 42
35 41 45 47 49 49 50 48 46 42 40 39 38 34 32 28 24 21 20 18 20 22 23 24 23 23 22 22 21 22 24 26 27 27 31 32 32 33 35 37 37 40 43 42
39 34 42 44 48 50 49 47 45 42 41 39 38 35 33 30 25 24 23 22 22 23 24 25 25 25 26 25 25 24 27 30 30 31 34 35 36 37 39 40 42 47 47 46
38 39 37 42 46 48 48 46 45 43 42 40 39 36 35 33 30 28 26 26 24 27 27 28 27 28 28 27 28 29 31 33 32 34 36 38 38 40 41 42 46 48 48 48
35 36 38 39 43 45 45 44 44 43 42 40 40 38 38 35 33 32 32 30 30 31 30 31 30 30 31 32 32 32 34 35 36 37 38 39 41 42 43 48 51 50 49 50
33 33 33 35 36 38 40 42 42 43 42 42 41 40 39 38 36 36 36 35 34 34 35 34 33 33 32 33 34 37 36 39 40 41 39 38 41 46 50 52 51 52 52 53
35 32 31 30 32 34 36 37 37 39 40 40 40 40 40 39 38 38 39 38 37 37 37 37 35 36 37 36 38 39 37 40 42 44 40 43 46 50 52 52 52 53 55 55
35 34 31 28 28 29 30 32 33 35 36 37 37 39 40 40 40 40 40 40 37 36 36 37 37 38 38 39 40 36 35 37 41 40 40 43 47 51 52 52 53 55 56 56
36 33 32 32 29 27 27 27 29 30 31 33 34 36 37 39 38 36 35 34 35 36 36 37 37 35 38 43 41 30 33 38 39 41 43 47 49 49 50 52 54 55 56 57
39 37 34 33 31 31 31 27 26 27 29 30 32 34 35 35 32 30 31 32 32 34 35 35 35 36 40 42 38 33 40 40 41 44 47 48 49 50 50 52 53 53 55 57
42 40 38 36 34 33 31 30 30 29 30 30 32 31 28 29 29 29 30 31 32 32 33 34 34 38 41 41 37 41 42 43 45 48 48 49 50 50 52 53 55 56 57 60
43 42 40 38 37 36 34 34 33 33 34 34 33 31 29 29 29 30 31 31 33 36 37 38 40 42 43 41 42 43 44 46 48 49 50 51 51 51 53 54 55 58 62 65
42 43 42 41 39 37 36 36 35 35 35 36 34 31 33 32 31 31 32 33 36 39 40 41 43 44 39 40 41 44 46 46 48 49 50 51 53 55 55 56 60 63 65 67
44 37 37 39 40 40 39 40 39 37 36 34 33 33 32 29 29 30 32 36 38 40 42 43 44 44 39 43 45 46 43 43 42 44 47 49 52 55 58 61 64 66 68 70
33 31 33 36 40 41 42 42 40 38 37 35 32 29 29 29 31 35 38 37 37 39 40 41 42 42 44 44 43 42 43 44 45 48 51 53 56 59 61 64 66 67 69 71
31 30 29 35 36 37 38 37 35 32 31 30 29 28 30 34 35 36 36 40 41 41 43 44 44 45 45 46 46 48 48 49 53 56 57 58 59 62 64 65 65 68 69 67
31 31 31 30 33 36 37 36 33 31 32 32 31 32 34 35 36 37 38 38 40 43 45 46 47 47 48 48 51 53 55 58 60 59 59 60 62 64 65 66 68 66 62 62
36 35 36 36 35 37 38 38 37 37 37 38 39 39 38 39 41 41 43 46 49 50 51 52 53 54 55 57 58 58 58 58 60 61 61 61 63 64 67 66 62 61 62 65
46 45 43 42 42 42 42 44 46 46 44 44 45 45 46 47 48 50 51 51 52 52 53 53 52 52 53 54 55 57 59 60 59 59 60 63 66 66 61 59 61 63 63 63
44 45 50 48 47 46 46 47 46 46 46 46 47 48 49 50 51 51 51 51 48 46 46 46 48 51 52 52 52 53 53 54 58 62 64 61 57 57 58 59 60 62 62 62

GFSNW_500_spd_042.txt.gz
Wind_Speed
48 46 45 41 41 43 42 45 38 42 41 44 42 38 33 30 28 27 22 19 16 14 14 16 17 17 17 16 17 17 18 17 18 18 17 16 14 12 12 12 13 15 16 16
50 46 44 42 42 42 42 44 43 43 44 48 43 38 35 31 29 26 22 19 15 12 12 12 15 17 17 18 19 20 20 20 20 19 18 16 15 14 14 15 17 18 18 21
48 47 43 43 42 43 45 46 45 44 49 48 44 39 35 30 27 24 20 16 12 9 9 13 14 15 17 17 18 22 22 21 20 20 20 19 18 17 17 19 20 20 22 24
47 45 43 43 43 44 48 51 46 44 52 49 45 41 36 31 27 24 21 16 13 10 8 13 14 13 14 16 15 17 20 20 21 23 23 22 21 20 20 21 23 24 24 27
45 44 44 43 44 45 50 50 46 48 51 49 46 42 36 33 27 22 19 17 12 10 9 14 15 15 15 16 17 19 20 21 23 25 25 25 24 22 22 25 26 28 30 29
42 42 43 42 43 45 49 48 46 50 53 50 46 40 35 32 28 25 22 18 14 12 13 14 15 15 16 17 17 19 20 21 24 27 27 29 26 22 27 28 29 32 33 35
43 45 41 41 43 43 48 46 48 54 54 49 44 40 36 31 27 26 23 20 16 15 14 16 18 18 18 17 18 19 20 22 25 26 29 33 25 27 30 33 33 35 37 39
31 48 40 40 40 44 48 47 50 54 53 49 46 42 35 32 31 28 25 21 19 17 16 17 19 20 19 18 18 20 22 25 26 28 29 32 29 30 33 35 36 37 40 41
42 40 38 39 40 45 45 49 50 53 53 49 46 41 35 33 32 28 26 24 21 20 20 19 19 19 20 21 20 22 24 27 28 29 33 35 32 32 35 40 39 40 42 42
37 36 37 37 40 43 47 51 48 52 52 49 46 41 36 33 31 29 28 26 24 21 20 18 18 20 21 22 22 24 28 30 31 32 36 37 35 36 39 41 44 44 44 45
34 35 34 38 41 43 47 48 48 49 51 47 44 41 37 34 32 31 29 29 27 25 23 21 19 18 20 20 22 24 28 30 30 33 36 38 37 38 41 44 45 46 47 48
31 33 33 36 41 39 42 44 43 49 48 45 43 39 36 36 35 33 32 31 29 27 26 24 24 24 23 23 25 26 30 32 34 35 36 38 41 43 44 45 47 48 48 48
31 29 31 36 40 46 33 38 45 45 44 44 42 39 38 37 35 34 32 32 32 32 31 29 29 29 29 30 31 33 34 35 36 38 36 40 44 46 46 47 48 48 48 48
31 31 32 39 44 49 46 35 40 43 43 43 40 38 37 36 35 34 33 32 34 34 34 34 34 35 35 35 37 39 36 35 39 42 41 44 44 45 46 47 47 47 48 50
29 30 31 35 40 41 46 46 42 41 41 43 42 40 38 37 36 36 35 36 38 39 38 38 39 39 40 41 42 37 33 36 41 44 43 44 43 43 44 45 46 48 51 52
35 31 33 34 36 35 37 37 38 38 38 38 38 38 38 37 38 38 38 38 39 40 40 41 41 40 42 46 44 30 33 38 40 41 42 42 43 44 45 47 49 50 52 54
33 30 30 29 28 28 31 30 30 32 34 35 36 36 37 36 36 36 37 39 39 41 41 40 38 37 41 44 39 32 35 37 38 40 42 43 45 47 47 48 49 52 54 55
33 32 30 28 28 27 27 27 28 29 30 32 32 33 32 33 32 34 35 35 37 37 37 36 35 38 38 38 32 35 36 39 42 43 45 46 46 47 48 49 52 54 52 52
31 31 30 29 28 27 27 26 26 27 28 29 28 26 25 29 27 29 29 31 32 34 34 34 35 36 37 35 35 38 40 42 43 44 46 46 47 48 49 50 50 50 51 53
28 27 27 27 25 24 25 26 26 25 26 25 25 24 24 24 24 26 29 30 33 35 34 36 37 37 37 37 38 40 42 44 45 45 45 44 45 47 49 51 53 55 54 56
27 26 25 25 25 25 25 26 27 27 28 27 25 24 24 24 26 28 32 35 35 38 38 36 38 35 36 37 39 41 43 44 44 45 46 47 48 49 52 54 56 58 60 61
29 29 29 28 28 28 32 33 33 33 32 29 26 26 27 28 30 33 35 36 39 40 39 40 40 38 38 39 40 41 42 43 43 45 48 50 52 55 56 56 57 58 60 59
33 31 31 34 37 41 42 39 35 33 31 31 31 33 34 35 36 37 38 40 40 40 43 43 41 38 40 42 43 44 45 47 50 52 53 54 56 58 58 59 58 57 57 59
36 38 41 42 45 48 46 42 36 31 31 32 33 33 33 33 35 37 37 39 40 42 42 41 41 42 44 46 48 51 53 54 56 57 58 60 60 60 58 57 57 58 60 63
31 32 36 41 38 37 39 42 38 32 31 31 32 33 32 32 34 35 37 39 43 43 41 42 46 48 51 52 53 56 58 59 58 58 57 58 59 59 58 58 59 61 64 62
24 26 27 28 29 29 29 27 28 29 30 29 30 30 32 34 37 38 40 42 44 45 47 49 50 52 54 56 58 58 56 54 55 56 58 57 56 56 58 61 60 58 58 59
28 28 27 27 28 31 32 32 34 35 35 36 37 39 41 42 44 45 45 45 46 49 50 51 52 53 55 56 55 54 54 55 56 55 53 56 58 56 52 53 54 57 60 63

GFSNW_500_spd_045.txt.gz
Wind_Speed
62 71 67 60 53 52 48 47 47 41 39 39 34 37 38 34 29 27 25 24 21 18 15 13 13 14 15 17 18 17 17 17 15 16 18 17 16 15 14 14 13 14 13 12
63 68 63 54 51 47 44 48 49 45 39 40 38 42 39 34 30 28 26 22 17 14 13 14 17 18 19 18 17 16 17 16 16 16 17 17 17 16 17 17 17 16 18 19
66 64 58 52 51 47 48 48 52 48 40 43 42 44 40 34 30 27 25 21 17 13 11 13 14 15 16 16 16 17 19 18 17 18 20 21 20 21 21 20 20 21 19 23
66 58 53 51 49 49 47 49 53 47 42 47 47 47 41 35 31 28 24 20 17 11 8 11 12 14 15 16 16 17 19 20 20 21 22 24 23 23 22 22 23 25 24 25
62 53 54 51 49 48 45 49 50 46 42 46 49 48 43 35 30 28 25 22 17 9 7 9 13 14 13 12 14 14 14 17 20 22 24 26 27 27 25 25 27 29 31 27
60 55 52 50 49 45 45 46 49 47 44 48 52 48 41 35 31 29 26 22 15 10 8 10 12 14 13 12 12 13 15 17 21 23 25 29 30 25 29 30 31 33 33 34
57 53 50 48 46 42 43 43 48 48 45 51 51 48 43 37 33 29 23 21 16 12 10 11 12 14 15 13 13 14 15 18 21 22 25 30 25 26 31 34 34 36 36 38
53 50 49 46 43 42 43 41 46 48 45 52 52 49 44 39 35 29 25 22 18 14 12 13 13 15 16 17 16 16 17 19 22 24 24 26 25 27 31 35 35 38 40 42
50 49 45 45 42 42 41 42 45 46 45 52 51 48 44 39 33 30 27 23 19 17 16 15 14 15 16 18 18 19 20 22 24 24 26 27 26 26 30 35 36 39 42 44
45 43 43 43 42 40 38 41 44 44 45 51 51 47 42 38 33 31 28 24 22 21 19 17 16 15 15 18 17 20 23 25 26 26 27 29 30 31 33 35 40 42 44 45
40 42 45 40 38 37 36 41 44 43 44 50 51 47 43 38 35 32 29 27 24 23 22 20 18 17 16 15 17 21 24 26 26 28 31 35 34 35 38 40 43 44 45 45
35 42 42 37 38 35 36 41 40 41 39 48 49 46 42 38 36 34 30 29 28 26 24 23 22 21 19 20 20 21 24 26 28 29 31 35 38 40 42 42 44 45 46 47
38 38 38 36 34 35 36 38 38 42 34 45 47 45 42 38 36 34 31 30 28 26 27 27 27 27 26 27 27 28 29 29 31 34 34 38 42 43 43 44 44 45 46 48
34 33 33 31 33 35 37 41 32 35 40 38 46 43 40 37 36 34 31 30 30 30 31 31 31 32 31 31 34 35 33 33 37 39 39 42 41 42 43 43 44 44 45 47
31 31 32 31 34 37 37 39 39 36 35 39 38 41 39 37 36 34 32 32 33 33 32 32 34 35 36 37 38 35 35 37 41 42 41 41 40 39 40 41 43 45 47 49
30 30 30 35 38 40 46 32 46 40 38 39 37 36 36 30 35 34 33 33 34 34 35 36 36 36 39 42 41 34 37 39 40 39 40 40 41 41 42 44 46 48 48 49
29 29 30 31 34 38 35 31 31 34 34 34 35 35 34 33 30 33 35 36 36 37 37 38 38 39 41 42 40 36 35 37 38 38 39 40 42 44 45 46 47 47 47 49
29 26 30 31 32 32 28 27 28 27 27 30 32 33 33 33 32 33 35 35 36 37 37 38 38 40 40 41 35 34 35 36 38 39 41 43 44 45 45 46 46 47 47 50
32 28 31 28 30 32 30 29 30 31 32 31 30 28 28 32 31 31 32 33 35 37 37 37 38 38 37 33 33 34 36 38 40 42 43 43 45 45 46 47 48 50 52 54
27 34 25 24 26 27 28 28 28 29 29 28 25 25 24 24 25 26 28 30 32 34 33 34 35 35 33 33 35 36 39 40 41 42 44 45 46 47 48 49 50 53 55 57
22 26 27 25 25 24 24 23 23 24 23 20 19 18 19 20 22 25 30 31 33 36 36 36 37 34 33 34 36 38 39 41 42 43 44 45 46 48 50 53 55 56 58 60
24 18 20 20 21 21 22 22 21 20 19 16 16 18 20 22 25 28 30 32 35 37 37 36 36 35 35 37 38 39 39 40 42 44 46 48 51 53 54 55 58 60 61 62
29 23 23 22 22 26 26 23 21 20 19 20 21 23 25 27 30 32 34 37 38 38 41 41 37 34 35 37 38 39 41 44 46 49 51 52 53 56 59 59 60 61 61 59
31 26 28 30 31 29 24 24 25 26 26 27 29 32 32 31 32 34 35 38 39 40 38 35 34 37 40 42 42 44 47 49 51 53 55 58 60 60 58 58 58 58 56 55
35 33 32 30 27 28 29 32 33 35 37 39 34 32 33 34 36 36 36 37 39 37 37 39 40 42 44 46 49 51 53 55 56 57 59 58 58 57 57 57 56 55 53 51
37 37 39 37 35 35 36 36 35 35 35 36 38 36 32 29 30 30 31 32 35 39 41 43 45 47 49 51 53 55 56 57 57 58 57 56 56 55 54 53 50 49 51 49
34 35 36 32 28 27 25 25 24 23 26 27 29 30 31 34 35 35 37 39 40 43 44 46 48 51 53 56 57 58 58 56 54 55 54 52 52 51 48 49 51 49 51 55

GFSNW_500_spd_048.txt.gz
Wind_Speed
71 66 63 63 62 57 55 57 55 49 47 45 40 35 29 31 33 32 30 26 24 20 18 17 17 15 17 18 20 21 20 21 20 20 20 22 20 17 16 17 16 16 16 15
69 64 68 71 63 57 61 62 57 53 51 46 42 36 35 36 36 34 31 27 24 21 19 17 16 16 18 19 19 20 20 21 19 19 17 17 17 17 18 19 19 18 20 21
69 71 69 73 66 69 69 59 56 55 51 49 41 39 39 40 38 35 32 28 24 20 18 16 16 17 19 20 19 19 20 20 19 17 17 17 18 20 22 23 22 21 20 25
72 73 68 76 67 70 67 61 62 56 53 51 46 42 44 42 39 35 32 29 24 19 15 13 13 14 14 14 15 17 19 19 19 19 19 19 20 22 24 25 25 26 24 26
77 83 78 72 70 67 64 61 61 56 51 47 45 45 48 43 40 34 31 27 23 19 13 10 10 11 13 14 14 17 18 17 21 21 20 21 23 25 26 27 27 28 31 29
77 72 73 73 67 62 58 54 55 57 50 47 47 47 49 45 41 36 32 28 25 20 14 9 8 10 13 14 14 15 15 14 16 16 19 23 24 21 28 31 31 33 36 36
82 73 74 68 63 55 57 54 54 53 53 48 46 48 50 47 41 36 33 31 27 21 14 9 8 9 12 14 15 14 13 14 16 16 21 26 21 24 27 31 32 35 38 40
79 77 71 58 58 59 54 52 51 52 52 47 47 50 52 48 42 38 35 32 26 21 16 11 9 8 10 13 16 16 16 16 18 20 21 23 20 21 26 30 30 33 37 40
60 72 62 62 58 53 49 49 46 50 49 47 45 50 52 49 43 39 37 31 26 22 18 14 10 9 9 13 15 17 19 20 21 20 23 24 23 24 26 29 32 33 36 39
69 64 62 57 53 49 47 47 45 47 46 49 47 51 53 49 44 39 35 28 26 23 20 16 13 11 10 11 13 16 20 22 23 24 26 27 27 28 29 30 34 36 38 39
63 57 55 52 49 47 45 46 44 44 47 47 45 50 53 49 44 41 35 31 27 24 22 19 16 14 13 12 12 14 18 20 21 23 26 29 29 31 33 35 37 40 42 43
58 56 52 48 46 46 42 44 43 43 47 44 43 48 50 49 45 38 35 32 29 27 25 23 20 19 18 16 16 19 20 22 23 25 28 32 34 36 38 39 41 43 44 44
52 48 45 44 44 42 40 41 43 41 44 41 42 46 48 46 44 41 37 33 32 29 27 25 24 23 23 23 23 25 26 26 28 31 33 36 39 40 42 42 43 43 43 43
46 44 43 43 42 41 37 39 37 38 36 36 38 43 47 45 42 40 37 34 32 30 28 27 27 26 27 28 30 30 30 32 35 36 38 40 41 42 43 43 43 42 42 43
41 44 44 41 40 39 36 34 34 39 36 35 33 41 44 43 41 37 35 33 31 30 30 30 30 30 32 33 34 34 35 36 39 40 40 41 42 42 42 42 42 42 43 45
43 44 41 39 36 34 34 37 37 36 30 32 32 36 41 41 38 36 35 34 32 33 33 32 33 33 35 36 37 36 38 39 40 41 41 42 42 41 41 41 42 44 46 47
36 37 38 34 33 35 39 33 33 32 37 35 30 33 39 39 36 34 35 35 36 35 35 35 35 36 38 39 40 38 38 40 39 39 40 40 40 41 42 43 45 46 47 48
34 36 35 34 35 35 35 33 29 35 31 25 31 33 34 37 37 36 33 32 31 36 36 37 37 39 40 41 37 37 37 37 38 39 40 40 42 43 44 45 46 48 49 50
38 37 35 34 34 36 36 31 28 36 39 35 31 32 32 33 34 35 36 37 37 36 36 36 37 38 38 35 34 35 34 35 37 39 41 43 44 44 46 47 48 49 49 50
35 37 37 36 33 28 26 29 26 25 25 27 27 29 30 31 32 33 35 35 36 37 36 37 38 36 32 31 32 35 37 39 40 41 42 44 45 47 48 48 49 50 52 54
32 28 31 31 31 31 26 25 25 25 27 26 24 25 25 26 28 30 33 33 35 36 35 36 35 32 31 32 34 36 39 41 42 44 45 46 46 47 48 50 52 54 55 57
30 30 28 31 28 28 26 25 25 24 21 20 20 22 24 25 26 28 30 31 33 35 34 34 34 32 32 35 38 40 41 42 43 43 44 45 46 48 51 53 54 56 59 61
18 21 20 20 22 25 26 23 20 19 19 20 21 20 20 21 24 25 27 30 32 32 35 35 33 34 37 38 39 40 41 42 43 44 45 47 50 52 55 58 59 61 60 60
22 19 17 19 21 18 16 16 16 17 18 19 20 21 23 24 27 30 31 33 34 35 34 34 33 35 36 37 38 40 41 43 45 47 50 53 55 58 59 59 58 57 57 56
22 29 31 25 20 22 24 22 22 22 22 23 24 25 27 30 34 34 34 35 38 38 35 36 36 37 37 39 41 43 45 47 50 53 56 58 57 56 54 54 54 53 52 48
31 33 29 28 27 26 24 23 23 25 27 29 32 34 37 36 37 37 37 36 34 33 34 36 38 39 41 44 46 49 51 53 53 53 52 52 53 54 54 54 54 51 47 48
32 28 30 32 31 29 30 29 28 29 31 30 31 31 31 31 31 30 31 33 35 37 40 42 43 45 47 49 50 50 49 48 48 50 51 53 53 53 53 51 47 49 51 53

GFSNW_500_spd_051.txt.gz
Wind_Speed
75 71 68 64 61 61 55 52 52 51 50 49 41 39 33 29 29 26 27 22 22 20 22 20 18 17 16 17 17 17 20 21 23 18 24 22 24 22 22 22 20 20 19 21
83 78 73 68 65 59 59 59 57 54 54 50 43 39 37 35 33 30 30 27 26 25 23 22 19 20 17 17 18 21 19 22 23 25 22 21 22 23 22 23 23 21 23 18
85 82 80 72 67 64 64 65 62 63 55 50 47 43 42 37 34 36 35 32 30 28 25 21 20 19 17 18 19 21 23 24 24 24 16 19 18 21 22 24 24 20 22 22
89 83 80 76 72 69 71 67 64 60 52 49 51 48 43 39 37 40 39 36 31 27 24 21 19 18 19 21 22 24 25 24 24 23 23 21 21 20 22 23 21 27 19 25
92 84 80 75 77 77 70 65 61 60 56 54 53 50 47 43 41 43 40 37 30 28 23 20 19 19 19 18 18 18 19 21 21 22 23 24 24 22 22 22 23 26 25 31
90 82 82 84 85 76 68 69 69 65 64 56 57 48 46 45 43 45 42 36 32 30 27 21 18 17 15 15 16 17 18 20 20 21 22 26 24 19 20 24 25 29 33 32
83 82 82 82 82 66 70 73 62 68 60 56 51 51 48 47 47 46 41 37 35 30 26 22 17 14 12 14 16 17 17 19 20 19 19 22 17 19 22 26 27 31 33 35
79 83 89 90 77 78 75 74 69 62 59 51 51 50 50 49 50 47 44 39 32 32 29 24 18 13 11 13 16 17 17 19 19 20 20 20 18 20 23 26 26 32 31 34
100 82 78 78 75 79 79 70 70 58 56 53 50 53 52 52 51 48 44 41 37 35 31 26 19 13 12 12 13 16 19 19 21 20 22 23 23 21 24 28 30 31 32 34
94 85 84 77 72 71 70 67 61 55 55 52 53 53 51 50 51 50 45 42 39 37 31 26 21 17 13 12 11 14 17 19 21 22 24 24 25 25 26 28 32 33 34 36
95 92 88 77 73 67 55 55 56 56 56 56 54 53 53 53 52 50 46 42 41 37 32 28 23 20 16 13 13 13 14 16 17 20 23 25 23 26 26 29 31 35 38 41
81 83 68 58 67 63 57 56 51 49 49 52 53 50 49 52 52 50 46 41 39 33 33 29 26 23 19 18 17 16 17 17 18 20 24 25 27 29 31 34 37 40 42 45
67 73 63 57 62 61 53 51 48 46 48 51 52 52 49 51 51 49 45 43 39 33 32 29 30 26 23 22 22 21 22 22 25 26 30 32 34 36 38 40 42 44 46 47
70 62 64 60 58 56 48 49 46 43 46 48 50 49 46 48 50 51 48 43 40 36 35 34 31 27 27 26 27 27 27 27 30 31 35 37 39 39 42 44 45 46 46 46
63 61 58 55 52 48 43 43 42 42 49 49 46 42 41 43 47 49 48 43 40 39 37 35 31 30 31 31 31 31 31 34 35 37 37 40 43 44 45 46 47 46 46 45
57 55 53 50 48 42 40 38 38 37 45 39 44 40 38 41 44 44 45 44 42 40 38 34 34 34 34 35 34 35 36 38 39 41 42 44 45 46 46 46 45 45 46 46
47 47 48 48 43 38 34 35 32 34 36 32 39 36 37 39 40 42 41 39 38 38 36 36 36 36 37 37 39 36 39 41 42 43 45 46 45 46 45 45 45 46 48 49
43 44 44 43 43 35 31 33 34 33 36 32 34 35 35 37 38 39 39 38 37 38 38 38 38 39 40 41 40 40 42 42 43 44 44 45 45 45 45 47 48 48 49 49
43 42 42 44 43 38 33 31 34 35 37 28 29 39 34 36 37 38 37 37 38 39 39 39 40 40 41 41 41 41 41 42 42 42 43 44 45 47 47 48 48 49 49 48
40 40 40 42 40 38 34 26 32 35 33 30 33 34 35 34 36 37 38 39 39 41 39 39 41 42 41 40 40 40 39 40 41 43 44 45 46 48 48 49 48 48 49 51
36 38 35 36 37 36 30 27 28 34 28 29 30 27 26 28 30 33 35 36 38 40 39 41 43 42 37 37 36 38 40 42 44 45 46 47 48 48 48 47 48 51 53 55
34 35 33 36 34 33 31 33 31 24 24 22 23 24 23 25 28 31 33 35 38 41 40 39 40 34 32 33 36 40 42 44 45 47 47 46 46 46 48 50 53 55 57 59
31 32 33 33 32 33 31 28 23 22 16 17 20 22 24 28 32 32 32 34 36 35 36 36 33 31 34 37 39 40 41 42 42 42 43 44 47 49 51 53 55 58 60 59
27 26 30 29 29 30 31 24 21 20 20 23 25 27 27 25 25 27 28 29 30 33 33 32 31 34 37 39 40 41 41 40 40 42 44 46 48 51 54 56 55 55 55 58
26 30 29 27 26 22 23 25 25 24 23 21 21 22 23 24 27 27 29 32 34 35 35 34 36 39 39 38 36 37 39 41 43 45 48 51 52 51 50 51 54 56 58 60
20 20 18 19 20 21 19 18 21 20 21 23 24 24 25 27 30 32 35 38 39 36 35 37 37 37 37 39 41 43 44 47 49 49 49 48 47 49 51 55 58 60 59 58
24 23 22 26 27 28 24 21 22 22 23 24 24 25 30 33 36 37 36 35 34 35 33 34 37 39 41 43 46 48 50 50 48 45 45 47 51 55 58 60 61 59 58 56

GFSNW_500_spd_054.txt.gz
Wind_Speed
80 76 72 68 63 61 58 54 52 51 49 51 44 39 35 35 34 37 29 28 22 19 19 21 17 17 16 19 19 21 18 20 24 14 17 16 18 19 20 21 19 24 22 24
84 79 75 71 65 64 60 55 55 54 50 47 45 40 38 39 36 38 32 27 23 23 26 21 19 18 23 19 19 20 23 20 19 16 19 15 17 20 23 25 26 23 23 19
90 83 78 72 67 65 63 60 60 58 51 49 46 43 39 42 38 40 35 27 26 28 28 27 23 25 22 17 21 18 20 18 20 20 17 22 20 20 24 26 30 21 23 20
91 86 80 75 70 68 68 64 58 54 51 49 47 44 41 44 42 43 39 31 31 31 28 25 25 24 20 21 19 21 22 22 22 24 24 27 24 24 20 23 22 24 18 22
94 91 85 78 74 72 70 59 59 56 52 53 47 43 46 49 45 42 39 33 33 34 30 26 23 23 20 21 22 24 24 25 28 27 26 28 25 27 23 21 22 25 23 25
95 93 87 83 79 78 64 59 61 58 55 53 53 47 48 49 46 45 39 34 33 34 32 28 29 24 22 21 20 21 22 21 23 22 25 26 27 23 25 23 24 26 27 26
93 93 91 89 84 74 64 62 63 62 59 54 49 51 49 48 45 45 37 39 37 39 38 31 28 25 20 20 19 20 21 21 22 19 24 26 19 20 22 24 24 26 29 29
91 94 93 92 84 78 71 68 65 53 57 56 57 52 51 45 46 45 32 41 43 45 39 32 28 24 21 20 18 20 21 20 20 21 22 20 20 19 18 23 23 30 27 28
92 92 94 92 85 80 74 71 67 52 50 55 54 56 52 47 49 54 39 44 45 43 41 36 31 25 19 21 15 16 19 20 21 20 21 21 22 20 20 23 26 26 27 30
90 94 95 93 89 81 77 69 64 57 42 43 49 54 52 49 51 52 49 43 42 44 41 37 33 27 23 21 14 14 17 20 21 22 23 22 24 18 23 25 27 27 28 30
86 97 93 92 87 83 76 71 55 55 44 45 55 47 51 54 51 49 46 48 48 46 43 40 35 29 24 21 17 14 17 16 18 20 20 21 19 21 21 23 25 28 31 34
92 99 92 92 88 81 75 72 51 58 50 41 44 54 58 58 47 55 47 46 44 43 44 40 36 32 27 24 20 19 18 17 17 18 20 19 21 22 23 27 30 34 36 40
97 96 92 83 79 78 75 70 65 62 39 46 54 53 55 55 60 45 48 49 46 45 45 41 39 34 30 27 23 24 20 21 22 23 24 27 26 27 30 34 36 39 41 44
89 88 90 86 81 72 65 65 57 53 56 38 46 53 58 55 54 51 47 48 45 42 41 44 42 37 33 29 28 27 27 25 26 28 29 33 34 32 36 39 41 43 45 47
87 78 72 76 71 64 67 65 46 39 53 55 46 51 54 51 49 52 47 48 48 44 43 46 43 38 34 31 31 30 31 31 32 33 33 37 39 40 41 43 45 46 48 48
71 62 64 63 65 66 60 54 58 46 45 43 43 47 50 49 44 41 49 48 51 49 46 48 44 38 36 35 34 34 34 34 37 39 39 41 43 44 46 47 48 49 49 48
56 48 52 62 60 56 55 52 51 48 40 38 42 45 48 46 44 42 43 47 49 47 46 46 45 41 37 37 37 36 36 38 40 43 44 45 46 47 48 49 50 49 47 48
52 53 59 60 58 54 46 41 41 42 37 38 33 43 45 47 45 42 43 45 48 48 47 46 44 41 40 41 40 38 40 42 44 45 46 48 48 49 49 48 48 48 49 49
52 51 50 49 47 41 34 36 32 40 33 33 32 30 38 41 39 39 39 41 42 42 43 43 42 42 43 42 40 42 43 44 45 45 47 49 49 48 48 48 48 49 51 51
50 48 48 47 40 36 30 26 32 35 37 33 38 13 35 39 37 37 38 38 38 39 41 42 45 44 42 42 43 43 43 45 47 48 48 48 48 48 48 49 51 52 51 50
50 53 54 44 40 30 34 30 33 34 32 35 36 25 35 36 38 36 36 37 40 41 42 43 43 42 40 40 41 43 45 46 47 48 47 47 47 49 50 51 49 48 49 51
41 44 48 45 40 38 37 30 25 27 25 23 26 23 25 34 35 37 38 39 39 42 42 42 43 38 38 39 39 41 43 44 45 45 46 48 49 48 47 48 49 50 52 55
38 41 43 43 46 42 35 31 25 23 22 23 20 22 23 25 29 37 36 38 41 39 39 39 38 35 34 34 37 39 42 43 43 44 45 46 46 46 46 49 51 54 57 58
32 32 33 36 36 33 29 25 21 20 19 21 21 21 21 20 21 23 25 27 29 32 34 34 29 29 31 34 38 40 41 42 43 43 42 42 45 47 49 53 55 56 54 53
29 27 28 30 34 27 27 28 27 23 22 21 22 23 24 26 28 28 28 28 30 30 28 27 29 33 38 40 42 43 43 41 39 41 44 46 48 51 53 53 52 51 53 57
24 26 30 30 28 28 25 23 29 28 25 24 24 25 25 25 26 24 25 25 25 28 31 35 39 41 41 41 42 40 38 40 43 45 48 50 52 51 49 49 51 55 59 62
26 25 22 24 27 27 24 21 21 22 24 25 25 24 24 24 25 23 25 29 32 36 40 42 41 40 37 35 36 39 42 45 48 50 51 51 49 48 50 53 57 60 62 64

GFSNW_500_spd_057.txt.gz
Wind_Speed
88 83 76 72 68 64 63 64 63 54 58 58 55 50 42 38 34 37 36 33 23 22 20 17 17 17 15 20 25 23 26 18 19 11 14 8 12 16 18 18 16 21 21 15
94 88 82 75 73 68 65 62 63 58 58 59 55 51 44 41 39 39 39 33 24 24 23 26 27 16 22 22 29 22 19 21 17 15 12 18 17 18 18 21 23 21 24 19
98 92 85 80 76 73 69 65 65 61 59 53 50 52 48 44 41 40 39 34 28 26 26 29 24 22 25 24 24 22 21 22 19 18 19 21 22 20 19 22 27 26 24 21
98 95 89 83 79 76 74 70 65 61 62 60 56 55 52 46 44 41 40 40 29 30 29 32 31 25 29 24 21 23 25 24 23 21 22 24 28 25 22 23 20 22 16 20
92 96 92 86 81 81 79 70 62 60 55 59 55 54 49 50 44 43 42 38 28 30 31 32 31 36 30 22 21 24 24 23 24 26 26 28 28 27 21 27 25 22 20 19
91 92 93 89 86 84 75 64 60 57 55 56 56 51 52 46 44 44 41 38 31 31 32 33 35 35 27 23 25 24 24 25 26 26 25 27 28 19 25 25 24 24 25 26
94 92 94 92 87 78 67 62 64 62 60 53 50 47 45 45 46 45 41 36 33 35 34 36 35 33 29 27 24 23 24 24 24 23 25 28 22 25 24 23 25 27 28 27
88 95 94 92 86 78 70 68 65 61 62 55 52 53 48 42 44 41 35 37 36 39 36 40 31 32 31 28 24 21 22 22 24 24 24 23 22 20 17 17 22 23 23 26
82 92 94 90 86 79 74 70 63 61 57 56 52 53 48 45 42 40 40 42 36 46 45 45 40 37 33 30 24 20 21 20 23 24 23 22 20 19 17 19 25 21 23 26
73 86 94 90 86 81 74 68 64 60 58 58 59 54 51 45 44 40 42 42 40 39 43 46 43 39 34 33 25 19 20 20 21 23 24 22 23 18 21 24 24 24 26 25
66 83 93 90 88 81 74 68 63 60 55 43 51 47 47 46 43 44 47 48 44 54 49 40 41 39 35 33 28 21 21 21 18 19 20 21 21 20 20 21 22 24 25 26
62 76 91 92 88 81 72 69 62 60 54 36 35 37 40 43 45 47 47 39 36 37 34 40 41 39 39 34 32 26 22 21 18 18 17 17 17 16 16 22 24 26 28 32
56 75 92 92 86 80 73 68 62 60 56 36 36 31 35 44 47 44 45 45 44 49 42 40 41 40 40 39 33 31 26 22 21 20 21 23 22 21 23 28 30 32 34 37
53 72 94 92 87 82 72 61 51 40 38 45 39 51 48 43 43 52 50 48 52 55 45 45 43 42 41 39 35 32 30 28 25 24 25 27 28 29 30 32 34 36 39 41
59 80 94 89 87 77 63 62 50 48 26 51 43 39 38 41 44 43 45 36 52 48 42 44 43 42 42 40 40 36 33 32 29 29 29 31 33 35 36 38 41 42 43 44
68 92 92 89 80 77 61 59 50 53 43 38 60 45 34 40 42 45 44 49 28 47 42 43 45 42 42 42 42 39 37 35 33 33 33 35 37 39 40 43 43 45 46 47
83 88 87 82 75 74 70 64 43 39 40 32 34 35 32 32 40 44 46 52 53 40 46 48 44 43 42 43 44 41 39 37 37 38 38 39 40 42 45 46 47 48 48 48
90 84 75 78 58 56 57 63 66 43 28 26 30 41 48 40 40 51 50 49 41 43 46 50 48 44 45 46 46 44 40 40 41 42 41 42 43 45 46 47 47 48 49 49
80 78 70 72 66 47 39 38 55 59 33 20 17 22 29 37 39 45 46 47 48 44 39 51 51 49 49 48 45 41 42 43 44 43 44 45 46 46 47 47 48 50 50 51
75 73 64 60 62 35 37 48 51 47 50 43 31 27 27 28 34 39 43 45 45 44 41 44 47 49 48 47 44 44 45 45 44 44 46 46 47 48 47 49 49 50 51 52
59 58 71 48 44 45 47 41 40 38 40 36 34 32 31 33 30 38 39 39 41 39 39 40 42 44 43 44 44 44 44 45 46 46 47 48 48 46 48 49 50 51 51 51
62 66 65 51 38 32 44 25 30 33 31 37 35 31 31 17 20 33 38 39 38 40 39 39 41 40 39 40 41 41 43 45 47 46 46 47 47 47 48 49 50 51 50 49
48 47 48 41 31 40 36 38 27 27 27 26 29 30 33 29 25 31 38 38 37 38 38 39 38 36 36 38 41 42 41 41 42 43 45 45 47 47 48 48 47 48 50 53
40 37 37 45 34 32 36 27 23 20 22 23 21 21 20 24 33 30 39 39 39 39 36 37 36 37 34 33 33 34 37 39 41 43 46 47 48 47 45 46 48 52 54 56
38 38 41 37 37 28 27 22 22 21 19 21 20 17 18 22 25 26 28 36 41 37 27 25 28 27 28 29 32 34 37 41 45 46 46 44 42 43 47 50 53 56 55 54
29 30 35 38 39 35 30 28 27 25 23 22 20 19 20 21 23 23 23 24 22 22 22 22 23 25 29 33 36 40 44 45 44 41 39 41 45 48 52 55 56 54 53 53
25 28 27 27 29 28 29 24 25 23 26 23 25 24 22 24 25 23 22 21 24 23 23 27 29 32 37 41 43 43 39 37 38 40 43 47 50 53 56 55 54 53 55 58

GFSNW_500_spd_060.txt.gz
Wind_Speed
99 94 87 82 78 75 71 68 66 61 62 66 59 53 49 48 38 41 39 38 37 31 21 19 18 17 21 23 25 24 20 22 21 15 14 26 26 20 15 16 16 21 21 19
100 98 93 87 83 79 75 71 68 69 62 65 60 55 52 47 41 43 44 41 38 31 24 23 20 17 25 25 27 23 20 21 22 19 14 16 23 22 18 21 23 23 25 22
90 100 98 93 88 83 79 75 75 72 67 59 60 59 55 48 41 44 44 40 40 32 27 26 22 19 24 23 27 25 25 25 23 20 17 22 24 22 22 25 26 25 24 23
83 94 100 96 91 86 83 82 78 72 66 61 60 63 59 52 46 49 48 47 44 32 30 28 27 20 27 27 28 34 33 28 23 22 22 23 25 26 24 26 27 27 22 19
57 91 98 97 94 91 89 84 75 71 63 59 59 62 61 55 46 50 50 47 41 33 32 30 28 22 28 27 26 31 30 27 27 27 25 26 27 30 29 26 25 28 26 22
44 80 95 99 97 97 92 82 71 69 65 60 62 58 59 52 49 46 46 44 41 37 29 29 29 28 30 30 27 29 28 29 27 27 27 28 32 29 30 29 27 30 28 26
43 58 93 97 99 95 86 76 71 70 67 62 58 58 55 48 46 46 44 46 42 31 29 32 31 31 32 32 30 31 31 30 29 28 30 33 24 26 25 26 26 28 28 28
43 48 84 96 97 94 86 78 74 69 67 62 59 59 57 49 44 45 44 45 42 36 38 35 34 32 36 36 33 31 32 29 28 30 28 28 24 25 24 24 25 26 24 23
45 42 66 91 96 93 87 81 73 67 64 62 58 57 55 51 46 46 52 49 46 41 39 34 36 34 35 37 36 33 30 27 28 29 28 27 22 25 23 23 26 22 20 22
43 40 62 86 96 93 86 80 72 66 59 59 56 53 54 48 47 47 48 46 45 39 37 41 39 36 36 38 37 29 29 31 29 27 28 26 22 23 25 25 20 21 23 24
41 39 60 84 94 90 86 77 70 63 59 57 55 56 51 50 46 43 44 46 45 42 43 38 40 40 38 39 37 31 31 30 27 26 25 23 19 22 23 21 22 22 23 24
36 48 69 79 93 90 85 76 67 64 59 58 52 53 55 49 44 36 38 43 40 39 39 37 43 46 36 39 39 36 36 31 30 27 25 22 18 14 17 18 19 20 22 25
43 65 71 79 89 86 81 74 67 62 58 52 43 41 48 49 48 46 44 43 40 40 36 35 39 40 44 36 39 37 39 36 31 29 27 24 20 18 19 21 22 24 27 30
52 60 63 77 86 84 79 71 65 61 60 49 35 30 36 45 44 46 47 43 43 39 40 42 41 33 42 34 36 38 39 40 34 32 29 28 26 24 24 25 27 30 32 34
56 51 59 77 87 85 79 74 61 59 56 51 32 31 35 38 44 43 43 43 37 37 43 43 39 36 35 35 41 41 41 40 37 35 34 34 33 31 30 31 34 36 37 38
46 46 62 84 86 81 72 56 56 55 49 43 44 34 35 29 34 33 33 31 43 43 45 37 41 45 46 43 41 40 39 40 39 37 37 37 36 34 35 37 39 40 41 42
41 52 74 85 82 75 74 61 55 47 39 32 38 44 35 28 33 29 34 39 44 40 38 42 40 40 43 43 42 41 39 40 41 40 39 38 38 39 40 41 42 44 44 44
47 63 81 82 79 62 57 51 47 51 39 27 37 40 37 33 32 29 29 32 35 37 39 34 33 45 43 42 45 43 40 39 41 42 42 42 42 43 44 45 46 45 47 48
55 71 80 79 77 59 53 37 38 44 34 32 19 39 36 35 23 19 25 25 32 33 33 35 37 38 40 36 45 43 43 41 40 41 41 43 45 46 46 46 47 49 48 49
68 79 78 72 70 52 53 48 44 41 34 32 28 20 20 22 21 24 28 33 37 40 41 41 43 38 35 38 42 51 47 44 44 44 44 46 47 46 46 47 48 48 49 50
77 77 75 71 52 34 37 36 40 43 36 30 33 18 7 14 19 21 27 32 36 39 44 46 44 44 42 39 39 43 49 45 45 47 47 46 46 47 48 47 47 49 49 50
66 63 60 53 35 26 28 31 35 37 38 39 34 29 27 25 27 24 27 30 34 41 40 43 44 41 40 39 39 41 39 40 42 42 43 46 49 48 45 45 47 49 51 52
68 65 37 39 28 23 27 22 25 23 24 27 28 28 34 31 24 22 21 26 31 34 38 40 38 36 36 37 37 33 34 37 41 45 47 47 43 43 45 47 49 51 52 50
54 41 43 24 36 18 19 25 22 22 24 27 24 21 23 24 25 27 25 24 21 30 34 31 30 29 32 32 32 40 42 44 46 43 39 40 43 44 47 49 50 48 46 49
57 41 38 29 19 18 22 29 24 19 16 17 18 19 20 22 20 29 32 31 32 29 33 36 35 34 32 36 37 36 32 29 32 36 39 43 47 49 48 43 43 46 50 55
45 45 39 32 27 19 18 16 22 22 18 18 18 18 19 20 20 21 28 30 32 36 39 41 36 30 28 23 23 25 28 32 37 40 45 48 44 41 41 44 47 52 57 60
37 35 35 29 26 33 28 23 23 21 22 21 20 19 19 20 20 19 21 23 23 23 25 24 22 20 22 25 29 32 34 38 42 43 40 40 41 43 46 50 54 59 61 61

GFSNW_500_spd_063.txt.gz
Wind_Speed
61 83 97 94 89 85 82 77 73 69 65 69 60 54 53 53 44 48 47 46 41 35 31 27 23 19 21 21 20 22 29 30 27 28 22 21 22 23 22 21 19 22 23 22
43 65 89 99 95 91 85 81 77 75 69 70 58 55 57 54 47 50 47 45 47 40 35 31 24 21 22 23 23 23 27 27 26 24 25 20 16 18 26 24 25 27 26 19
42 41 78 98 99 95 91 88 85 83 76 64 61 60 56 55 49 51 52 49 49 43 38 33 28 21 23 22 24 27 27 27 27 22 22 22 20 18 24 26 30 29 24 22
47 40 56 95 101 99 97 96 91 83 79 69 62 61 58 58 52 54 52 52 51 45 40 35 29 22 23 21 24 26 26 28 26 29 28 24 26 23 27 31 30 27 25 27
48 42 44 78 100 102 102 98 91 84 75 70 66 64 60 57 51 53 53 55 49 47 42 35 27 23 25 22 26 28 26 28 29 29 26 25 27 27 30 31 29 26 28 32
50 42 40 54 91 105 104 98 90 83 79 74 71 61 59 57 51 51 49 48 45 46 39 33 30 30 28 26 28 27 30 30 28 26 29 31 30 26 28 30 33 34 34 31
51 44 43 44 73 102 104 96 88 83 79 76 64 64 60 56 49 52 45 48 49 45 40 35 35 34 30 29 30 31 29 25 27 27 31 35 27 29 31 33 33 31 30 29
50 43 42 41 60 94 99 94 89 83 78 74 71 65 59 52 45 50 52 48 46 44 41 41 41 37 38 33 31 31 32 29 32 32 32 34 31 30 32 31 30 28 28 26
45 41 37 37 53 83 96 95 87 82 78 75 70 66 62 52 51 50 56 48 45 46 50 48 45 40 37 34 32 31 28 28 31 31 31 34 31 29 32 33 32 25 23 24
45 42 36 39 52 76 93 92 86 81 74 71 70 66 61 53 45 50 48 58 51 50 49 48 47 42 38 36 32 31 28 30 33 32 35 33 29 30 30 34 25 24 24 26
44 42 38 37 50 73 91 89 85 79 72 70 66 64 61 53 48 52 48 55 59 53 52 50 48 43 40 36 33 30 28 30 32 32 34 32 27 27 29 25 28 27 27 27
41 40 39 36 46 69 87 86 82 78 72 66 63 64 57 48 45 45 44 50 51 50 49 49 42 39 39 34 36 32 31 31 33 34 33 30 26 24 24 23 24 24 23 23
36 37 39 36 49 70 82 84 80 75 73 63 61 53 52 48 46 49 49 47 47 46 46 44 43 39 37 33 36 35 32 32 37 36 32 29 28 25 23 23 23 23 24 25
33 36 36 35 61 71 81 83 79 75 68 63 59 36 41 46 46 52 52 49 48 44 44 42 40 39 34 35 32 36 37 36 38 36 36 32 33 29 27 26 27 28 29 30
36 37 33 51 77 65 81 79 76 75 69 57 50 41 34 37 46 48 48 45 42 43 45 44 44 39 38 36 37 31 40 30 37 33 33 37 35 34 31 31 32 33 34 35
36 36 59 61 63 76 78 80 77 67 57 50 43 44 32 35 38 48 45 45 43 41 44 41 44 38 42 41 37 34 33 33 34 35 37 39 39 38 38 37 37 37 38 38
58 57 53 50 62 76 80 77 70 69 51 24 49 38 33 34 38 42 44 42 43 44 40 37 38 44 41 35 36 38 39 38 37 40 41 41 40 41 41 41 42 41 41 43
60 58 58 58 69 79 78 71 63 62 56 46 43 37 35 36 34 33 39 42 38 37 39 47 36 30 29 39 38 43 44 42 42 40 40 40 42 43 44 44 44 44 45 47
40 49 51 65 75 74 63 48 42 45 49 43 40 29 29 34 25 23 35 34 36 34 28 34 33 41 40 37 40 40 44 41 37 38 38 42 45 46 43 41 43 45 46 47
37 46 59 68 70 66 52 45 43 40 38 42 23 28 29 33 29 31 31 32 34 38 34 32 31 28 30 25 27 32 36 37 39 44 46 45 40 42 44 44 45 47 48 49
44 52 65 70 71 68 51 44 37 40 49 32 18 22 24 31 31 26 26 23 27 29 31 35 35 32 32 36 37 36 37 38 36 37 42 50 54 50 47 48 47 47 48 50
54 63 72 60 55 45 36 35 30 44 36 20 21 27 23 18 9 10 12 14 18 26 30 33 37 34 32 33 36 37 38 38 38 39 42 46 45 40 46 43 45 48 50 48
64 65 66 52 46 32 24 20 27 36 23 28 35 27 13 9 12 13 16 20 22 25 28 30 28 27 29 31 32 34 37 39 39 38 36 31 43 46 48 49 48 45 45 48
65 66 51 33 23 17 15 17 21 17 19 19 21 22 20 16 17 19 20 21 24 23 22 16 17 22 24 27 29 31 32 34 34 34 37 41 47 48 45 40 42 45 49 52
50 53 41 37 18 12 17 17 19 16 13 14 15 15 15 16 16 14 18 25 28 30 24 22 22 24 26 28 30 29 30 32 37 43 45 40 34 34 38 43 47 50 48 46
17 38 18 29 21 12 15 20 19 15 15 11 9 11 13 14 17 18 19 17 19 26 30 31 28 29 30 31 33 31 35 36 31 27 29 33 37 41 44 46 46 46 47 50
34 24 27 26 14 4 10 14 10 10 11 9 10 11 14 16 16 15 17 19 21 23 25 26 26 27 26 25 23 22 24 26 28 33 37 40 43 44 45 46 47 49 52 55

GFSNW_500_spd_066.txt.gz
Wind_Speed
51 50 62 77 83 89 87 83 79 71 69 70 67 60 53 50 46 46 45 44 43 38 37 35 32 26 21 21 19 18 19 23 26 24 30 34 34 32 27 27 24 22 20 16
55 56 53 63 82 88 90 87 82 80 76 76 65 61 57 54 50 48 47 47 45 43 40 39 33 26 23 24 21 21 22 23 23 22 26 31 36 30 31 34 29 31 27 15
56 55 55 56 61 84 90 91 91 90 82 71 67 64 61 55 51 50 50 50 49 44 42 41 34 28 27 26 22 23 25 24 21 18 16 19 27 29 24 26 29 22 18 20
60 56 51 52 52 63 87 96 97 90 86 78 67 66 63 57 53 52 53 49 52 47 44 43 37 29 27 27 26 27 27 26 22 22 23 25 27 26 29 29 25 24 19 23
58 61 55 46 47 55 67 94 98 91 82 74 74 72 65 59 55 53 55 51 49 48 44 42 37 30 30 29 27 27 26 26 22 25 26 28 29 26 31 31 30 26 27 26
54 61 58 54 52 49 62 83 95 92 85 83 81 69 64 60 52 55 51 49 45 50 46 38 35 34 34 34 31 28 28 28 27 27 25 28 27 19 26 28 29 30 30 28
51 54 60 60 52 42 41 53 91 93 90 87 76 72 67 62 51 52 49 48 48 47 42 44 43 37 36 36 33 31 29 29 30 30 27 32 17 20 22 26 27 31 33 31
54 54 57 57 52 44 36 40 73 94 91 87 80 77 70 67 54 52 45 48 46 46 51 47 47 43 41 41 36 31 30 29 32 32 28 29 20 20 24 27 27 30 28 29
54 51 53 55 50 41 37 34 58 89 93 88 81 80 74 68 55 55 48 48 47 47 50 51 50 45 45 43 38 31 30 32 33 33 33 29 20 24 25 28 26 27 26 28
51 47 51 54 49 43 39 36 58 83 91 88 86 80 74 71 55 54 49 45 53 47 48 54 54 50 46 46 39 34 32 32 32 30 33 28 24 24 26 28 27 27 27 29
47 45 49 51 46 43 40 39 64 80 88 87 85 82 75 70 58 52 48 49 55 60 56 54 51 53 52 46 40 35 33 31 31 29 32 29 21 24 26 26 26 26 26 27
44 42 47 45 42 36 38 48 68 80 86 87 83 79 73 66 57 52 44 45 52 53 56 53 47 48 47 43 40 36 35 30 29 31 30 27 26 24 27 27 25 24 23 21
41 43 43 38 32 32 37 53 65 79 82 81 80 74 70 65 54 52 47 49 56 57 53 50 47 48 47 45 38 33 36 31 31 34 29 26 27 27 30 29 26 26 25 23
40 41 38 33 29 26 54 58 68 79 81 72 74 71 61 56 54 48 49 47 53 54 52 50 52 47 46 45 36 36 34 35 31 33 32 28 30 31 35 32 30 30 29 28
39 37 33 30 31 33 60 65 69 74 78 71 56 52 49 48 48 48 51 48 53 51 48 45 42 45 49 46 40 37 34 30 27 23 29 36 29 35 35 33 32 35 34 34
33 31 31 32 28 41 64 66 65 69 67 65 59 40 38 35 39 50 46 46 48 50 46 45 45 44 44 43 39 35 35 32 29 34 33 34 29 32 36 33 34 37 38 40
27 27 31 29 32 52 55 60 64 47 38 45 46 52 33 28 37 46 46 47 48 46 44 46 47 47 43 37 35 35 36 38 34 34 32 35 33 34 37 39 39 40 40 42
26 32 30 28 51 60 56 62 66 56 53 35 37 42 42 34 34 36 39 46 48 45 50 42 35 37 40 40 30 34 35 37 37 36 36 39 37 41 41 42 44 43 42 44
29 26 40 60 51 42 46 66 74 66 57 46 40 38 46 32 35 31 21 30 43 43 44 41 40 39 39 31 33 33 26 33 39 38 37 43 47 45 41 42 47 42 48 52
47 62 46 39 38 38 57 50 55 55 49 42 46 43 44 32 31 29 24 25 33 38 40 40 37 33 28 35 42 39 36 37 37 34 37 42 45 44 42 38 44 51 48 50
45 44 41 46 46 44 53 51 52 60 49 30 41 37 31 29 31 31 22 21 30 34 34 33 33 25 23 25 27 32 34 31 26 26 37 41 37 39 42 43 45 48 48 46
36 34 37 52 60 48 48 40 45 49 46 40 32 29 26 23 26 27 29 26 33 34 31 33 33 27 24 25 29 34 35 36 38 38 40 41 40 40 40 42 42 37 49 51
45 43 47 53 51 43 42 38 34 40 43 35 27 24 29 23 18 29 30 25 22 20 22 24 23 22 24 26 28 32 35 34 34 36 36 36 36 38 40 36 41 47 46 49
53 59 56 51 38 36 35 32 26 26 36 32 14 24 26 8 9 9 7 10 16 18 19 18 18 19 21 23 26 26 27 29 28 28 30 31 34 35 36 43 48 48 47 42
59 55 48 43 32 30 31 25 19 33 24 24 27 24 9 8 7 6 9 12 15 16 17 17 21 22 18 18 20 21 24 25 27 28 31 33 37 38 45 46 44 39 41 46
57 45 31 21 20 18 21 22 22 23 21 21 22 12 8 6 7 7 8 10 11 14 16 16 14 21 26 29 28 26 25 26 30 33 33 39 42 40 40 37 40 44 48 50
39 23 16 11 15 24 16 20 23 22 20 16 12 9 8 6 7 9 10 12 15 16 17 19 21 22 24 25 25 26 27 28 27 30 30 30 32 35 39 43 47 49 51 53

GFSNW_500_spd_069.txt.gz
Wind_Speed
52 53 50 50 46 60 79 82 84 80 77 76 72 67 60 56 51 48 45 43 42 41 42 41 37 32 25 23 23 20 18 21 22 21 25 27 28 29 32 33 30 31 26 20
51 54 54 51 51 50 66 81 84 85 83 82 73 66 65 60 53 51 45 44 43 41 40 38 36 34 30 28 27 22 20 20 19 23 25 24 28 25 29 32 34 33 33 31
52 51 55 56 52 52 55 72 85 89 88 79 73 71 67 62 56 52 49 45 44 43 41 38 35 34 29 27 28 26 27 22 18 17 15 20 24 21 25 31 30 28 26 21
57 54 56 59 57 56 54 57 78 85 90 86 75 71 69 65 60 54 52 48 47 45 43 40 36 32 30 29 29 31 29 25 20 16 19 23 22 21 25 27 25 30 19 16
60 56 57 62 62 62 60 55 63 81 87 79 82 78 72 67 63 54 52 49 46 46 46 41 39 35 34 34 31 32 32 28 22 20 20 22 22 22 25 25 24 29 24 17
60 58 57 62 66 65 56 50 52 67 86 86 85 78 71 66 64 55 54 48 44 47 44 39 42 42 39 38 35 33 34 30 24 24 24 24 22 16 21 24 24 25 24 20
66 60 58 62 62 58 51 44 50 54 81 89 83 77 74 69 65 54 55 48 46 47 41 43 43 45 44 41 38 36 35 33 30 29 29 32 13 18 20 21 20 21 22 23
67 63 57 62 59 60 51 44 43 44 60 81 81 82 79 75 71 57 55 45 44 44 43 47 45 43 42 43 42 40 35 32 32 33 29 27 17 14 19 22 14 18 23 24
70 62 57 60 60 59 49 44 39 37 45 72 84 85 82 78 73 62 55 48 46 49 53 51 48 52 47 42 41 42 39 34 34 34 34 28 12 19 23 25 11 22 20 22
69 60 54 59 56 57 51 45 38 33 34 56 85 88 83 80 77 64 57 50 50 49 54 55 51 54 52 47 41 41 40 35 35 33 33 28 17 20 23 26 20 22 22 23
63 56 54 57 54 54 52 47 38 29 24 48 78 88 87 83 78 65 57 53 49 49 53 56 53 50 51 49 42 39 39 36 33 33 34 29 19 23 24 24 23 23 23 23
57 54 54 53 52 51 49 47 37 30 25 47 43 88 86 82 79 68 58 50 49 49 48 53 51 47 42 45 47 40 40 37 34 31 31 28 22 23 24 25 26 25 24 23
53 49 47 48 48 48 48 43 35 30 25 47 37 58 86 83 78 66 59 50 48 49 45 43 50 47 42 38 44 49 44 35 38 32 26 29 27 24 26 28 31 29 27 26
47 44 44 44 44 45 42 37 36 33 33 45 46 32 54 78 80 60 56 50 47 49 49 48 46 49 47 41 37 38 42 42 40 35 28 29 31 30 30 32 34 32 30 29
42 41 40 39 40 40 38 38 36 32 43 40 45 45 44 48 57 64 52 50 50 45 49 52 49 45 42 41 40 39 40 39 37 32 28 37 28 28 35 37 37 33 31 30
37 35 35 35 35 33 33 34 34 53 50 31 40 40 40 35 39 50 54 47 48 49 48 48 46 44 43 41 39 40 40 37 34 32 34 33 29 27 27 33 32 31 33 34
32 33 33 32 29 29 28 30 41 59 41 39 40 32 34 30 33 39 49 49 46 48 47 43 40 42 41 38 40 37 36 37 39 38 39 34 29 30 31 34 34 36 37 38
29 30 29 27 26 21 41 41 39 59 40 49 35 36 33 30 35 35 40 44 45 42 44 42 38 38 38 39 34 34 32 36 40 40 37 33 33 35 31 35 37 38 40 41
25 26 27 26 23 36 43 38 42 51 42 55 39 44 40 28 32 37 36 37 41 39 37 38 38 37 36 37 35 35 36 34 36 34 24 27 33 39 36 38 42 42 47 47
21 24 24 21 33 52 44 41 55 45 40 37 46 45 40 30 29 38 29 34 38 37 34 36 35 33 37 38 33 33 35 29 31 24 26 34 38 38 41 46 47 44 48 44
25 26 18 32 50 44 34 39 43 57 46 46 41 46 44 31 25 30 32 19 31 26 27 30 30 30 31 35 36 35 31 34 34 38 35 31 27 27 33 36 41 45 42 42
33 41 40 41 49 47 37 39 43 47 45 44 40 40 45 38 29 26 19 17 17 30 20 25 27 27 29 33 29 27 27 26 29 31 32 34 35 36 36 39 42 43 38 37
41 38 32 39 53 47 48 50 53 36 30 32 30 32 34 32 20 20 20 22 23 23 22 25 23 27 29 27 29 28 28 29 33 34 37 38 37 36 36 37 38 39 38 38
28 34 49 51 42 28 43 49 44 38 35 37 36 33 27 23 19 13 16 21 34 33 21 18 18 20 23 25 26 26 27 29 29 30 31 33 36 37 37 36 36 35 36 43
24 39 42 37 33 31 31 33 37 31 32 32 26 25 24 21 13 16 13 12 15 18 18 15 14 16 22 23 21 20 20 22 25 29 31 33 34 34 35 36 37 40 45 44
43 36 32 34 34 33 29 26 24 27 30 31 25 21 20 15 16 16 13 10 9 13 17 19 18 17 21 26 28 28 26 28 29 31 31 32 33 36 38 39 38 39 41 42
43 39 37 31 30 30 25 21 21 28 31 25 21 23 21 21 13 11 12 14 16 16 17 18 18 18 19 21 25 28 29 29 28 28 28 30 34 36 36 35 36 39 43 48

GFSNW_500_spd_072.txt.gz
Wind_Speed
46 47 46 48 47 48 50 46 63 68 77 81 82 72 64 66 63 56 49 48 45 46 45 36 35 33 26 28 29 27 23 27 25 21 22 24 27 28 27 28 26 28 30 26
58 51 48 45 50 48 52 47 48 58 69 83 81 66 70 69 64 57 52 49 45 45 43 42 41 36 30 30 31 29 26 29 27 25 24 24 25 24 27 27 28 30 28 23
64 60 53 50 49 52 53 54 51 50 68 79 77 78 73 70 65 59 56 51 46 45 43 46 42 37 40 32 33 32 30 31 28 24 18 21 24 25 25 26 30 27 27 16
66 66 61 56 53 54 57 57 50 41 68 81 83 79 74 73 69 61 56 54 50 46 44 44 42 38 35 33 35 33 37 36 28 23 22 24 22 23 23 27 24 28 19 20
66 67 66 61 58 57 60 56 50 43 48 73 83 85 82 76 69 61 56 55 50 46 46 44 43 38 34 37 37 37 38 36 30 28 24 23 24 22 24 24 25 23 21 20
62 64 63 66 65 64 60 53 52 46 36 64 82 87 80 75 71 63 58 54 47 46 44 41 33 41 38 40 41 38 37 36 33 30 25 26 25 19 21 23 23 23 23 19
58 66 68 67 68 64 54 51 50 45 35 50 73 83 83 79 74 67 62 59 52 52 44 45 32 40 38 43 42 41 39 34 33 32 30 36 16 17 20 21 19 20 20 20
48 61 69 72 69 62 55 53 50 45 40 31 58 82 85 83 79 72 63 57 51 46 42 44 48 41 46 45 43 42 39 36 35 37 32 30 19 17 18 21 19 20 23 25
48 50 57 53 66 61 57 53 49 47 45 35 32 66 85 85 81 75 65 62 52 48 48 50 47 47 43 42 47 44 41 38 37 36 36 34 16 16 19 23 15 20 28 24
50 50 50 53 62 58 56 50 48 48 40 40 41 50 71 84 82 76 69 62 55 51 52 53 53 48 52 49 41 46 48 44 42 38 38 33 22 19 22 27 15 29 27 27
54 46 48 55 59 57 54 46 47 41 39 40 40 38 58 74 83 79 71 62 57 52 51 52 51 53 50 50 48 40 40 35 38 42 40 37 21 24 25 23 27 28 28 27
50 44 44 60 56 55 51 48 46 41 38 35 35 40 45 51 67 68 62 61 59 57 55 55 53 49 51 49 53 51 50 40 33 33 37 35 31 27 24 25 27 28 29 29
47 46 57 59 55 52 49 46 45 40 31 26 26 35 46 49 37 73 68 63 58 54 48 46 44 44 45 47 46 46 46 45 41 39 35 34 39 29 26 26 26 29 31 34
49 57 59 56 53 49 45 44 43 37 28 24 20 33 42 54 40 64 71 66 59 55 52 47 47 45 40 44 41 42 40 46 45 41 36 30 33 32 32 33 34 35 38 36
59 57 55 53 50 46 43 41 41 36 30 16 28 26 25 37 61 64 67 65 59 52 55 51 49 45 40 38 42 39 38 35 37 41 39 41 41 37 37 36 36 33 39 39
51 51 49 47 45 43 42 44 43 40 28 21 32 32 23 16 31 49 62 58 60 51 50 50 48 43 41 38 35 33 35 36 35 33 34 37 37 37 40 37 31 29 28 32
46 44 43 41 38 38 41 38 34 31 27 20 33 27 23 17 20 31 48 58 54 52 48 47 40 40 40 39 35 30 32 32 32 33 38 37 38 38 36 34 35 38 36 37
39 38 36 36 39 38 38 33 30 23 27 37 42 37 36 27 30 29 36 49 52 55 49 46 43 36 34 34 28 28 29 27 25 31 35 37 36 37 41 40 39 41 41 39
38 37 37 36 34 31 29 29 22 36 46 48 40 35 26 33 31 32 33 40 50 48 48 43 39 37 35 32 26 23 24 27 32 33 34 29 32 37 40 37 37 37 40 40
32 31 30 29 27 25 26 24 52 48 52 43 45 45 30 27 32 28 29 36 49 46 42 37 36 31 31 32 29 26 26 31 34 33 34 32 29 29 33 33 34 37 40 37
25 25 25 21 25 29 27 57 56 51 35 26 28 32 36 28 33 32 37 31 33 37 37 34 31 29 30 31 28 26 33 33 32 33 31 31 30 35 34 35 33 31 32 35
27 25 18 30 41 35 40 52 56 42 35 24 33 28 35 28 36 29 34 32 34 34 34 36 34 33 32 31 30 34 35 33 32 32 33 30 29 29 31 33 36 36 37 40
16 17 29 46 39 42 54 46 43 35 29 30 28 26 24 27 29 33 29 26 30 23 30 32 26 20 23 26 31 29 28 29 32 29 31 32 31 34 38 39 39 37 36 37
19 24 43 43 38 46 62 42 36 33 25 30 24 24 22 21 15 23 23 17 18 20 16 23 15 17 19 22 24 27 27 29 33 31 31 34 37 37 37 37 36 37 39 39
28 36 43 41 28 36 52 42 37 35 33 36 28 22 27 24 18 17 10 11 22 21 19 20 20 18 21 23 23 25 26 28 29 31 30 30 30 32 34 36 38 39 40 42
41 41 37 28 25 31 39 29 28 34 31 28 26 26 24 21 16 13 14 10 15 19 20 22 23 19 18 17 18 22 24 24 25 27 28 29 32 35 38 40 41 43 44 46
37 34 28 25 27 30 25 24 30 36 34 31 27 23 20 12 7 10 17 16 15 13 14 16 16 18 20 20 18 22 26 29 31 32 34 35 36 37 38 38 40 42 45 45

GFSNW_500_spd_075.txt.gz
Wind_Speed
47 45 48 49 47 45 46 46 45 45 44 52 65 75 67 67 68 65 62 66 52 50 49 51 47 44 33 31 35 39 34 32 32 26 24 23 18 22 22 24 22 24 24 24
53 50 51 51 48 48 49 49 45 43 46 45 60 70 74 76 72 67 64 67 53 47 48 52 47 45 37 32 36 40 35 40 35 26 29 25 24 23 22 23 26 27 27 24
60 56 52 54 55 52 54 54 49 48 46 48 41 67 78 81 73 68 65 62 53 49 52 50 44 29 36 31 35 33 37 37 35 31 22 21 22 24 26 26 29 26 27 23
64 61 59 53 59 59 60 58 48 41 43 39 32 53 73 80 75 70 69 65 54 49 51 48 52 40 39 38 39 38 39 38 35 31 29 23 21 23 25 26 25 28 19 22
69 67 66 61 57 63 67 61 48 43 42 40 42 40 60 79 76 73 70 64 55 53 49 51 47 53 48 47 42 40 41 38 36 36 35 29 30 25 25 23 22 23 23 22
70 69 71 71 67 71 74 61 49 47 41 42 46 38 55 72 76 75 72 63 57 52 46 50 49 40 43 39 47 49 40 41 38 40 33 31 38 23 28 22 23 23 23 22
48 52 61 72 75 77 71 61 54 52 46 43 38 37 44 63 78 77 70 64 59 50 45 45 41 45 40 41 40 49 47 42 38 38 38 42 33 25 22 23 23 22 22 23
44 46 57 66 71 76 74 67 58 54 47 41 40 35 38 51 64 78 75 65 60 56 53 51 47 44 34 41 40 47 44 41 39 40 39 35 33 28 22 23 24 23 25 25
43 41 55 59 60 68 70 66 57 54 48 35 37 36 35 46 64 73 77 69 59 57 56 49 46 43 39 43 40 41 46 47 38 37 39 41 32 25 22 23 21 20 26 28
45 40 47 56 53 61 66 63 59 54 47 43 41 40 34 33 46 68 72 70 63 57 51 49 50 47 45 43 46 29 47 44 46 41 40 37 29 26 25 32 13 27 26 30
46 40 46 53 49 54 58 59 57 54 47 45 46 44 35 31 37 47 66 67 67 53 53 50 51 49 47 48 46 49 42 40 42 37 40 38 30 23 27 23 29 31 30 31
47 45 43 54 50 51 52 60 57 49 46 44 45 38 34 34 29 33 47 62 58 53 47 49 47 49 48 49 53 44 43 37 40 41 40 37 37 32 31 29 27 30 32 35
51 46 45 53 51 50 55 59 53 49 48 45 41 40 34 35 32 36 45 53 57 54 51 56 52 47 44 42 43 44 48 43 41 39 36 35 30 26 31 33 31 33 34 35
46 45 44 55 52 51 56 55 47 45 42 40 34 33 30 33 38 37 42 48 59 55 52 57 49 46 42 43 39 41 44 44 45 45 41 40 40 32 34 36 42 42 37 35
51 42 48 53 43 49 53 46 41 41 39 34 29 27 28 34 40 37 35 45 52 56 54 52 43 43 46 48 44 41 37 40 44 39 35 39 40 42 35 35 36 40 40 41
45 45 52 47 45 49 42 41 42 41 39 29 26 26 29 38 41 41 38 45 52 52 54 49 50 47 46 46 43 36 32 36 36 32 33 31 33 35 40 42 36 40 41 45
42 50 51 43 39 40 42 42 39 39 31 24 21 23 20 44 47 43 40 41 44 50 46 51 46 48 46 41 40 27 28 29 32 34 32 31 34 36 36 36 37 38 42 44
48 45 42 42 45 43 39 36 36 35 29 23 16 28 24 38 47 41 36 33 35 41 46 46 43 43 42 45 33 29 31 26 24 26 30 33 35 38 40 39 39 41 42 44
43 45 45 42 37 36 35 34 36 34 30 26 17 28 22 27 41 42 36 36 36 39 51 52 39 36 42 36 26 29 28 26 27 29 31 34 38 39 38 36 36 38 41 45
45 43 41 39 36 34 33 33 33 31 26 22 30 27 32 41 38 40 36 29 35 43 48 53 54 37 35 37 26 24 24 23 25 28 34 36 36 31 30 33 34 37 39 40
36 34 33 33 31 31 33 31 32 27 26 42 37 20 35 35 36 37 33 29 32 40 48 47 49 48 39 32 27 25 26 27 28 29 30 33 33 32 32 34 35 38 38 37
31 30 30 30 30 30 28 26 28 26 42 44 31 26 29 44 39 37 28 31 31 39 42 43 44 41 38 32 28 25 25 29 31 32 33 35 36 33 34 35 36 36 34 35
29 30 28 27 27 27 28 28 30 40 46 27 24 29 32 39 36 40 35 27 30 36 40 38 34 31 31 30 28 30 32 34 35 34 36 37 33 31 31 33 35 35 35 37
22 18 21 27 26 26 33 36 39 40 44 28 40 33 31 32 32 36 36 27 19 26 35 33 32 33 30 29 31 31 32 34 34 33 31 29 31 31 31 35 37 38 38 39
21 26 27 24 21 16 26 42 32 27 30 32 30 25 19 16 34 40 29 28 34 28 24 22 27 29 27 26 26 27 25 25 27 27 29 31 32 33 35 37 37 36 37 39
28 29 27 25 22 28 35 39 31 21 30 24 22 19 12 13 21 18 17 21 26 24 23 20 25 26 22 20 23 25 24 28 30 29 30 31 32 31 30 31 35 38 41 43
30 24 27 27 32 31 36 26 23 23 21 18 15 19 10 13 16 13 16 14 20 24 22 21 20 21 22 22 21 21 21 24 27 27 28 29 31 33 36 38 40 41 42 44

GFSNW_500_spd_078.txt.gz
Wind_Speed
36 35 35 36 37 39 41 45 43 40 43 46 44 33 22 24 60 70 60 56 55 45 35 42 32 48 42 47 43 42 44 33 34 34 33 30 27 24 24 29 24 18 24 19
38 39 40 40 40 42 45 48 45 40 43 43 41 34 29 28 50 68 62 64 51 37 46 45 47 47 41 46 48 46 43 47 32 33 28 36 33 26 22 21 19 29 29 28
45 46 45 45 44 43 48 53 49 43 42 36 37 39 35 39 35 58 60 59 57 44 46 34 49 46 45 45 50 50 44 47 48 41 36 27 31 26 30 26 26 24 27 24
53 51 50 49 48 49 54 58 54 49 44 37 36 32 37 37 30 47 62 66 60 38 43 26 44 48 46 41 50 52 46 46 46 45 42 24 25 24 29 32 31 30 23 22
57 57 55 54 52 52 59 61 50 52 51 44 38 34 32 35 36 33 57 72 56 46 33 47 44 40 42 39 50 54 50 52 41 43 40 38 34 26 24 27 30 29 27 24
65 66 66 63 60 57 61 60 53 57 53 48 39 36 34 32 32 32 43 65 64 47 36 30 32 39 40 33 41 55 46 45 43 47 39 40 45 33 32 31 29 25 25 23
74 75 74 71 69 66 64 61 57 64 58 52 41 39 35 37 34 27 40 58 66 53 28 25 32 28 34 46 41 45 52 44 44 37 42 51 42 42 40 40 28 26 25 25
67 69 70 71 74 73 71 65 65 65 58 50 49 41 38 36 32 32 37 51 65 64 54 36 34 32 38 40 50 43 40 50 47 49 45 45 44 35 35 29 27 27 23 25
45 45 46 47 52 62 71 71 65 64 59 52 50 44 40 34 33 32 32 48 52 65 57 46 51 33 37 37 45 50 40 44 48 37 49 45 41 36 31 29 36 21 26 30
50 46 44 43 44 49 53 64 64 66 62 54 48 47 40 33 33 32 25 43 54 54 60 54 40 39 45 42 37 45 50 45 48 54 46 43 39 30 29 38 30 19 30 25
54 52 49 46 44 50 53 59 62 65 63 54 48 43 33 33 34 29 25 41 55 56 56 54 51 37 40 38 40 40 39 39 43 43 47 44 29 31 36 27 24 33 33 31
54 50 50 50 46 46 56 63 58 62 61 54 40 42 33 36 30 27 30 35 42 55 57 51 51 46 35 40 40 38 43 31 34 41 35 37 37 34 30 34 39 36 37 33
52 46 44 44 44 45 60 54 56 61 54 45 31 34 38 31 30 29 25 34 37 43 53 53 54 48 44 38 41 41 42 35 30 34 37 31 29 32 32 33 33 39 42 34
47 42 43 41 42 51 58 54 58 61 51 44 29 32 36 37 35 28 30 32 46 44 53 58 50 43 42 38 38 39 39 39 41 39 33 32 28 37 22 29 32 30 33 41
42 42 37 43 48 47 49 47 51 48 44 42 34 36 34 34 34 29 31 34 43 47 46 53 51 40 41 40 38 39 35 37 45 43 39 39 38 38 35 35 34 35 38 37
45 42 38 48 47 45 46 48 47 45 44 39 40 34 27 28 30 32 33 40 46 45 32 51 57 47 43 43 40 39 41 37 35 37 38 40 42 38 43 43 39 37 39 39
39 42 46 41 44 42 40 40 44 44 41 37 32 31 28 27 29 35 39 46 58 52 34 46 50 49 45 43 42 33 33 29 32 36 32 30 33 37 32 29 29 31 35 39
38 46 51 46 43 40 39 40 39 38 36 33 30 28 26 29 31 38 47 56 60 58 45 48 45 39 44 46 37 26 28 32 29 30 24 27 31 29 26 30 34 37 38 38
49 46 43 43 43 41 38 37 37 36 37 32 25 22 22 14 22 46 48 54 58 52 50 38 39 40 40 41 34 28 27 31 30 30 27 23 27 31 33 36 38 39 40 40
43 42 41 39 38 39 36 34 36 38 35 32 24 18 18 20 27 38 40 49 43 46 43 41 40 33 42 37 32 27 32 32 28 27 29 30 30 33 36 38 38 34 32 34
39 43 42 39 38 36 35 35 36 33 32 26 22 17 19 24 38 39 38 50 43 44 47 44 47 37 34 37 28 28 23 24 28 29 29 30 32 33 34 38 39 36 35 37
37 36 37 37 35 33 31 33 34 32 27 20 17 18 17 25 38 41 42 41 41 34 36 38 41 49 46 34 21 28 25 23 25 29 31 33 35 36 37 36 34 33 34 36
32 30 30 30 29 29 31 32 27 23 19 13 17 16 21 30 35 39 41 41 31 22 30 38 38 38 42 44 39 30 23 24 29 33 36 38 39 38 36 36 36 35 29 38
27 26 24 23 24 24 24 24 24 23 21 14 17 18 28 22 34 33 31 24 31 26 28 33 34 33 30 30 30 31 31 33 35 38 40 39 39 39 37 35 33 32 34 32
21 20 20 20 19 20 17 16 21 25 22 22 21 21 24 22 36 33 28 19 28 34 23 32 31 28 27 27 28 31 34 35 37 38 37 35 33 30 28 30 33 35 41 43
17 15 16 15 13 17 11 31 35 27 24 26 20 19 15 14 16 32 36 30 28 26 21 23 25 27 30 31 28 29 30 30 30 27 24 26 26 30 35 40 41 38 37 37
22 23 26 18 14 20 38 34 28 25 28 29 23 17 12 11 19 29 28 29 26 19 18 18 20 23 26 27 28 25 24 24 23 25 26 28 31 35 35 34 35 36 39 42

GFSNW_500_spd_081.txt.gz
Wind_Speed
36 37 35 32 30 29 27 29 27 26 31 36 32 23 26 21 21 23 52 55 58 51 43 48 43 32 34 44 37 39 39 38 44 42 40 35 29 29 31 31 24 28 27 20
28 29 30 32 31 28 35 39 37 36 35 34 33 32 30 27 27 26 30 44 52 63 55 56 43 35 27 32 38 39 37 35 50 42 46 39 37 32 30 34 32 34 29 19
31 32 33 32 32 36 42 42 40 40 39 32 29 29 25 26 27 30 25 18 55 50 66 48 37 44 37 31 38 42 42 38 44 51 45 42 40 38 34 33 35 26 25 27
32 33 34 35 37 42 47 46 44 42 42 36 33 29 23 22 23 30 29 16 50 58 56 52 38 32 26 45 37 37 38 38 42 51 44 42 43 34 28 34 34 33 20 25
41 42 43 43 44 48 55 52 48 44 43 42 40 34 28 28 23 28 23 24 41 64 47 43 41 41 36 41 40 41 42 39 39 55 46 50 36 37 27 26 29 35 35 29
46 48 49 50 53 58 60 55 50 50 46 44 41 37 37 32 25 28 28 30 24 62 65 50 43 37 34 26 38 41 44 41 41 55 58 46 49 39 35 29 27 26 32 33
49 50 50 51 52 59 63 60 56 56 47 44 42 40 38 39 31 27 26 27 24 44 58 60 54 57 37 28 38 39 36 38 43 51 55 61 56 46 38 34 32 28 30 31
56 58 59 60 60 59 59 59 62 59 53 47 43 44 44 44 36 29 29 27 21 55 57 58 58 47 27 36 34 35 40 54 49 51 48 55 57 52 47 38 38 36 36 27
69 69 69 70 69 67 67 62 59 59 56 56 49 48 48 41 35 32 29 25 20 45 65 66 64 53 11 34 35 41 37 45 59 61 60 55 46 44 48 49 45 39 31 32
47 48 48 46 48 55 66 68 64 61 59 54 53 54 49 42 39 32 29 27 25 36 69 61 67 63 31 16 35 26 46 46 45 44 46 50 37 41 47 49 44 29 29 34
55 53 51 49 47 45 47 47 58 65 64 57 54 53 48 43 38 33 25 30 31 31 62 64 64 63 39 25 23 32 33 44 40 41 40 35 32 42 42 43 41 32 34 35
57 58 56 52 49 43 42 43 47 61 60 60 56 52 33 38 34 30 31 26 25 24 53 65 67 55 36 30 28 28 32 39 44 44 44 40 42 41 40 33 39 38 43 47
35 40 49 57 52 43 37 33 37 60 55 50 55 51 48 37 29 25 25 24 21 20 32 45 53 64 61 41 30 30 30 31 36 48 39 41 37 42 39 37 28 33 41 43
32 31 42 51 51 45 40 39 36 55 49 46 47 43 43 32 32 30 28 24 22 23 44 32 43 45 55 53 32 27 33 34 31 37 37 38 41 33 32 33 36 33 32 32
29 36 43 47 47 43 39 36 40 46 45 42 40 40 46 34 33 27 26 25 20 22 48 47 46 39 45 52 51 43 34 34 31 37 35 33 30 39 39 35 23 27 33 32
36 43 44 43 42 43 42 39 46 48 45 39 45 42 40 39 40 37 33 28 22 21 37 55 54 40 42 50 43 40 35 35 33 31 36 35 33 29 31 27 28 30 30 32
42 41 43 40 39 38 36 46 40 44 47 43 44 40 39 38 38 33 33 32 28 22 35 46 45 39 44 40 39 37 39 36 36 35 30 31 33 28 30 34 36 36 36 38
43 43 41 36 36 41 42 36 33 40 42 43 41 35 31 29 29 30 33 33 32 27 42 47 37 38 40 39 37 33 34 31 30 33 31 27 26 26 27 30 30 31 32 32
41 42 43 43 43 42 37 36 38 39 43 43 36 34 30 28 27 26 27 27 33 37 43 34 26 19 38 37 37 33 29 27 28 31 31 29 25 27 28 28 32 33 33 33
42 43 43 42 39 37 37 36 39 40 40 37 30 29 30 24 23 24 28 31 36 45 57 37 26 15 37 29 39 37 35 33 30 32 30 27 26 28 28 28 29 32 34 35
40 41 40 39 37 35 36 36 38 40 36 32 31 26 21 16 25 28 27 29 40 55 57 46 28 29 38 30 30 33 36 30 30 30 28 26 28 30 32 33 33 32 32 34
35 34 38 38 37 34 33 33 33 33 32 29 23 20 18 17 23 23 26 27 30 42 52 42 39 38 38 33 30 30 29 27 27 31 32 30 32 34 33 32 30 30 31 32
38 36 37 35 34 33 32 32 29 25 23 18 17 17 19 17 21 22 25 27 31 41 44 38 41 30 40 29 30 30 28 29 25 25 27 29 32 33 34 35 34 33 32 33
32 31 30 30 27 24 23 24 23 21 19 13 10 10 11 13 17 25 29 26 34 46 48 48 51 43 41 41 27 26 27 30 27 26 28 30 32 34 35 35 35 35 36 38
23 24 21 21 18 19 19 21 20 14 6 9 7 9 12 12 17 19 30 24 31 44 40 29 34 34 37 39 44 42 37 33 34 36 35 35 35 35 34 34 36 35 33 32
17 15 15 16 17 16 15 14 12 10 18 13 10 13 11 13 25 25 28 30 25 27 22 19 18 22 28 36 33 35 35 37 39 40 38 33 30 31 31 29 28 31 33 36
12 11 11 12 13 14 12 15 22 22 17 16 13 6 3 14 25 29 23 21 22 15 22 22 14 16 20 30 33 32 32 32 31 28 27 27 29 29 27 28 31 35 37 40

GFSNW_500_spd_084.txt.gz
Wind_Speed
45 43 37 38 41 44 47 45 42 39 43 44 40 35 29 24 24 26 38 46 52 50 50 50 48 42 47 43 42 43 38 37 40 41 42 42 42 38 33 34 36 33 29 28
33 32 33 33 32 35 36 37 33 33 36 35 26 23 25 24 26 26 27 25 25 35 60 57 52 48 41 45 46 42 40 44 43 40 43 49 49 47 41 31 31 40 32 24
30 31 30 29 29 29 29 28 31 32 31 27 25 23 23 24 26 27 32 27 18 22 43 65 56 53 37 43 41 51 41 46 46 41 41 43 49 51 46 34 37 40 39 31
26 26 25 25 28 30 33 33 33 28 27 21 20 23 21 22 23 26 30 27 27 20 35 63 56 51 48 29 36 35 45 50 46 41 37 35 50 52 44 36 35 37 31 33
26 26 28 30 32 36 39 35 32 28 27 27 27 26 23 25 23 23 19 25 24 21 29 55 64 52 41 34 32 34 35 42 45 46 39 38 54 49 49 45 38 36 34 33
29 30 30 31 35 41 42 40 37 37 35 34 33 28 27 27 25 24 20 21 26 32 27 55 64 66 56 47 22 31 43 39 36 43 35 43 50 51 53 49 46 37 36 34
36 38 39 40 43 47 47 47 44 44 42 40 37 33 33 29 30 26 25 26 25 26 24 51 55 65 65 55 42 25 37 45 44 39 36 41 49 50 51 48 42 33 30 29
42 43 45 48 50 53 55 55 53 52 50 49 45 40 35 33 32 33 32 26 21 26 29 30 61 57 58 64 55 25 20 31 45 40 39 41 42 52 50 44 43 42 35 36
48 49 49 50 51 53 57 61 61 60 57 52 49 45 41 37 34 35 32 29 27 28 33 28 53 63 55 61 57 27 25 30 47 42 31 42 39 45 50 56 44 38 39 33
60 59 59 58 57 58 59 60 59 58 56 50 52 51 47 42 37 37 35 31 29 30 31 29 28 66 67 62 51 33 34 39 40 38 42 42 35 36 50 56 54 41 43 37
45 49 54 59 60 59 61 61 59 57 59 57 55 51 51 47 42 37 38 36 36 34 32 33 28 42 73 66 56 42 20 33 40 36 39 45 38 38 43 54 52 51 51 43
46 45 44 42 42 45 47 46 47 55 60 59 58 54 49 45 45 39 37 38 35 32 30 32 26 38 60 63 52 39 20 33 31 40 43 42 41 43 45 46 45 54 47 49
45 46 46 47 46 47 45 45 44 43 44 49 63 59 48 48 49 43 39 35 34 32 30 31 30 38 60 63 57 41 24 16 25 38 33 38 39 40 28 31 36 41 40 49
41 41 44 44 48 47 45 44 42 37 34 40 52 55 50 44 45 40 35 31 33 30 27 27 28 36 51 64 46 56 31 24 18 23 25 32 40 36 37 32 32 34 36 32
43 41 42 47 46 46 44 41 34 29 29 35 46 49 47 45 43 39 33 29 23 27 26 26 28 34 31 40 39 40 29 25 21 20 23 25 21 39 36 34 35 28 34 38
43 41 40 35 38 47 47 42 34 28 28 36 42 43 48 49 42 31 31 32 29 27 26 22 31 33 34 36 32 52 54 42 38 37 33 25 18 27 26 36 39 35 31 34
35 34 32 41 45 47 41 31 21 24 38 27 27 36 37 46 44 31 32 37 36 32 29 24 32 43 39 39 39 31 47 46 38 36 36 33 25 21 22 23 27 29 28 32
38 38 39 42 44 44 38 30 34 45 26 16 32 35 41 41 37 31 39 37 37 31 28 25 29 51 44 40 36 37 42 43 47 40 35 32 28 24 19 20 22 24 26 29
44 44 44 41 41 39 34 31 36 42 20 24 27 39 46 37 42 43 42 36 34 34 31 31 31 41 58 36 37 44 42 40 34 39 41 30 27 21 18 20 22 23 25 27
41 42 40 40 37 37 38 37 42 55 33 26 34 37 38 39 37 36 35 35 34 34 32 32 35 38 55 57 37 43 39 32 31 41 40 31 28 26 23 24 26 28 27 28
36 41 44 43 43 39 35 36 41 40 37 39 41 38 34 31 28 29 30 29 29 28 27 28 37 38 46 45 40 29 33 35 35 34 31 28 29 28 27 29 31 30 30 30
36 36 38 36 34 36 39 43 43 41 36 36 35 33 32 26 21 20 25 26 28 25 27 32 45 43 44 36 39 28 31 36 33 33 30 29 26 27 31 33 33 32 31 29
35 35 36 35 34 33 34 36 34 31 30 28 23 20 19 20 21 21 22 28 28 22 19 34 53 49 29 31 38 32 32 32 34 35 34 33 31 32 32 31 31 32 31 32
28 30 31 30 28 26 25 24 23 24 23 25 24 21 20 21 25 27 22 23 23 25 25 26 52 28 26 33 28 30 31 35 23 28 37 34 33 35 34 32 30 31 31 31
23 23 21 20 18 18 19 21 23 23 21 17 13 15 12 12 15 15 12 16 20 17 15 24 46 31 33 34 33 34 34 38 32 31 35 29 28 29 28 29 30 30 31 33
17 14 16 14 16 18 20 21 19 15 10 13 12 10 8 12 14 20 20 22 24 15 11 27 41 33 31 31 34 30 32 35 36 37 37 35 32 31 32 30 29 29 31 30
16 15 14 15 17 18 15 16 13 10 18 15 14 11 7 10 15 16 17 9 9 12 17 31 34 35 34 39 32 32 35 34 34 35 36 36 37 34 29 28 28 29 32 31

GFSNW_500_spd_090.txt.gz
Wind_Speed
54 51 51 51 47 46 47 46 45 40 45 44 45 50 52 51 50 53 55 55 57 56 54 56 56 55 50 50 50 48 50 52 52 47 40 44 47 48 46 49 48 45 40 41
48 49 49 47 47 51 51 51 51 49 47 44 42 42 44 47 48 47 51 51 51 51 50 54 56 55 52 53 53 52 49 52 51 50 44 43 48 52 52 52 52 50 45 42
46 48 47 48 52 55 55 54 53 47 42 41 37 36 38 40 38 38 42 42 41 41 43 48 54 54 51 54 55 54 54 54 53 53 49 44 50 50 51 55 55 51 47 43
46 47 48 50 48 46 48 47 43 35 31 27 24 28 30 32 30 31 31 30 25 29 34 36 43 40 43 45 53 55 53 53 54 55 55 49 50 52 51 54 57 56 49 47
44 44 43 33 28 30 34 29 22 24 20 20 21 23 23 24 23 23 23 17 21 24 24 25 28 29 35 43 50 56 53 46 41 44 44 53 50 53 53 53 53 51 50 47
41 36 31 29 29 30 27 22 19 20 12 14 15 15 16 20 27 24 19 17 23 23 25 30 30 30 27 19 33 46 54 55 46 46 45 36 48 50 53 55 56 52 51 49
35 33 33 32 31 29 27 25 24 22 12 12 11 16 25 27 20 21 18 20 25 24 26 27 30 31 31 25 21 29 48 50 49 50 43 41 44 39 42 51 53 54 51 49
34 35 34 31 30 28 28 27 22 13 11 11 19 21 20 18 21 19 16 13 16 25 25 24 28 27 25 26 24 24 43 57 61 50 27 19 34 38 37 44 48 49 53 49
35 32 33 34 32 30 30 27 24 22 17 18 20 25 23 22 22 20 15 13 18 26 24 22 21 20 18 19 19 20 30 47 59 60 27 21 7 27 37 39 48 41 43 43
31 34 35 36 34 32 33 32 30 30 27 22 23 25 25 24 23 21 17 16 20 22 27 26 23 21 18 15 17 14 13 24 47 50 49 18 14 15 30 34 37 38 42 38
34 36 37 39 40 40 40 38 37 38 36 32 30 30 29 27 26 24 20 22 22 25 28 30 27 23 21 19 16 14 12 20 20 23 37 38 14 15 21 33 30 33 36 36
39 41 42 43 43 44 45 46 45 43 46 43 39 38 36 34 32 31 29 26 27 28 29 28 27 28 24 21 19 18 13 14 29 30 18 18 30 30 24 18 30 28 32 28
45 46 47 48 48 49 50 50 50 50 51 49 46 44 43 43 40 37 35 34 33 34 31 29 31 29 26 23 20 20 22 18 20 37 32 15 14 20 26 35 33 28 29 32
52 53 53 52 53 53 52 53 53 53 53 53 53 50 48 44 43 41 41 38 37 36 36 34 32 31 29 27 24 24 24 25 22 32 35 41 19 23 24 33 30 28 27 27
42 42 41 39 37 36 35 36 38 42 48 55 57 54 50 43 42 39 38 39 37 37 36 36 35 34 33 30 28 27 24 25 26 26 36 42 21 22 25 29 33 40 24 25
39 37 39 38 38 37 37 36 35 30 33 42 47 51 47 45 43 41 40 39 39 37 36 38 36 36 34 32 30 26 27 28 30 28 35 36 23 25 21 21 27 32 35 31
46 45 39 34 32 36 36 31 26 28 29 28 30 30 35 42 47 50 47 45 43 41 41 40 35 34 36 34 27 24 27 28 33 32 41 29 23 26 24 24 20 19 18 23
46 46 43 38 36 36 34 31 27 29 30 29 28 26 29 30 29 33 41 49 47 44 42 40 36 35 37 35 27 20 25 30 31 37 46 35 29 27 22 20 17 23 19 23
43 44 45 43 43 42 36 30 27 28 30 29 25 24 23 21 26 29 27 33 48 46 45 40 39 38 39 28 22 18 26 28 27 38 40 40 37 27 17 16 16 21 17 16
46 51 48 46 44 41 32 27 26 28 28 27 28 20 16 18 17 22 22 25 36 42 43 35 41 37 30 27 20 18 24 26 22 33 41 42 37 33 26 18 18 19 20 24
44 47 46 45 40 36 33 29 29 28 27 25 22 21 18 16 22 22 21 26 32 35 38 30 34 24 27 24 20 22 22 30 25 21 38 45 42 38 28 25 24 22 21 21
36 40 40 39 33 30 29 29 27 22 22 22 16 19 23 16 22 25 23 24 29 28 32 34 29 28 24 22 26 30 28 32 35 28 37 44 47 44 34 29 28 29 29 26
34 38 39 33 31 24 21 25 30 23 18 17 16 13 15 17 22 21 22 23 28 28 32 35 31 24 26 24 27 29 33 26 29 41 39 44 43 39 37 35 33 31 30 26
30 26 28 28 27 16 24 25 22 19 20 23 20 21 20 22 25 26 27 29 30 31 29 28 28 29 29 30 30 31 32 30 30 40 44 41 40 38 36 32 29 27 23 21
23 18 16 18 17 20 24 22 17 21 15 13 18 20 23 24 23 24 25 25 26 24 21 22 28 32 31 31 32 28 24 22 25 39 38 35 32 33 30 29 28 24 20 30
13 11 13 15 14 15 15 18 18 19 18 18 21 20 22 22 22 20 19 21 21 19 14 15 13 17 24 32 28 20 18 17 26 30 24 24 29 25 25 22 24 30 28 33
9 8 12 15 17 18 19 19 19 20 19 19 20 18 17 17 19 18 16 16 18 18 18 19 18 14 26 24 24 26 22 22 26 30 26 35 27 31 24 33 33 30 28 28

GFSNW_500_spd_093.txt.gz
Wind_Speed
60 54 50 51 52 53 52 49 48 45 45 44 44 39 36 36 35 41 48 51 54 57 55 49 51 51 47 46 46 45 45 47 47 43 38 34 35 42 46 51 50 49 47 43
55 49 48 48 47 49 48 47 46 45 45 44 42 40 40 41 36 37 44 48 51 53 51 47 46 49 49 49 47 46 47 48 48 45 42 40 39 38 45 48 51 50 50 48
51 50 49 44 45 47 46 46 47 45 46 44 44 43 40 39 39 38 40 41 44 45 41 38 42 44 46 49 50 50 50 49 50 48 43 39 43 43 41 46 51 50 49 48
49 48 45 41 45 46 45 46 46 46 49 42 38 32 29 28 29 30 34 31 29 32 32 33 35 38 40 44 45 50 51 51 52 51 48 47 41 43 43 48 45 51 48 49
49 45 40 41 43 44 44 42 40 35 30 26 22 20 17 16 17 21 23 21 21 22 23 25 27 33 37 38 45 48 51 52 53 53 50 50 49 45 44 46 50 51 48 50
42 38 36 39 40 43 39 24 18 12 12 13 12 7 11 12 18 16 17 19 19 17 18 22 25 26 26 27 30 34 37 41 47 50 49 46 50 42 41 46 49 48 49 46
34 34 36 38 38 36 24 20 18 13 10 9 9 8 12 15 17 20 22 19 18 20 24 26 24 25 26 26 24 21 17 20 27 41 42 43 45 37 33 34 43 46 47 46
32 34 36 37 33 29 26 23 21 15 9 10 11 9 13 16 20 22 17 18 16 24 25 23 23 22 21 22 22 22 21 21 25 33 29 37 39 38 36 39 26 35 46 47
33 35 37 33 31 30 27 23 20 11 4 14 10 21 23 25 21 16 20 19 21 24 23 22 19 16 15 17 15 15 14 19 26 31 36 30 28 37 34 28 30 38 39 44
34 34 33 31 31 30 27 19 20 12 17 16 19 23 22 18 15 17 19 18 19 18 17 18 17 13 14 9 7 9 14 14 14 20 30 30 33 27 19 29 26 34 35 37
26 28 30 33 32 28 28 22 21 16 14 15 16 18 19 17 16 17 17 19 19 17 16 14 12 14 14 12 9 8 9 12 10 9 18 21 31 30 28 16 29 30 36 36
27 29 29 28 28 29 29 29 24 20 21 20 17 18 18 19 19 22 21 20 20 19 17 15 14 14 17 15 10 10 6 8 9 12 10 12 22 27 26 19 7 32 31 35
28 29 30 31 31 32 33 31 30 29 31 30 27 23 22 25 25 26 27 24 23 21 20 19 19 16 16 16 13 14 10 10 8 7 19 22 8 10 25 15 14 15 27 25
32 33 34 35 35 35 37 38 37 37 38 38 36 32 30 27 29 31 30 28 28 27 28 26 24 20 19 18 16 15 16 15 11 10 10 24 29 15 9 14 17 19 22 24
38 38 39 41 42 43 41 42 41 41 37 42 43 40 37 33 30 29 30 31 31 33 34 33 28 25 24 19 19 15 18 19 17 9 13 12 26 24 25 20 18 18 24 25
32 35 38 41 43 45 45 46 46 44 43 45 46 46 43 41 38 34 32 30 31 34 37 37 32 26 27 26 23 17 21 21 21 14 15 11 23 26 29 22 16 23 22 26
29 30 31 30 29 30 30 30 25 28 30 34 35 34 36 42 43 42 40 36 35 35 38 39 35 30 31 31 27 15 21 22 24 20 16 13 20 28 32 27 24 24 19 19
33 29 28 27 32 31 30 27 26 25 27 28 27 23 21 27 33 37 37 36 36 38 39 39 40 38 37 36 25 16 22 25 26 23 20 19 22 33 32 28 25 22 25 21
40 37 34 34 36 31 25 25 25 25 24 23 22 20 17 21 21 21 25 30 37 42 42 40 42 42 42 30 23 16 22 27 29 27 23 23 21 42 34 29 28 24 20 18
42 44 43 42 36 31 28 24 23 20 21 22 21 20 19 19 16 15 17 20 20 29 35 43 48 45 36 32 26 23 26 28 29 26 24 26 28 42 47 33 25 21 16 13
47 53 44 41 38 34 28 24 24 22 20 18 18 19 18 15 21 17 20 14 18 16 22 30 42 38 32 32 29 28 26 28 26 22 20 20 23 37 45 36 30 21 15 15
46 41 38 39 37 31 28 25 21 19 17 16 18 22 15 14 15 16 19 27 12 16 18 26 26 26 23 31 33 28 27 25 25 22 19 25 23 30 44 38 33 23 18 20
36 36 36 34 34 33 27 21 17 14 12 17 17 20 22 19 23 21 23 20 21 23 18 20 23 26 21 22 25 26 27 25 25 22 22 24 22 21 35 36 35 27 22 23
31 32 32 33 32 26 20 14 16 18 21 19 20 18 16 18 15 18 19 23 22 23 20 14 13 18 20 23 26 23 24 24 23 24 23 24 23 27 30 30 27 26 26 27
24 21 23 21 18 19 21 25 23 18 20 20 19 18 17 21 20 20 22 22 21 19 14 13 14 18 21 24 26 26 25 24 22 25 27 27 26 31 32 29 29 30 29 28
14 13 20 16 16 21 25 23 18 17 13 12 12 14 16 19 22 21 21 19 15 13 15 15 17 19 19 20 23 26 25 24 20 20 19 17 22 27 27 29 31 32 30 30
12 13 15 14 15 14 11 12 13 16 15 14 15 15 16 18 21 22 22 20 18 16 15 16 17 15 10 11 12 13 19 19 16 14 18 17 17 23 28 26 29 32 30 34

GFSNW_500_spd_096.txt.gz
Wind_Speed
70 72 74 71 63 56 49 47 46 44 44 45 44 45 43 42 40 39 37 36 36 42 47 50 52 52 50 50 46 46 46 45 42 37 35 32 29 30 37 44 45 42 42 40
54 51 58 55 54 50 45 44 42 41 42 42 42 42 40 40 37 39 38 37 36 37 38 43 50 51 48 49 48 47 47 48 45 40 35 35 38 38 34 37 44 44 44 39
39 39 49 48 47 46 45 42 39 39 40 39 41 41 37 35 37 38 41 40 39 39 35 35 44 46 44 47 48 49 49 49 47 43 32 38 38 39 40 41 45 44 45 45
26 32 43 44 42 43 44 40 35 35 39 39 38 39 36 37 35 36 39 39 38 35 32 30 33 34 35 43 46 48 49 49 50 47 42 42 36 36 40 43 43 46 40 43
25 34 38 40 40 41 39 34 33 35 36 36 37 37 28 23 25 29 30 26 24 25 22 23 25 27 28 35 41 41 47 46 48 47 43 41 43 41 40 41 45 49 46 44
26 29 34 37 35 33 30 32 30 30 29 22 25 19 21 19 22 23 20 20 21 21 18 15 22 26 25 27 33 34 39 39 39 38 39 40 45 41 42 42 45 47 50 46
24 29 32 30 31 31 32 27 27 19 14 14 14 17 18 20 22 19 20 19 18 15 15 19 21 21 22 25 28 30 29 29 29 29 27 36 36 41 38 39 40 45 50 47
25 28 31 31 31 30 28 24 19 20 20 18 15 16 19 18 16 17 18 20 14 18 23 23 18 17 17 16 19 21 21 22 22 19 17 23 30 30 31 32 39 39 44 47
26 28 28 29 28 26 24 20 25 23 19 20 20 20 20 18 16 19 24 17 21 22 25 22 15 14 12 14 15 17 19 20 21 19 18 21 21 29 28 31 37 39 39 40
26 27 26 26 25 25 23 23 24 18 19 23 18 19 22 20 20 26 20 17 21 22 18 15 13 11 11 13 14 14 17 19 14 15 19 23 24 26 29 28 35 35 35 40
27 27 26 26 26 26 21 22 22 18 23 16 29 27 24 24 25 22 20 19 18 17 15 12 9 7 12 16 15 14 16 18 10 13 8 6 16 26 28 28 32 34 30 31
30 28 28 27 25 24 24 24 19 19 22 19 27 26 30 21 19 19 17 19 19 17 13 10 9 8 11 18 16 12 10 14 7 8 8 9 14 17 15 21 27 20 34 37
19 22 24 24 23 24 23 22 21 18 28 27 23 21 20 21 18 18 18 17 17 15 14 12 11 11 10 14 17 15 13 11 8 2 1 9 15 18 18 13 12 17 17 33
19 21 23 23 23 23 23 23 21 21 20 22 21 18 16 18 20 19 19 20 19 19 19 17 14 11 8 10 17 16 14 10 8 6 3 1 5 10 10 6 11 15 14 22
23 24 24 25 25 25 26 26 24 23 21 22 22 19 18 18 19 20 24 24 24 24 25 22 18 17 14 12 15 15 16 16 7 5 5 4 9 13 15 13 11 7 10 19
29 29 29 29 29 30 31 32 29 27 29 29 27 23 22 23 23 23 22 24 27 31 32 29 26 23 21 20 16 16 20 18 13 11 10 6 10 14 22 20 18 14 11 15
28 32 34 36 35 33 34 33 25 26 26 28 31 30 28 26 26 28 28 29 29 31 32 32 30 28 29 26 20 17 19 19 17 15 15 10 12 13 19 21 23 20 14 13
24 26 25 24 26 29 29 25 23 25 27 29 32 28 24 23 24 29 32 33 35 38 36 34 34 30 33 28 21 17 23 24 20 18 16 13 15 15 19 25 27 25 19 16
26 26 30 31 29 24 21 19 18 18 20 20 17 16 16 21 22 22 23 27 31 34 38 38 39 38 40 29 23 16 24 26 25 21 20 19 17 17 17 25 29 30 23 20
37 37 39 37 32 27 25 23 22 20 20 21 18 17 19 21 18 18 16 16 18 18 21 30 45 45 39 32 28 23 26 26 26 25 24 22 19 21 23 23 30 35 29 22
43 46 40 31 29 28 27 25 21 21 19 16 16 18 18 16 17 16 14 14 15 14 17 23 26 27 35 36 32 29 30 30 28 28 26 24 22 24 24 26 35 39 34 26
44 39 39 36 34 31 27 22 20 18 17 16 15 17 18 17 19 22 20 19 12 12 13 15 16 20 24 35 37 35 33 33 33 32 28 26 26 24 25 26 30 43 39 33
47 44 42 40 37 32 25 21 19 16 12 11 16 16 17 20 18 19 22 27 27 21 17 20 17 15 17 22 33 33 34 34 34 32 29 28 26 24 24 25 30 34 48 27
37 38 40 38 33 27 21 12 10 10 13 13 14 19 27 21 20 21 20 15 16 24 24 14 9 10 12 20 22 20 21 24 29 29 28 27 27 25 21 21 32 30 40 37
28 32 30 29 25 18 16 12 12 15 16 17 16 14 13 18 16 17 18 19 22 19 17 14 9 7 9 13 16 18 18 21 25 25 26 27 26 28 26 26 22 26 31 30
21 21 18 18 17 16 16 15 15 17 17 17 17 15 15 13 20 21 18 18 15 15 12 11 12 13 14 14 15 19 22 24 22 23 25 25 25 26 29 29 27 27 24 27
14 21 20 17 16 17 16 17 17 13 13 14 13 14 15 17 19 21 21 17 18 17 16 13 10 16 18 18 18 19 22 25 25 24 24 21 23 20 22 25 26 25 24 27

GFSNW_500_spd_099.txt.gz
Wind_Speed
48 45 47 49 52 55 59 60 58 55 52 50 48 45 45 48 46 44 44 45 43 44 43 45 47 48 52 55 54 52 47 45 41 37 29 32 28 24 25 33 29 29 29 28
46 49 50 52 55 44 41 47 47 47 46 44 43 43 44 43 42 42 42 41 39 39 39 41 39 39 44 52 56 49 52 46 43 41 34 31 32 29 26 27 32 38 28 25
49 51 51 52 30 31 25 36 41 43 41 39 40 41 40 40 39 38 38 38 37 39 40 39 36 35 37 46 54 56 54 46 44 31 23 31 36 35 36 36 32 27 30 31
50 49 47 40 36 24 34 34 35 33 37 36 35 36 37 35 35 34 37 37 37 38 40 38 41 39 38 40 46 54 54 51 47 45 40 33 31 35 37 38 40 38 35 30
44 38 38 23 39 31 33 33 34 36 34 31 33 32 31 33 32 35 36 36 38 38 39 38 36 32 33 34 38 44 47 40 44 47 44 46 48 41 36 36 39 40 42 41
30 30 25 18 28 28 33 38 34 32 26 29 27 28 31 32 31 30 30 26 19 19 21 20 20 25 25 27 28 29 34 33 38 38 38 37 46 42 39 38 38 38 40 38
25 23 20 22 32 37 39 31 30 28 23 25 26 27 25 20 22 22 15 18 17 18 13 18 14 20 28 30 28 30 31 33 31 29 29 30 28 32 36 39 39 39 42 42
20 19 17 21 29 32 28 30 26 24 22 20 20 18 20 25 26 23 18 17 21 14 15 16 18 12 14 17 23 28 28 29 25 28 26 24 28 30 30 34 36 33 39 45
17 17 16 21 22 25 24 22 21 23 20 21 22 22 22 21 16 13 13 18 20 15 19 20 13 10 8 10 10 13 20 24 24 19 23 19 15 25 23 29 31 36 43 41
17 18 19 23 25 24 23 21 22 22 28 29 25 21 20 19 19 17 17 19 14 18 20 19 15 10 11 14 16 9 17 19 20 17 19 17 16 21 27 24 31 33 33 41
20 21 23 25 25 22 20 21 21 20 27 26 26 24 28 22 21 21 17 15 16 16 19 14 11 8 9 17 19 10 16 18 17 19 17 13 13 17 20 28 29 30 35 35
21 23 24 24 24 22 22 21 18 22 27 27 28 28 27 25 25 30 27 21 19 14 11 7 6 5 10 18 23 19 16 16 13 12 11 13 17 12 16 26 25 29 31 34
22 25 24 24 23 22 17 19 21 21 28 25 30 30 29 28 25 29 26 23 23 20 17 15 14 10 11 17 19 19 21 22 19 10 10 13 15 23 21 13 19 21 25 25
15 21 27 27 24 21 21 23 19 25 28 31 25 31 27 29 23 21 21 23 21 18 18 15 11 8 10 15 21 20 17 14 13 12 9 4 19 18 14 15 15 21 18 24
17 17 20 23 25 25 23 22 23 25 24 30 25 26 26 23 21 20 19 19 17 17 18 15 11 9 9 10 14 16 18 13 12 12 14 8 5 8 8 12 13 19 14 8
21 19 21 24 25 25 23 25 28 26 23 30 23 14 13 17 19 20 20 20 20 22 22 19 16 12 13 13 13 19 18 19 17 15 11 7 6 7 8 11 12 14 10 10
26 25 24 25 25 26 26 26 20 21 23 22 23 17 17 16 15 15 16 17 19 24 25 23 21 20 20 16 17 16 19 20 18 17 15 11 10 7 10 9 15 18 15 12
24 26 28 27 27 28 27 22 21 23 24 24 23 21 19 19 18 19 20 21 24 26 26 24 22 22 25 22 18 14 21 24 23 21 19 14 15 10 11 12 12 19 23 17
26 25 23 25 30 30 24 23 21 21 23 27 25 21 19 24 23 24 26 25 28 28 30 29 29 29 31 27 22 15 25 30 27 24 22 19 19 17 14 12 12 14 22 23
33 36 35 31 25 24 25 25 26 27 29 29 18 17 17 18 20 19 19 21 20 23 23 26 31 32 33 32 30 21 28 29 28 28 27 27 24 23 21 20 15 15 17 22
39 41 39 31 26 25 25 25 25 24 21 15 16 17 17 16 15 15 18 19 19 19 18 23 24 19 28 29 33 34 35 30 33 31 29 29 27 25 25 24 20 21 20 21
38 35 34 32 29 29 24 24 23 20 18 16 17 17 19 17 14 12 16 16 18 17 16 22 19 19 20 24 26 30 38 39 40 39 35 31 29 27 27 27 24 25 27 28
41 37 34 34 32 26 22 19 18 17 13 13 14 15 15 16 17 18 18 20 21 18 20 18 17 14 20 24 29 32 36 45 45 44 41 36 33 31 29 28 28 27 27 28
41 40 35 32 28 22 18 16 13 15 15 14 14 16 18 18 17 19 18 20 21 25 28 24 17 18 21 22 23 26 30 39 44 42 41 37 34 33 31 29 28 27 27 32
37 36 32 30 27 23 15 16 16 15 16 16 15 17 16 19 19 18 18 19 18 15 12 17 24 21 15 16 18 15 17 23 33 35 35 35 33 32 30 29 29 28 23 24
34 34 31 28 24 18 18 16 13 14 15 17 17 14 14 13 21 19 17 16 13 10 17 17 15 15 13 13 15 17 17 21 25 26 28 28 30 31 32 32 31 30 29 26
23 22 18 17 17 18 16 14 12 13 15 16 15 13 15 15 13 13 16 19 18 17 16 17 17 18 16 18 19 20 21 23 25 24 27 26 27 31 31 30 31 34 35 30

GFSNW_500_spd_102.txt.gz
Wind_Speed
47 45 44 44 43 42 43 43 45 45 38 40 49 49 42 42 46 49 47 43 43 42 42 43 44 43 40 38 43 48 49 48 49 37 27 22 26 24 29 27 31 30 26 35
47 45 45 45 45 44 47 48 45 40 26 32 33 36 39 41 44 46 45 43 42 41 41 41 42 42 44 46 48 50 49 45 45 43 43 27 30 27 22 20 18 37 28 29
47 44 44 45 46 47 49 46 42 23 30 32 30 17 32 38 42 43 43 40 39 37 38 39 40 40 40 40 43 46 47 45 44 31 29 38 36 34 33 30 29 24 34 28
42 41 43 47 49 49 43 38 24 13 20 26 27 29 23 21 23 36 31 34 34 35 36 37 39 37 37 38 42 40 38 42 45 50 36 35 36 40 39 41 38 18 20 34
39 41 41 41 40 36 35 26 22 28 19 17 21 28 30 30 23 23 23 27 29 33 35 37 36 37 37 37 37 37 39 41 41 49 47 46 43 32 44 45 44 42 39 35
35 35 34 28 28 30 25 28 24 27 26 26 23 16 17 25 25 25 27 26 26 21 28 34 35 36 37 33 27 25 25 23 30 37 35 42 53 42 35 43 35 35 39 36
32 30 25 25 26 22 37 33 26 33 28 24 16 16 21 19 22 26 26 25 28 24 23 20 21 19 22 28 27 26 20 17 22 23 25 32 36 45 44 40 37 36 39 37
31 26 22 22 21 21 31 31 29 30 24 27 21 19 24 26 23 13 17 18 16 12 20 18 17 12 7 12 22 26 24 27 23 24 21 17 21 25 30 39 38 45 41 39
27 22 19 17 14 22 34 26 29 23 21 20 16 19 14 11 13 19 23 18 20 16 17 12 9 11 9 10 5 10 22 30 27 18 18 20 22 24 33 32 32 32 32 36
21 17 15 12 11 16 31 25 24 21 24 21 22 15 13 13 12 13 11 8 10 14 13 11 10 8 7 9 12 12 11 14 18 20 17 21 31 27 32 32 31 27 28 30
14 13 12 12 15 19 22 22 23 22 17 24 25 23 20 18 16 20 17 16 13 8 9 10 11 8 6 9 14 8 4 10 13 17 19 16 24 23 24 27 29 27 33 36
13 15 16 17 18 19 19 19 19 19 20 24 25 24 21 21 20 23 24 22 15 7 13 9 8 5 1 4 13 3 14 9 10 9 11 6 15 22 22 28 35 37 34 34
12 19 20 20 20 19 18 19 17 19 22 27 24 20 27 21 19 28 25 18 20 19 17 17 14 13 7 7 16 9 14 9 18 8 11 11 17 21 20 25 28 35 33 33
14 16 22 22 21 19 18 15 19 19 22 22 24 25 24 25 24 28 26 25 20 20 21 19 18 13 14 12 15 21 23 17 19 19 13 14 18 21 19 20 14 20 21 21
15 15 20 24 22 20 17 21 22 22 23 21 16 27 25 21 22 23 25 23 21 23 19 17 13 9 9 12 20 20 21 16 16 14 13 19 16 11 14 21 15 19 25 23
17 16 17 20 25 24 23 25 25 23 20 20 18 27 23 24 25 23 19 21 19 17 15 11 7 8 8 9 12 14 19 20 19 20 22 13 5 7 6 15 9 18 27 26
18 19 17 19 23 27 27 23 19 17 18 26 23 24 19 23 25 22 18 18 19 18 16 14 12 12 12 8 7 11 13 17 18 17 18 17 13 11 9 6 3 13 18 16
19 23 20 22 25 27 28 28 23 21 21 28 34 15 13 13 13 14 14 15 17 17 14 13 14 15 16 11 8 8 12 16 18 19 20 18 16 12 10 8 6 6 11 17
21 22 26 28 30 26 23 21 20 20 22 24 24 17 13 12 12 14 15 18 18 20 20 18 20 18 20 19 14 13 17 21 22 22 20 18 18 15 14 12 8 6 8 10
27 28 32 32 28 27 25 24 22 21 22 23 21 19 14 13 16 16 19 21 21 21 20 20 21 19 21 24 24 22 22 23 23 24 23 25 23 23 18 19 16 14 9 10
34 34 32 26 26 27 28 26 26 27 25 22 18 18 18 19 15 17 19 18 18 17 15 19 19 18 20 20 23 24 25 28 28 26 28 31 30 28 27 24 22 21 19 14
32 33 29 27 28 31 32 30 28 26 23 17 18 21 23 16 18 18 19 19 19 16 16 18 19 17 19 21 22 23 23 27 32 34 34 33 32 32 32 27 26 27 24 22
33 36 32 32 33 31 29 26 24 18 15 16 18 16 15 16 16 17 16 14 13 13 14 18 18 14 17 19 21 22 22 26 31 35 41 42 40 38 36 32 31 30 28 28
39 36 34 32 29 26 21 19 17 15 16 16 16 15 15 16 16 17 16 16 17 17 19 21 18 19 21 21 22 26 28 28 30 35 38 47 48 45 41 38 35 33 32 32
36 32 31 29 25 24 15 14 18 19 18 17 15 14 15 17 17 18 19 17 15 16 16 14 19 24 28 27 27 25 25 27 28 29 34 35 45 46 44 41 38 36 35 35
31 28 28 28 25 17 15 18 18 16 16 17 17 17 16 14 15 16 16 18 18 15 15 15 14 15 20 22 20 21 22 23 21 22 24 26 29 35 40 39 37 36 35 34
28 30 27 21 13 15 15 15 14 13 15 16 17 16 14 13 10 11 15 13 11 16 18 19 19 18 18 19 20 20 20 21 25 26 24 26 28 29 30 34 33 33 34 34

GFSNW_500_spd_105.txt.gz
Wind_Speed
55 54 56 47 43 44 42 40 32 35 39 41 38 44 30 30 35 42 49 50 48 46 53 51 43 37 32 33 37 36 43 42 36 40 33 31 33 23 28 26 31 27 29 23
54 59 50 45 46 48 44 41 36 38 39 40 40 26 25 25 30 37 43 47 45 42 45 47 44 43 45 42 45 46 46 44 41 39 38 35 40 44 35 34 31 31 28 19
57 49 43 45 46 41 40 40 38 39 39 37 32 29 22 8 17 30 36 41 42 40 41 43 42 44 44 49 53 50 45 45 43 40 33 36 46 52 36 22 32 32 31 25
47 43 39 33 34 39 42 42 41 35 30 20 23 33 22 22 15 16 26 30 33 31 32 35 37 37 38 39 38 40 41 44 41 38 37 34 45 52 57 31 28 35 23 31
39 35 31 34 36 40 40 38 28 22 15 16 10 16 28 24 15 8 21 18 17 23 26 28 30 33 34 36 37 40 41 41 39 39 32 32 44 40 52 41 37 40 41 15
32 31 35 35 34 37 30 21 20 20 17 13 16 15 17 23 20 10 24 10 17 17 14 15 21 25 29 31 33 32 31 25 22 26 26 33 47 42 40 49 47 45 39 34
32 35 33 32 32 29 22 19 15 25 18 17 20 22 18 16 16 27 30 30 23 18 21 20 20 22 25 26 28 31 31 24 20 14 11 23 20 35 40 38 36 46 44 39
34 32 31 30 29 24 21 17 18 29 21 25 19 19 18 20 19 20 19 22 23 18 20 18 17 16 11 9 11 16 24 24 22 11 17 12 19 20 35 44 47 35 40 43
30 30 28 25 23 21 20 21 32 32 15 28 24 24 19 15 12 11 11 15 11 14 15 12 10 11 10 7 6 4 15 22 25 15 19 17 22 24 29 34 37 32 31 35
26 25 23 20 16 14 13 18 24 30 25 25 23 23 19 12 11 7 9 7 8 11 13 9 7 7 6 4 10 5 9 19 28 20 21 24 20 28 27 29 39 42 42 39
24 21 16 12 8 6 17 22 21 20 20 18 22 24 19 18 18 19 16 12 2 7 7 3 5 3 4 4 1 5 4 9 17 25 25 13 18 26 24 22 29 34 36 37
22 17 14 10 10 11 12 12 14 16 17 15 19 20 19 19 18 20 21 17 14 17 7 5 7 5 7 3 10 2 8 10 11 10 8 8 13 21 28 27 26 29 33 36
17 15 16 14 15 14 13 17 17 16 13 15 13 14 21 17 20 24 21 22 20 17 13 11 12 9 10 8 5 5 3 15 9 7 7 8 3 14 19 27 28 28 31 36
16 16 15 18 17 16 17 17 17 15 12 14 17 19 18 17 17 23 25 22 18 16 15 12 13 9 8 7 7 10 4 12 4 2 11 4 11 12 16 18 24 23 27 32
13 15 15 19 19 19 18 18 16 13 14 17 14 14 16 16 13 16 23 20 18 17 16 14 13 10 11 11 13 15 13 12 7 11 13 13 11 17 17 19 18 16 12 15
14 13 14 15 22 22 21 18 12 17 19 21 17 14 14 14 16 21 23 22 20 16 15 14 11 12 9 12 18 18 19 20 18 16 16 14 15 8 10 5 7 16 12 20
16 14 15 15 19 22 13 7 20 26 22 22 18 16 16 14 14 14 16 18 19 17 13 11 9 11 8 8 9 16 20 22 21 21 23 21 17 11 8 2 3 9 12 11
16 16 16 15 17 22 20 26 27 26 23 23 18 16 15 14 14 15 14 14 15 14 12 9 12 14 9 3 2 9 12 15 18 21 23 19 15 14 12 8 6 9 7 8
16 16 17 20 20 21 28 27 25 25 23 28 21 16 15 12 12 10 9 11 12 12 10 11 13 11 12 12 9 11 13 15 14 15 19 17 16 15 17 12 8 9 8 4
21 25 25 20 18 26 27 28 27 27 25 21 23 23 12 11 12 8 9 13 16 15 15 15 15 14 15 16 16 16 17 17 16 17 18 18 18 20 19 16 12 13 10 8
28 26 24 21 25 26 28 29 28 28 25 18 22 20 18 16 14 14 17 16 15 8 10 10 12 10 11 11 12 14 17 22 22 22 21 21 23 24 23 24 19 21 17 15
26 24 20 25 29 29 29 29 28 24 21 18 17 18 18 18 16 16 17 16 15 11 14 15 12 11 13 14 15 16 17 18 20 24 28 29 28 27 27 29 26 27 26 22
29 27 24 27 32 33 29 27 26 22 15 16 19 18 18 18 19 16 15 15 12 16 18 16 11 12 14 15 19 19 20 23 24 26 27 30 33 35 33 32 31 31 30 29
33 31 27 26 29 29 24 18 18 15 14 15 16 18 15 15 17 16 15 15 16 17 16 11 12 17 21 21 20 21 20 21 24 28 30 33 36 37 40 42 39 37 34 33
34 30 29 25 21 17 13 13 14 17 18 16 15 15 14 15 16 15 16 17 19 18 15 11 15 17 20 23 27 28 28 26 27 24 25 29 34 40 42 43 45 43 40 37
26 26 25 23 21 18 15 13 15 17 15 14 14 14 14 15 17 16 18 20 19 14 11 14 14 16 16 17 18 18 21 23 23 24 25 24 22 27 34 36 36 40 43 39
27 25 22 22 19 18 14 15 14 13 13 14 15 16 18 18 17 15 7 8 12 14 16 16 18 20 19 19 18 19 19 20 21 21 23 22 23 22 24 26 27 28 30 34

GFSNW_500_spd_108.txt.gz
Wind_Speed
41 44 48 50 52 57 59 44 37 39 39 37 35 30 31 31 29 31 41 48 46 48 46 48 54 54 53 52 49 49 48 45 40 35 32 38 37 41 38 37 35 36 34 28
44 47 50 51 57 51 41 39 39 40 37 34 33 33 32 32 28 28 31 42 42 49 49 46 46 50 46 46 50 55 53 51 44 35 30 34 42 44 41 31 30 29 36 35
46 48 50 55 49 44 40 36 32 29 32 32 32 32 31 27 24 17 19 23 34 36 44 48 47 43 45 44 40 39 42 43 41 37 36 39 44 42 45 45 37 36 38 32
46 48 53 46 43 41 37 33 30 30 33 32 30 28 25 24 21 20 17 17 31 31 32 36 41 46 50 52 53 52 49 48 45 43 43 40 38 38 38 50 46 46 26 34
47 48 45 42 37 37 36 33 31 33 28 23 22 17 14 20 25 20 18 11 19 22 23 25 27 31 36 40 38 38 41 45 51 44 42 39 40 38 40 49 53 48 41 24
45 46 41 38 37 38 34 30 30 24 14 18 18 15 3 12 22 17 12 3 16 19 12 12 16 21 24 27 32 31 34 37 38 37 34 36 38 30 37 44 44 44 51 47
44 43 38 36 37 36 32 28 26 19 16 22 19 19 14 14 12 14 16 14 13 9 13 15 13 14 16 20 23 26 28 31 33 31 25 31 16 26 37 40 34 40 50 44
43 41 36 34 35 33 27 24 20 17 26 23 19 15 17 18 16 8 10 17 22 24 16 17 14 16 17 15 19 22 27 29 32 30 22 18 14 22 21 31 37 39 43 44
43 38 34 31 33 30 23 19 19 20 27 18 18 13 14 14 16 18 18 21 20 18 19 16 16 14 12 10 4 9 14 15 26 26 22 20 14 17 11 18 35 36 35 38
41 36 32 28 28 21 18 18 19 21 24 17 19 20 16 20 14 14 16 16 8 6 5 6 7 8 11 4 3 2 9 10 12 18 24 17 12 10 23 11 16 29 39 31
39 34 30 25 19 12 8 7 5 19 25 15 17 23 20 21 16 15 15 16 11 7 5 9 8 7 5 5 2 5 12 18 10 25 21 8 10 18 16 21 24 25 30 34
36 32 26 19 14 11 6 1 7 16 18 17 19 17 17 19 19 21 18 19 16 4 10 8 5 8 5 5 3 4 2 4 10 18 15 10 13 17 22 18 24 28 28 32
31 27 19 16 15 12 10 10 7 7 8 14 15 17 15 15 21 22 21 15 11 13 10 14 9 6 5 4 5 14 7 9 13 13 16 13 10 15 18 13 22 24 24 26
27 20 17 15 16 16 15 14 10 7 7 9 14 12 10 15 19 25 21 19 17 17 14 8 8 7 4 6 1 11 18 10 7 8 15 10 12 8 13 15 15 23 26 25
21 16 15 15 16 18 18 17 11 10 9 9 9 7 10 11 16 21 21 20 18 15 12 9 6 8 7 7 5 4 3 5 8 6 5 9 9 6 11 13 16 18 21 21
18 14 12 14 16 21 18 13 9 9 11 11 12 10 11 13 17 21 22 21 16 16 8 6 6 9 10 9 3 9 9 10 10 9 8 9 13 11 12 9 13 11 12 11
17 14 12 12 13 15 13 11 14 14 14 13 13 10 7 9 12 17 19 18 14 11 11 3 6 11 11 8 6 12 16 15 17 15 13 17 14 13 12 8 8 3 8 12
18 15 13 13 14 15 18 17 18 18 16 16 11 9 9 11 9 9 10 11 8 8 9 6 9 10 9 10 16 18 18 19 21 21 20 20 21 19 15 7 10 6 4 4
18 16 18 19 13 11 19 19 20 24 21 18 15 15 14 8 7 5 2 1 2 3 4 5 4 5 6 5 7 12 14 15 17 18 18 20 20 18 16 15 10 10 8 5
23 26 22 13 12 21 26 26 28 27 23 20 17 16 12 11 9 8 5 8 7 7 9 8 9 9 9 10 11 13 15 15 16 17 16 16 19 18 16 14 11 14 15 10
29 27 16 14 19 20 27 29 28 27 21 20 22 20 17 13 13 15 12 8 7 6 7 7 6 6 7 7 8 10 13 16 18 20 20 20 19 19 19 18 16 17 18 15
25 20 19 18 20 23 30 31 31 26 22 18 20 22 21 19 16 15 15 13 10 10 12 12 6 10 9 10 11 13 14 14 16 18 20 23 25 25 25 24 23 21 23 22
27 25 23 21 25 29 32 32 26 18 16 19 19 19 19 19 19 18 17 15 12 14 15 10 8 12 14 18 17 16 19 20 21 22 23 24 24 26 28 30 30 27 26 27
27 27 26 24 25 26 22 16 15 19 19 18 19 18 18 18 20 21 16 16 16 16 11 7 12 17 18 20 21 21 22 22 22 23 24 26 28 30 31 33 33 34 33 32
28 26 25 19 17 16 14 15 15 21 19 18 16 16 16 16 14 14 16 17 15 11 9 15 20 18 18 19 19 21 22 23 25 26 26 26 27 26 30 34 38 38 38 38
28 24 21 15 14 14 14 16 17 18 17 15 13 14 14 16 16 15 16 15 14 14 17 16 16 18 18 18 18 19 19 18 18 19 22 21 21 21 22 23 24 31 37 38
27 23 20 18 16 14 14 13 14 14 13 12 13 14 15 16 17 14 13 11 9 12 15 17 22 23 20 20 23 23 21 19 19 19 18 21 21 20 21 23 23 23 24 27

GFSNW_500_spd_111.txt.gz
Wind_Speed
32 33 35 37 40 42 44 48 49 44 41 39 38 36 37 36 32 34 35 34 34 33 38 48 57 52 48 43 43 44 53 54 48 46 43 41 45 44 45 37 38 41 44 34
33 34 36 38 41 42 48 46 42 40 37 35 34 31 31 34 34 34 35 35 34 34 34 44 52 54 52 44 39 36 39 40 40 42 43 43 36 39 40 46 48 34 51 43
34 36 37 38 42 45 46 40 35 34 35 35 33 32 33 31 31 32 32 29 27 26 31 35 46 51 48 38 40 40 37 36 47 49 46 42 43 40 37 41 46 51 46 39
34 35 36 39 43 46 39 36 36 38 38 35 33 35 31 27 28 29 23 21 21 19 17 26 26 42 50 51 44 38 41 52 50 47 45 46 42 39 38 40 43 47 43 38
34 35 37 40 43 42 37 38 38 38 33 32 32 27 19 12 11 15 16 15 15 18 19 29 27 26 36 50 50 50 48 42 44 41 42 45 46 45 42 44 45 46 49 46
33 35 38 42 43 40 38 38 38 36 30 29 22 17 9 5 9 14 17 19 15 15 24 20 14 18 23 30 39 45 44 44 46 49 49 50 49 36 38 39 42 38 45 42
35 36 39 42 42 39 38 37 37 32 26 25 20 16 19 7 10 12 16 17 15 3 16 11 12 11 15 22 26 29 32 35 38 37 40 43 33 35 34 36 32 36 45 44
36 37 40 42 42 38 36 36 33 28 20 21 19 21 11 19 13 14 12 16 10 11 13 11 12 15 16 15 19 22 25 29 32 35 36 32 28 21 27 24 24 31 39 42
36 38 40 41 41 37 32 32 30 26 16 18 18 23 13 11 14 15 13 12 9 14 18 22 17 16 14 9 9 8 8 17 20 19 28 32 19 23 21 12 13 20 30 30
35 38 40 40 39 34 29 24 21 20 14 17 16 17 12 10 12 12 14 13 11 13 11 10 9 6 5 5 4 4 6 11 12 17 17 17 15 18 18 15 3 12 24 29
35 37 39 38 36 31 21 15 13 16 8 20 12 18 16 16 14 14 14 12 11 8 5 9 8 3 5 1 2 7 13 13 7 15 11 16 15 19 14 15 8 5 10 24
34 36 37 36 32 26 16 13 7 5 7 13 15 20 24 19 18 19 16 15 20 12 9 6 9 4 1 6 5 12 11 6 6 6 14 10 14 20 11 9 21 16 17 15
33 36 35 34 28 20 16 14 8 4 4 9 9 15 16 16 16 15 19 20 21 12 15 5 9 9 5 4 5 15 14 4 3 6 10 11 12 15 13 7 4 8 15 20
33 34 32 30 23 18 17 15 11 8 7 9 14 17 16 10 14 17 20 22 15 13 12 7 8 7 3 5 6 12 7 7 8 8 5 14 15 17 16 12 14 14 12 13
34 31 29 25 20 18 18 17 11 8 9 8 11 4 8 11 14 19 23 19 17 14 11 8 5 5 4 6 4 5 3 9 16 7 4 15 11 4 9 6 10 13 16 15
30 28 24 21 18 16 17 15 9 10 11 8 7 9 8 9 16 25 24 17 14 13 10 7 5 9 7 8 5 7 6 3 3 2 2 3 6 2 2 7 9 13 15 13
26 23 21 17 14 13 14 14 17 11 10 7 12 11 8 9 15 17 16 17 16 11 7 7 7 11 9 10 11 12 8 9 8 7 6 7 10 8 4 7 6 8 9 10
22 23 20 16 14 11 13 18 16 13 10 11 14 14 15 13 11 13 18 14 10 8 7 4 6 8 9 11 13 13 14 14 14 13 14 14 14 15 15 15 10 11 6 5
25 23 20 19 12 7 12 18 16 13 12 17 16 17 15 14 11 8 8 4 4 4 2 2 5 8 7 11 14 15 17 17 16 17 16 17 16 15 16 18 12 13 11 9
26 28 27 19 11 15 16 18 19 15 19 19 15 15 13 10 9 11 10 8 5 2 1 3 7 8 10 11 12 14 15 17 17 16 16 15 16 17 16 15 15 13 13 11
36 30 24 18 17 19 18 20 20 18 22 17 16 16 14 11 13 12 9 7 5 4 5 3 3 5 6 8 10 12 15 17 18 19 19 19 20 18 17 16 16 17 17 16
30 26 22 20 24 21 18 20 22 21 22 19 18 14 12 9 9 11 11 11 10 9 9 5 5 9 8 9 11 13 13 13 15 15 17 19 21 22 22 21 19 19 20 21
31 28 27 26 24 22 15 19 20 19 19 18 16 16 18 17 19 17 17 15 12 12 8 6 11 14 14 15 15 17 18 18 18 20 21 21 22 22 23 23 24 25 24 23
34 32 29 30 26 13 4 10 15 18 19 18 17 16 16 17 19 19 17 16 14 8 5 8 15 15 17 18 18 19 21 23 24 25 27 27 26 26 27 28 29 30 29 29
33 30 27 24 16 9 10 11 20 22 21 18 17 17 16 17 17 17 18 17 10 6 11 15 18 20 22 23 21 19 17 18 19 21 23 26 26 27 27 27 29 29 31 33
29 26 21 19 14 10 16 17 20 22 21 19 17 16 16 18 17 14 13 11 9 13 18 19 21 24 25 25 21 21 21 20 20 21 21 19 20 20 21 19 20 22 23 25
28 24 19 16 12 17 21 21 19 17 17 17 15 14 14 14 14 11 11 14 15 17 18 16 16 19 22 24 24 25 25 25 26 24 22 21 21 19 18 20 21 23 24 24

GFSNW_500_spd_114.txt.gz
Wind_Speed
28 27 27 29 31 33 36 36 38 43 47 48 41 36 36 35 36 38 38 37 36 34 31 30 32 35 47 46 50 34 50 53 52 46 48 47 47 45 45 45 46 49 52 53
26 26 29 31 33 34 34 37 42 44 46 39 35 37 36 35 31 32 34 35 35 35 33 34 33 36 36 44 48 48 34 49 52 50 44 43 48 47 46 39 40 45 48 55
26 28 31 33 34 32 35 39 43 46 40 36 38 39 37 32 33 33 32 31 33 34 32 31 31 34 37 39 45 46 45 35 41 45 39 41 49 43 44 45 44 44 46 50
28 31 33 33 32 32 36 40 43 41 39 38 40 41 31 30 34 30 28 26 28 25 20 24 25 17 16 22 31 41 44 39 33 39 41 45 47 36 37 44 46 51 46 47
29 31 33 33 31 33 38 41 44 40 38 39 40 33 27 25 16 8 11 10 12 13 13 14 13 18 16 22 23 27 40 48 37 36 35 35 42 44 41 46 51 53 51 52
32 33 33 33 31 35 40 42 44 39 37 40 34 26 19 9 6 5 12 12 8 16 18 17 19 15 18 22 22 23 26 38 51 46 39 38 44 40 43 47 43 46 46 38
33 34 33 32 31 36 41 42 44 38 37 35 30 21 15 16 9 11 6 12 12 12 14 8 9 11 13 15 15 19 20 24 34 41 49 49 44 43 45 49 41 41 37 28
34 33 33 31 31 37 42 42 40 35 32 33 21 16 15 14 18 9 11 9 13 11 13 10 13 11 10 12 13 14 18 21 25 30 34 41 41 43 38 36 24 29 28 27
34 33 32 31 32 37 41 41 36 28 27 23 16 14 19 12 12 12 12 11 8 10 15 13 16 16 12 9 7 7 8 11 12 14 19 20 22 28 24 20 12 17 19 22
34 33 32 30 32 37 39 39 29 21 20 18 4 7 12 11 10 10 9 11 12 10 12 14 14 5 5 5 2 4 8 11 14 15 16 15 12 17 19 22 15 12 12 14
34 32 31 30 32 37 37 34 23 18 16 11 6 13 12 11 9 9 12 13 11 8 5 6 4 6 4 4 3 8 9 12 10 6 4 5 12 12 14 11 9 9 6 11
32 31 29 30 31 37 35 28 19 15 12 9 1 11 18 14 11 14 14 16 11 11 5 4 11 11 0 2 5 9 17 1 6 3 7 13 12 14 15 5 11 9 15 13
32 30 30 28 32 36 32 23 17 14 12 7 4 10 12 19 22 17 15 20 13 14 6 5 3 8 5 2 8 15 15 14 10 8 4 8 13 15 18 3 4 6 5 8
33 31 29 28 33 34 28 21 17 13 11 9 14 12 13 11 11 16 16 16 15 13 8 6 4 8 4 2 9 12 9 10 10 4 2 5 6 15 11 8 10 8 7 10
34 31 28 29 32 30 23 20 16 12 12 11 13 14 13 10 11 11 16 17 18 10 9 8 5 3 1 2 3 4 6 6 11 7 6 1 4 5 12 11 5 9 12 16
33 30 28 31 29 26 20 18 15 16 16 12 13 10 8 8 8 10 16 20 14 10 10 8 6 4 4 4 6 4 5 9 13 11 13 11 10 4 5 3 7 13 12 11
33 30 30 27 25 19 19 16 20 18 13 11 10 7 8 8 12 15 18 15 11 12 12 10 5 7 8 9 11 9 7 4 4 8 6 3 7 8 9 6 5 12 12 11
34 31 26 25 20 16 15 17 21 17 13 8 8 10 11 9 14 9 12 12 13 10 8 8 7 9 7 10 13 13 10 7 8 9 9 9 10 11 14 17 17 13 15 15
33 27 25 24 19 12 15 17 15 15 11 8 14 15 15 12 10 11 8 7 5 5 5 6 8 9 9 13 14 14 14 13 14 13 12 12 12 13 13 14 16 17 17 14
30 29 28 24 16 17 16 15 13 15 11 15 19 19 17 17 13 14 13 8 6 5 4 5 7 9 8 9 11 11 14 15 16 16 15 14 14 14 14 15 17 16 16 14
33 32 30 23 21 17 22 18 11 13 10 21 21 19 18 14 12 15 11 10 8 4 3 4 5 5 8 10 10 12 14 16 16 17 19 19 18 17 16 16 15 15 16 16
32 29 26 24 21 24 24 14 12 8 16 22 19 17 15 12 12 15 14 15 10 7 5 3 7 7 8 9 11 11 12 13 14 14 14 16 17 18 18 18 17 17 16 18
31 30 29 27 26 24 14 7 7 10 17 19 17 15 13 12 12 11 13 13 11 8 6 6 12 12 12 12 13 14 14 15 16 17 19 20 20 22 22 22 22 22 21 20
33 33 32 29 24 16 5 6 11 22 22 20 14 14 12 12 12 15 16 12 10 7 7 13 15 15 16 16 16 17 19 21 22 22 23 24 25 26 26 27 26 26 26 26
36 32 28 22 19 15 12 7 19 26 24 19 16 14 12 13 13 12 12 11 7 6 13 16 17 17 19 21 22 23 23 22 22 21 21 21 22 23 25 24 23 23 24 24
33 29 22 19 18 15 13 10 21 22 21 19 17 15 13 14 12 11 10 8 10 14 17 18 17 19 22 23 25 25 24 22 23 25 24 23 23 23 21 20 20 20 21 21
35 31 24 20 18 16 10 18 22 22 18 17 16 13 14 13 11 8 10 14 15 17 17 18 20 22 22 22 23 23 25 27 29 27 27 27 28 27 24 23 22 21 21 22

GFSNW_500_spd_117.txt.gz
Wind_Speed
26 25 24 25 28 27 27 31 33 33 36 38 40 43 38 35 36 42 42 38 36 33 33 31 28 28 26 28 34 40 45 47 43 36 44 42 37 31 30 32 39 48 48 52
25 25 25 26 24 26 29 32 33 34 37 39 41 42 35 36 39 41 37 35 35 34 31 31 26 26 29 27 27 33 43 45 43 30 34 40 40 46 48 43 37 42 46 52
26 26 26 24 24 27 30 33 34 36 38 40 42 38 35 38 41 35 33 31 33 32 28 27 25 23 25 28 27 27 27 38 41 37 30 33 40 35 35 40 40 40 46 51
26 26 24 24 25 29 32 33 34 37 39 43 43 36 37 38 35 31 30 23 22 20 16 12 15 16 9 10 10 14 21 31 35 35 38 33 39 42 41 43 41 42 42 51
29 27 23 24 28 31 32 33 34 37 41 44 40 39 37 36 29 23 12 9 9 7 5 11 9 5 5 9 11 16 18 22 32 37 35 36 34 33 32 36 36 42 44 52
30 26 24 25 29 31 32 33 35 38 42 43 38 36 37 29 19 7 2 5 9 6 8 13 13 13 14 15 16 20 18 18 22 32 39 36 46 30 30 32 33 33 45 49
29 26 26 27 29 32 32 33 35 39 42 40 33 34 33 16 11 9 6 5 6 6 9 13 5 4 8 10 12 16 15 14 14 13 24 43 45 37 38 37 35 38 45 47
29 27 27 27 30 31 31 33 36 38 40 35 31 33 22 10 12 12 6 9 7 8 10 11 8 11 18 9 8 8 9 11 11 12 13 14 16 27 44 51 50 52 50 34
29 27 27 28 30 30 31 32 36 36 36 29 28 28 13 7 4 11 6 7 9 8 8 10 12 14 13 5 6 9 9 10 10 14 14 9 9 12 18 21 17 18 28 26
29 28 28 28 29 28 30 32 35 34 32 24 25 21 6 9 3 7 7 6 8 11 8 8 9 10 3 3 11 8 10 7 12 10 12 8 10 18 13 13 11 20 16 10
30 30 29 27 27 27 29 32 34 31 27 20 20 14 1 8 3 6 9 12 10 8 6 4 5 5 8 5 8 13 14 11 7 8 6 7 9 1 8 9 12 2 5 2
32 31 28 27 26 27 28 32 33 29 23 18 16 11 3 6 8 8 10 15 14 9 6 2 3 3 3 7 14 11 14 5 10 7 3 5 5 6 8 8 7 1 1 4
34 31 28 27 26 27 28 32 31 27 19 17 16 11 4 6 11 14 19 14 10 8 6 2 2 3 2 5 7 8 13 10 12 11 10 5 2 1 8 8 2 1 1 1
35 32 29 28 27 27 27 32 28 24 17 17 17 9 8 6 11 14 16 12 7 12 6 4 1 2 2 2 2 9 12 16 16 11 6 6 6 2 4 10 9 5 4 5
35 32 30 28 28 26 28 30 25 22 18 18 17 14 12 9 13 17 15 11 9 12 4 4 2 1 2 4 3 3 6 10 15 20 17 9 5 10 7 3 4 2 7 10
38 34 31 29 28 25 29 26 25 22 17 15 15 13 11 12 11 9 9 9 14 7 5 4 4 2 3 5 7 5 5 9 13 10 10 7 14 11 5 4 7 11 11 10
39 35 32 30 27 27 30 24 22 19 17 13 12 11 7 7 5 5 9 14 12 5 5 7 5 4 6 7 9 6 3 2 3 5 2 3 1 4 7 8 9 11 7 12
41 36 32 30 27 29 22 22 20 17 15 11 9 8 5 6 9 9 6 10 8 6 9 8 8 7 6 10 11 9 6 4 6 8 10 9 9 12 14 16 18 19 20 16
42 38 35 32 27 22 20 20 17 16 12 8 10 10 12 12 11 9 6 9 7 7 6 6 7 8 9 11 12 12 11 9 10 11 10 10 11 12 14 18 20 19 18 16
45 39 36 31 26 22 22 19 15 13 9 8 13 14 18 14 12 10 9 8 6 4 2 5 6 9 10 11 11 11 11 11 13 13 13 13 13 13 12 14 14 15 14 14
41 37 34 30 25 23 23 19 12 8 7 11 18 20 20 15 12 11 10 7 7 4 3 7 7 8 8 9 9 8 9 9 10 11 12 13 14 14 14 15 14 14 12 12
37 34 31 26 26 26 22 14 6 3 5 14 19 20 18 15 13 13 15 11 11 7 6 8 8 8 8 8 9 9 10 11 12 13 14 14 15 16 17 17 17 16 15 13
33 30 29 30 30 27 18 5 1 3 9 18 20 19 17 16 13 13 16 13 12 9 7 9 11 10 9 10 11 10 11 11 13 14 16 17 18 19 20 20 20 20 20 19
32 32 35 35 25 20 9 6 7 12 21 22 18 18 16 15 14 13 13 11 9 7 8 13 13 13 12 11 11 12 14 16 18 19 20 22 23 22 22 23 23 22 22 22
32 31 27 25 19 16 12 12 11 13 26 26 22 18 16 13 11 8 6 5 6 10 15 16 16 15 14 15 16 18 18 20 22 24 23 22 23 23 22 21 22 22 20 20
23 28 24 19 18 14 13 11 11 14 24 25 20 17 14 13 9 7 8 9 11 14 15 16 16 16 16 18 21 20 20 20 22 24 24 25 27 26 26 24 24 22 21 20
29 23 18 15 15 13 12 12 12 14 21 20 19 15 14 11 9 8 11 13 16 16 16 17 18 19 21 24 25 25 25 27 27 28 30 30 30 29 29 30 29 27 26 25

GFSNW_500_spd_120.txt.gz
Wind_Speed
22 22 19 22 23 24 25 25 27 29 29 30 32 34 37 40 43 42 38 37 43 42 41 38 32 25 26 26 24 24 29 33 32 36 38 38 30 32 30 35 29 31 30 24
22 20 20 21 21 21 22 24 26 29 29 32 33 36 39 42 42 36 37 42 41 39 37 37 29 23 22 22 22 22 22 24 24 20 38 43 48 42 37 26 34 30 26 24
21 21 21 20 19 20 22 24 27 29 29 31 35 38 42 43 38 37 40 39 37 33 27 21 17 14 15 19 18 21 21 22 19 21 24 35 42 30 38 40 37 33 34 27
23 22 22 20 19 21 21 24 27 29 32 33 36 40 44 40 36 39 41 30 18 14 11 8 10 10 8 8 8 9 14 17 22 27 34 34 28 38 37 37 38 39 38 42
23 23 22 20 20 21 22 24 28 29 32 35 38 42 41 37 37 40 26 9 8 7 2 12 9 7 1 5 8 10 12 13 18 23 28 35 45 36 30 37 38 37 37 41
25 23 21 22 22 23 22 24 28 30 33 36 39 41 37 35 39 28 9 6 5 5 5 7 12 2 5 10 12 13 14 14 18 17 21 31 40 43 34 38 42 39 38 36
24 22 22 22 23 22 21 24 27 29 32 35 39 38 32 34 34 12 9 5 3 5 5 7 6 1 7 16 10 9 7 8 10 10 11 18 20 36 39 42 35 33 35 36
25 24 22 23 23 22 21 24 26 29 32 35 38 33 30 32 23 5 7 5 7 6 10 7 8 9 10 13 5 5 1 5 3 2 4 4 5 14 27 40 42 42 42 40
26 24 24 22 22 20 22 24 26 29 31 34 35 28 28 27 12 4 1 3 6 9 6 5 8 8 7 4 8 13 14 12 13 12 12 10 1 6 10 12 19 34 43 48
26 25 24 23 21 21 22 22 25 28 30 33 32 24 24 22 4 3 6 3 8 8 3 4 7 7 1 6 10 8 8 8 9 7 8 8 7 8 12 10 9 13 14 13
28 27 26 23 21 21 21 22 24 27 30 32 28 21 19 15 1 3 4 8 11 10 5 5 6 3 2 9 10 9 8 6 9 6 5 7 8 3 4 4 4 5 2 6
31 29 27 24 22 21 21 22 24 26 30 31 26 19 15 14 4 2 4 7 8 7 6 4 6 4 6 7 9 11 14 7 9 12 9 7 5 6 7 3 4 5 6 3
33 31 28 25 23 21 21 22 24 26 28 32 25 17 16 14 7 5 6 4 4 5 3 3 3 4 3 5 5 8 11 15 15 8 6 7 7 4 7 9 7 6 6 5
35 33 29 26 24 22 20 22 24 26 28 28 23 17 15 12 11 11 10 6 4 7 6 5 3 2 2 4 4 1 7 9 14 19 17 5 5 4 3 9 7 3 2 3
37 34 31 27 26 22 20 22 24 26 27 26 25 18 14 13 12 13 10 8 7 9 11 6 5 2 4 5 6 4 1 4 6 12 12 16 13 10 8 3 1 3 4 7
38 35 32 29 26 22 21 22 23 27 27 24 22 16 12 14 10 8 7 6 13 14 9 6 7 6 5 7 7 5 2 1 3 7 9 6 4 3 7 7 7 5 9 11
40 37 33 30 26 24 22 22 23 26 26 21 17 13 14 8 5 5 8 17 16 10 8 8 7 8 8 8 9 4 3 4 4 7 3 1 0 5 8 10 12 13 14 13
41 37 35 32 27 24 24 23 23 26 23 18 14 11 8 3 6 10 14 15 10 5 7 8 9 9 8 9 10 8 6 3 3 6 8 9 8 9 13 16 19 21 21 24
43 40 37 32 27 26 26 24 24 26 19 14 13 9 7 10 10 11 10 9 6 5 8 9 8 10 11 11 11 8 7 6 7 8 9 10 11 12 13 15 18 19 21 20
47 43 38 32 29 29 27 26 26 22 14 13 16 10 13 15 12 9 6 6 7 7 6 6 7 9 11 11 11 11 11 11 10 10 10 11 11 11 13 13 13 14 13 12
47 44 40 36 33 33 30 28 25 16 12 15 18 13 16 16 15 12 9 9 9 8 6 4 6 9 9 11 11 11 11 10 9 9 10 11 11 12 12 13 12 12 12 12
39 38 39 39 38 34 30 27 20 11 11 19 19 16 19 19 16 14 12 14 12 10 7 7 9 11 10 9 8 8 9 9 10 10 11 13 14 15 16 17 17 16 15 14
38 41 41 40 39 36 31 20 12 13 17 21 18 18 22 19 17 15 14 16 15 12 11 11 14 12 11 9 9 11 11 11 11 13 15 17 19 20 21 20 20 20 20 19
42 41 41 41 38 32 19 15 12 14 17 19 17 21 21 19 18 16 14 15 15 14 13 14 15 11 9 10 10 10 11 13 15 17 19 21 22 22 22 22 21 21 21 20
41 38 35 34 26 21 20 14 12 14 14 14 19 24 22 19 17 16 15 15 15 15 18 17 16 14 13 12 12 13 14 16 16 17 18 20 21 22 22 23 24 25 24 21
30 30 28 24 24 21 16 13 10 12 10 13 20 22 21 19 17 12 11 12 14 17 17 15 16 15 15 16 17 19 20 22 22 23 25 25 25 27 26 27 27 27 27 26
31 28 26 24 22 17 14 11 9 11 11 12 21 21 19 18 14 13 15 16 18 16 15 16 16 18 20 21 22 24 26 26 27 28 28 30 32 33 34 34 33 33 32 32

GFSNW_500_spd_123.txt.gz
Wind_Speed
38 38 32 22 19 21 19 19 20 21 24 28 28 30 31 33 36 38 40 42 40 38 42 44 45 41 31 29 33 27 22 25 23 22 27 30 38 29 28 26 23 30 37 27
34 27 21 19 19 18 15 17 16 19 22 25 27 29 31 34 36 39 42 39 39 42 45 43 35 27 23 27 23 20 20 17 15 11 20 25 32 48 35 29 32 29 26 24
27 23 22 19 17 15 14 15 15 19 22 23 26 29 33 36 37 40 38 38 42 41 21 18 15 13 11 18 15 15 20 19 20 17 20 25 28 38 39 42 33 30 25 31
27 25 22 18 16 15 15 14 16 19 21 23 26 30 34 36 39 38 37 41 37 18 13 9 8 9 12 12 5 7 9 14 18 22 25 27 24 24 26 40 36 34 29 21
27 24 21 18 16 15 15 14 17 20 21 24 27 32 35 37 39 36 38 38 17 7 9 8 5 11 8 5 5 6 2 13 15 17 18 23 37 32 23 30 32 34 30 39
29 25 20 17 17 16 13 16 18 19 21 23 29 34 36 38 36 35 38 22 6 9 8 7 7 4 2 5 8 9 9 10 11 16 13 21 24 35 37 30 30 33 37 33
27 22 20 19 15 15 15 16 16 19 20 23 28 33 36 38 32 31 30 8 7 8 6 5 6 4 8 13 11 2 4 7 10 9 8 11 8 14 25 34 42 30 31 32
27 24 21 18 17 16 15 15 17 17 19 23 28 33 35 34 29 30 17 4 7 9 9 2 3 7 8 7 10 9 9 9 12 10 7 7 3 6 13 30 43 42 38 37
27 23 21 18 17 16 15 15 15 16 18 23 28 32 34 29 26 27 8 2 4 6 6 4 4 5 4 6 10 8 5 5 6 5 6 8 11 6 10 7 14 39 51 47
27 24 21 18 17 15 15 14 15 16 18 22 27 30 32 25 23 22 4 5 3 2 5 2 3 3 2 8 5 3 2 2 6 4 4 5 9 8 8 8 9 15 19 22
28 25 21 19 17 16 15 15 15 17 18 22 26 29 30 22 19 17 7 7 6 4 3 5 5 3 4 7 5 10 8 5 6 4 6 6 8 3 2 5 6 7 6 5
29 25 22 20 18 17 16 15 16 18 18 21 26 27 27 18 15 13 7 5 5 4 4 6 5 4 5 5 5 4 9 12 7 9 6 3 2 5 7 1 5 9 6 2
30 27 24 21 20 18 17 15 16 18 18 21 26 27 25 15 14 12 8 6 7 6 4 6 4 4 5 5 4 4 6 10 13 11 3 2 2 4 5 15 8 4 4 4
32 28 25 24 22 20 18 17 17 18 17 21 25 27 23 15 13 13 8 10 11 11 9 7 7 5 6 7 6 8 2 2 4 10 8 2 1 2 7 8 7 1 3 4
33 29 28 27 23 22 19 18 18 18 18 22 26 26 21 15 15 13 11 13 16 14 11 12 9 6 6 6 8 5 2 5 1 5 8 7 4 4 1 0 2 6 4 8
34 32 31 28 25 23 20 19 19 18 19 23 27 26 20 17 16 14 15 15 18 16 14 13 11 8 8 10 9 6 4 1 1 3 6 5 2 2 3 6 9 12 12 13
37 35 32 29 26 25 22 20 20 18 19 22 26 26 20 16 15 14 12 15 17 17 16 13 11 9 10 12 10 6 5 4 4 7 5 3 4 7 11 13 15 18 20 22
39 36 33 31 30 26 22 23 20 18 19 22 25 24 17 14 11 8 11 14 18 14 12 12 12 11 10 12 10 7 5 4 6 6 7 8 10 12 14 17 20 22 23 25
40 38 35 33 31 25 26 25 21 19 20 23 25 21 14 9 5 7 10 14 10 5 8 12 12 13 14 13 13 10 8 6 6 8 10 11 11 12 14 16 18 20 21 21
43 40 38 35 29 29 28 26 23 19 21 22 25 19 13 10 10 12 10 10 9 7 7 11 10 12 13 13 12 11 10 9 10 11 12 13 13 12 14 15 16 16 16 16
44 41 38 34 33 32 31 28 24 22 22 21 24 17 15 14 17 14 13 11 9 7 9 8 8 11 13 13 13 14 14 14 13 14 13 13 13 14 15 17 17 18 18 18
44 40 39 37 38 38 35 31 26 24 21 22 26 20 17 19 21 19 17 15 13 12 14 13 9 14 13 13 13 13 14 13 13 13 13 14 15 17 19 20 20 21 21 21
44 42 41 39 42 40 32 26 23 21 18 28 23 19 18 22 24 21 19 17 15 15 16 15 13 18 14 13 14 14 14 14 13 13 15 18 20 22 24 25 25 24 23 23
45 43 42 40 40 33 25 26 22 19 27 23 19 17 18 23 23 22 17 16 16 17 17 17 20 17 14 13 13 15 16 16 16 17 19 20 21 21 21 22 22 22 24 25
39 37 37 35 34 30 31 26 24 19 16 11 12 14 20 25 23 20 18 17 15 16 16 19 19 18 17 15 16 17 18 19 20 21 22 23 25 27 27 27 27 27 28 28
40 38 32 30 32 27 25 26 23 15 15 12 12 13 21 23 21 19 18 18 15 16 21 21 17 16 16 18 18 18 19 21 23 25 27 27 28 28 29 31 32 32 32 33
41 36 31 22 25 26 22 20 17 12 13 15 15 18 19 19 20 21 19 19 21 22 20 20 18 18 19 20 20 21 23 26 27 27 26 27 29 31 31 34 36 36 35 36

GFSNW_500_spd_126.txt.gz
Wind_Speed
44 39 37 35 38 37 33 26 23 19 18 17 18 19 22 25 28 30 32 34 37 40 43 45 46 49 49 41 38 37 38 33 25 18 13 25 28 17 26 33 22 35 34 27
32 33 34 33 35 30 23 19 20 18 16 16 16 18 20 24 27 30 34 36 39 43 44 47 44 31 22 18 13 17 18 11 14 8 2 19 30 30 30 24 35 18 26 28
28 30 28 30 27 22 20 19 16 14 14 13 15 18 20 24 26 30 33 37 40 42 45 37 17 16 16 12 16 18 15 16 18 15 12 16 19 27 32 32 31 30 23 31
28 30 30 27 22 22 19 16 14 13 11 12 15 18 21 24 28 31 34 37 40 43 33 15 15 13 13 14 15 4 4 6 9 13 19 18 20 18 15 22 21 33 30 33
28 32 28 25 24 21 18 15 13 12 11 14 15 18 21 25 30 32 34 36 40 38 14 12 11 14 16 8 12 3 7 13 14 16 18 18 29 30 25 22 22 32 37 38
34 33 28 26 22 18 17 14 12 12 12 14 16 17 21 25 29 32 33 35 38 21 10 8 7 5 2 6 10 8 8 8 12 13 15 13 11 11 17 27 22 24 27 26
33 29 28 25 21 19 15 12 12 11 12 12 15 17 22 26 29 31 31 33 31 11 6 3 3 4 4 8 13 8 7 9 12 12 11 8 5 5 15 19 26 23 30 24
33 31 29 24 20 18 15 12 12 11 10 12 14 18 22 26 28 28 28 30 19 5 7 5 2 7 10 2 10 8 7 3 4 4 3 2 2 5 8 10 24 31 32 40
35 32 26 23 22 17 14 13 12 10 9 11 13 17 22 25 29 27 25 25 12 6 10 4 4 5 4 6 8 4 5 3 6 1 2 4 9 7 8 6 5 14 25 36
34 30 27 25 21 17 14 12 11 9 8 10 13 17 21 23 25 21 22 21 8 6 11 6 3 3 5 12 6 3 5 8 7 3 8 9 7 7 6 4 10 15 13 20
35 31 29 25 21 17 14 11 10 8 8 9 12 17 21 23 25 20 20 16 8 5 10 6 5 3 5 6 3 8 10 5 3 6 8 6 1 7 7 10 8 11 10 14
36 32 29 25 21 17 14 11 10 7 8 9 13 17 20 23 25 17 16 15 4 6 7 6 7 4 4 7 3 4 8 8 7 6 8 8 8 4 10 5 5 5 5 8
35 33 30 26 22 18 14 12 11 8 8 9 13 16 20 22 24 15 13 12 7 9 10 9 9 6 4 6 7 8 3 0 4 3 2 5 10 8 8 9 11 6 3 5
37 35 31 27 23 18 15 14 12 10 9 10 13 17 20 22 23 15 14 10 13 14 14 12 13 9 6 7 9 11 6 6 5 3 2 3 5 6 8 6 6 7 4 7
37 34 31 28 24 20 17 15 13 11 11 12 13 17 21 22 22 15 16 14 15 17 17 14 13 12 9 8 10 9 7 8 7 5 5 6 5 7 10 10 6 9 12 11
38 35 32 30 26 22 19 17 13 13 11 13 15 18 21 23 22 18 20 17 17 18 18 15 17 15 11 11 11 10 7 6 6 6 4 8 5 5 6 10 12 17 18 19
39 36 35 32 27 24 21 17 15 14 12 14 16 19 22 23 21 19 19 18 17 16 17 16 18 18 15 14 14 11 8 6 6 7 7 8 7 9 11 13 16 19 22 24
40 38 36 33 29 25 22 19 17 15 14 14 16 20 21 22 19 17 12 12 10 11 12 16 15 17 17 16 14 12 9 7 7 7 8 10 9 14 15 16 18 20 22 23
41 39 37 33 28 27 24 21 20 16 15 15 17 19 20 20 13 7 11 6 6 7 8 10 11 14 15 17 16 14 10 9 9 9 9 11 12 13 15 17 18 20 21 21
42 38 35 31 30 27 25 24 21 18 17 15 18 18 19 17 10 7 6 8 7 4 6 8 10 11 11 14 15 13 12 11 11 12 13 15 17 18 19 20 20 21 22 23
38 37 37 34 32 30 29 26 23 20 18 17 20 20 22 18 13 11 10 10 10 7 7 7 8 8 14 16 15 14 14 14 14 15 16 17 18 19 20 20 21 22 24 25
39 40 37 35 33 33 30 27 24 22 20 20 23 24 25 20 16 18 18 17 14 11 11 12 11 12 16 16 16 16 17 17 17 18 18 18 18 19 21 22 24 26 27 27
42 41 39 37 36 35 31 27 24 23 23 23 25 27 25 21 19 22 24 23 18 13 14 15 13 18 21 18 17 18 19 18 19 19 20 20 21 22 23 25 26 26 26 25
42 40 39 37 36 34 29 26 25 24 24 21 25 25 22 21 20 21 23 24 20 18 15 16 19 21 23 22 19 19 20 20 22 23 23 24 26 26 27 29 30 31 31 31
41 39 38 35 34 31 28 26 24 26 22 19 17 16 18 19 20 21 22 20 20 15 12 15 18 19 21 22 21 19 20 22 23 25 26 28 30 31 32 32 33 33 33 34
44 43 40 38 32 32 29 27 29 25 21 17 15 15 15 16 17 15 18 19 14 14 16 18 18 19 19 20 20 20 22 23 25 25 27 29 30 31 31 31 33 35 35 36
39 35 33 31 32 27 29 23 22 25 22 16 18 17 14 12 14 14 17 14 16 22 21 22 21 20 20 20 21 22 24 24 24 27 28 31 33 34 33 35 35 35 35 31